     2              OBSERVATION DATA    GPS                 RINEX VERSION / TYPE
teqc 1997Jun30 19970702                                     PGM / RUN BY / DATE
                                                            COMMENT
BIT 2 OF LLI FLAGS DATA COLLECTED UNDER A-S CONDITION       COMMENT
BIT 2 OF LLI FLAGS DATA COLLECTED UNDER A-S CONDITION       COMMENT
Original Marker Name: HMCP                                  COMMENT
Campaign Name: HMC San Gabriel Valley 1993-1996             COMMENT
4-Character Station Name: HMCP                              COMMENT
6-Character Antenna Code: DMRCHT                            COMMENT
Vertical Measurement Point: BPA                             COMMENT
Vertical Offset to Rinex Ref. Point: 0.0000                 COMMENT
Radial Measurement Point: RRP                               COMMENT
Radial Offset to Rinex Ref. Point: 0.0000                   COMMENT
Antenna Height from Field Measurement: 0.0000 m             COMMENT
Additional Antenna Identification Info.:                    COMMENT
Turborogue and Ashtech Choke Ring                           COMMENT
Fixed antenna mounting on roof of Parsons                   COMMENT
building, HMC.                                              COMMENT
Original XYZ: -2458536.3819 -4680369.7129 3556390.0765      COMMENT
New XYZ position is based on association with SCEC monument COMMENT
E1D0R2C7+0011. Position of that monument is believed to be  COMMENT
valid to within 1 m horizontally; vertical accuracy         COMMENT
should be no worse than 3-times this value.                 COMMENT
                                                            COMMENT
Revised Rinex header created by UCSD GPS archive for        COMMENT
GSAC on 13-Apr-1999 (1999:103) 19:52:30 GMT                 COMMENT
For assistance contact dagnew@ucsd.edu or hjohnson@ucsd.edu COMMENT
                                                            COMMENT
HARVEY MUDD COLLEGE PHYSICS                                 MARKER NAME
GAL HARVEY MUDD COLLEGE                                     OBSERVER / AGENCY
T-262/263 TURBOROGUE SNR-8000 95.03.08                      REC # / TYPE / VERS
260/329 DORNE-MARGOL. TYPE T                                ANT # / TYPE
 -2458598.0000 -4680494.0000  3556451.0000                  APPROX POSITION XYZ
        0.0000        0.0000        0.0000                  ANTENNA: DELTA H/E/N
     1     1     0                                          WAVELENGTH FACT L1/2
     5    L1    L2    C1    P2    P1                        # / TYPES OF OBSERV
     0                                                      INTERVAL
  1996     3    16     0     0    0.000000                  TIME OF FIRST OBS
  1996     3    16    23    59   30.000000                  TIME OF LAST OBS
     0                                                      # OF SATELLITES
                                                            END OF HEADER
 96  3 16  0  0  0.0000000  0  7G 9G 4G 2G 7G12G24G 5
 -15976070.66444 -12448878.72244  21060265.3344   21060264.9694
 -18505903.27744 -14420170.47044  20580651.8454   20580651.2564
  -6903704.68144  -5379502.98744  23552875.2764   23552876.5454
 -15072298.49944 -11744621.96144  22059605.4894   22059605.4734
  -7487189.896 4  -5834164.506 4  23114368.737    23114366.519
 -15587674.78144 -12146229.91244  21355121.3264   21355122.3564
 -12126624.57544  -9449307.32144  22963345.5694   22963346.7564
 96  3 16  0  0 30.0000000  0  7G 9G 4G 2G 7G12G24G 5
 -15978123.08944 -12450478.01244  21059874.6564   21059874.4374
 -18504665.56044 -14419206.00144  20580887.2084   20580886.6024
  -6826339.56844  -5319218.50444  23567597.9964   23567600.3514
 -15008892.49244 -11695214.68544  22071671.3924   22071671.3014
  -7396665.932 4  -5763626.385 4  23131594.831    23131593.000
 -15658788.97144 -12201643.54344  21341588.6984   21341589.6904
 -12208149.13644  -9512832.90744  22947832.0074   22947832.8144
 96  3 16  0  1  0.0000000  0  7G 9G 4G 2G 7G12G24G 5
 -15979642.97844 -12451662.34044  21059585.3034   21059585.2234
 -18502879.62944 -14417814.35844  20581226.9374   20581226.3504
  -6748749.64244  -5258758.84844  23582362.6494   23582364.9994
 -14945419.20144 -11645754.97444  22083750.1334   22083750.3944
  -7305891.284 4  -5692892.916 4  23148868.864    23148866.957
 -15729457.75944 -12256710.10344  21328140.9664   21328141.8044
 -12289665.65044  -9576352.24444  22932320.0194   22932320.2114
 96  3 16  0  1 30.0000000  0  7G 9G 4G 2G 7G12G24G 5
 -15980650.11044 -12452447.11844  21059393.6754   21059393.4014
 -18500543.06844 -14415993.65044  20581671.4754   20581670.7974
  -6670939.44744  -5198127.56244  23597168.6504   23597172.2014
 -14881876.34744 -11596241.06844  22095841.1454   22095841.9054
  -7214873.475 4  -5621969.973 4  23166189.195    23166186.927
 -15799686.14044 -12311433.48744  21314776.9444   21314777.9924
 -12371186.92144  -9639875.29144  22916807.7024   22916808.0094
 96  3 16  0  2  0.0000000  0  7G 9G 4G 2G 7G12G24G 5
 -15981118.32744 -12452811.96044  21059304.4654   21059304.5164
 -18497631.31544 -14413724.74244  20582225.7854   20582225.1354
  -6592892.15644  -5137311.54944  23612020.7444   23612020.9204
 -14818248.32844 -11546660.79844  22107948.9574   22107950.3554
  -7123596.979 4  -5550845.460 4  23183558.378    23183555.901
 -15869461.13744 -12365803.59344  21301499.4744   21301500.3214
 -12452692.83344  -9703386.36544  22901297.0524   22901297.4284
 96  3 16  0  2 30.0000000  0  7G 9G 4G 2G 7G12G24G 5
 -15981028.69144 -12452742.11544  21059321.4184   21059320.9094
 -18494140.29244 -14411004.45844  20582890.2224   20582889.5784
  -6514620.98444  -5076321.02944  23626915.8544   23626916.3324
 -14754531.20044 -11497011.09844  22120074.6674   22120075.0354
  -7032053.061 4  -5479512.567 4  23200978.478    23200976.259
 -15938805.40944 -12419838.05944  21288303.6864   21288304.4564
 -12534158.15844  -9766865.78944  22885795.4424   22885795.1534
 96  3 16  0  3  0.0000000  0  7G 9G 4G 2G 7G12G24G 5
 -15980371.70944 -12452230.18544  21059446.7754   21059446.4124
 -18490066.82244 -14407830.31644  20583665.0804   20583664.6284
  -6436143.52344  -5015169.80044  23641849.2334   23641851.7744
 -14690733.31444 -11447298.46744  22132215.1084   22132215.2584
  -6940241.590 4  -5407971.188 4  23218449.626    23218447.517
 -16007756.24544 -12473565.96444  21275182.9084   21275183.7404
 -12615570.10644  -9830303.63844  22870303.1764   22870303.2094
 96  3 16  0  3 30.0000000  0  7G 9G 4G 2G 7G12G24G 5
 -15979124.41944 -12451258.26744  21059684.2284   21059683.9624
 -18485367.40544 -14404168.42744  20584559.6994   20584559.2074
  -6357432.98644  -4953836.95244  23656827.9134   23656828.0594
 -14626841.98944 -11397513.01944  22144372.5644   22144372.7794
  -6848139.174 4  -5336203.102 4  23235976.252    23235973.981
 -16076291.01544 -12526969.65244  21262140.6674   21262141.4714
 -12696886.76244  -9893667.24544  22854828.8944   22854828.1044
 96  3 16  0  4  0.0000000  0  7G 9G 4G 2G 7G12G24G 5
 -15977275.53344 -12449817.57544  21060035.8814   21060035.6864
 -18480033.82044 -14400012.38144  20585574.2574   20585573.6854
  -6278489.99144  -4892322.98344  23671850.5384   23671853.2674
 -14562855.14344 -11347653.14444  22156548.8994   22156549.2834
  -6755746.443 4  -5264208.794 4  23253558.073    23253555.757
 -16144413.46944 -12580052.05644  21249177.5034   21249178.5684
 -12778103.68244  -9956953.13044  22839373.3844   22839373.8884
 96  3 16  0  4 30.0000000  0  7G 9G 4G 2G 7G12G24G 5
 -15974853.62344 -12447930.37244  21060496.6584   21060496.3524
 -18474105.13844 -14395392.61944  20586702.6044   20586701.9984
  -6199335.26644  -4830644.01244  23686912.8004   23686914.5394
 -14498808.07144 -11297746.34044  22168737.0534   22168737.0804
  -6663090.041 4  -5192009.029 4  23271189.966    23271187.802
 -16212130.02044 -12632818.17944  21236291.2534   21236292.2814
 -12859245.06444 -10020180.14944  22823932.5024   22823933.0934
 96  3 16  0  5  0.0000000  0  7G 9G 4G 2G 7G12G24G 5
 -15971822.23044 -12445568.24944  21061073.7154   21061073.5274
 -18467551.92244 -14390286.20844  20587949.7494   20587949.0744
  -6119905.34144  -4768750.55344  23702027.5124   23702027.8544
 -14434670.80544 -11247769.25444  22180941.8044   22180942.2564
  -6570133.431 4  -5119575.343 4  23288878.861    23288877.171
 -16279367.28044 -12685210.82444  21223496.5034   21223497.5524
 -12940272.80844 -10083318.61744  22808513.5474   22808513.7084
 96  3 16  0  5 30.0000000  0  7G 9G 4G 2G 7G12G24G 5
 -15968208.68244 -12442752.49744  21061761.5944   21061761.1444
 -18460396.31344 -14384710.40144  20589311.5384   20589310.9344
  -6040203.11744  -4706644.97944  23717194.7854   23717198.8054
 -14370460.03344 -11197734.89544  22193160.5834   22193161.1724
  -6476902.652 4  -5046928.011 4  23306620.130    23306618.355
 -16346122.54644 -12737227.88644  21210793.4174   21210794.1224
 -13021215.12844 -10146390.51644  22793110.7324   22793110.9914
 96  3 16  0  6  0.0000000  0  7G 9G 4G 2G 7G12G24G 5
 -15964024.04944 -12439491.74644  21062558.0004   21062557.4384
 -18452663.85044 -14378685.09444  20590782.7804   20590782.1774
  -5960241.29444  -4644337.07544  23732410.4864   23732413.6444
 -14306189.64044 -11147654.08044  22205390.8524   22205391.2504
  -6383413.292 4  -4974079.195 4  23324410.876    23324408.811
 -16412412.83844 -12788882.63444  21198178.6484   21198179.6204
 -13102101.76544 -10209419.03744  22777718.7194   22777718.9194
 96  3 16  0  6 30.0000000  0  7G 9G 4G 2G 7G12G24G 5
 -15959263.25944 -12435782.04344  21063463.7184   21063463.2124
 -18444364.02244 -14372217.68644  20592362.0054   20592361.4374
  -5880013.64444  -4581822.06244  23747678.1574
 -14241857.00244 -11097524.75844  22217632.9674   22217633.4194
  -6289662.771 4  -4901026.883 4  23342251.159    23342248.854
 -16478226.67044 -12840166.11844  21185654.9064   21185655.4274
 -13182928.16644 -10272400.62744  22762338.3254   22762337.9824
 96  3 16  0  7  0.0000000  0  7G 9G 4G 2G 7G12G24G 5
 -15953956.52144 -12431646.92344  21064473.0634   21064473.1074
 -18435525.93844 -14365330.85744  20594044.0244   20594043.3794
  -5799568.95844  -4519137.96844  23762985.7184
 -14177489.07744 -11047367.94044  22229881.7004   22229883.0294
  -6195697.044 4  -4827806.875 4  23360132.322    23360129.811
 -16543624.89444 -12891125.74944  21173209.9064   21173210.5134
 -13263728.67444 -10335362.03444  22746962.7844   22746963.1204
 96  3 16  0  7 30.0000000  0  7G 9G 4G 2G 7G12G24G 5
 -15948172.54844 -12427139.93344  21065573.9854   21065573.5094
 -18426210.38344 -14358071.97344  20595816.4094   20595815.9454
  -5718986.57744                  23778320.8774
 -14113151.20344 -10997234.53344  22242124.7174   22242125.1424
  -6101587.296 4  -4754474.643 4  23378041.020    23378038.479
 -16608697.01544 -12941831.27044  21160827.1294   21160827.7344
 -13344571.97344 -10398356.78644  22731578.0884   22731578.5804
 96  3 16  0  8  0.0000000  0  7G 9G 4G 2G 7G12G24G 5
 -15941845.97644 -12422210.13944  21066778.1354   21066777.8974
 -18416362.39544 -14350398.20644  20597690.7094   20597690.1184
  -5638214.13044                  23793691.4594
 -14048780.96044 -10947075.91344  22254374.1344   22254373.7684
  -6007266.798 4  -4680978.187 4  23395989.527    23395987.121
 -16673376.96844 -12992231.20944  21148519.1424   21148519.8034
 -13425384.11944 -10461327.25844  22716199.9514   22716200.4224
 96  3 16  0  8 30.0000000  0  7G 9G 4G 2G 7G12G24G 5
 -15934927.21344 -12416818.89744  21068094.5814   21068094.1194
 -18405910.14044 -14342253.58344  20599679.6664   20599679.0994
  -5557186.02644                  23809108.8564
 -13984314.15944 -10896842.05444  22266642.0954   22266642.4784
  -5912670.380 4  -4607266.723 4  23413990.653    23413988.057
 -16737589.92644 -13042267.25444  21136299.4604   21136300.2504
 -13506083.67544 -10524210.01144  22700842.9864   22700842.8644
 96  3 16  0  9  0.0000000  0  7G 9G 4G 2G 7G12G24G 5
 -15927408.33444 -12410960.02844  21069525.1214   21069524.7424
 -18394814.29344 -14333607.45444  20601791.1404   20601790.6664
  -5475884.91144                  23824580.8574
 -13919732.17344 -10846518.43944  22278931.2714   22278931.3234
  -5817775.296 4  -4533322.537 4  23432048.581    23432045.976
 -16801317.07144 -13091924.74444  21124172.6214   21124173.4114
 -13586647.56444 -10586987.05844  22685512.0774   22685512.4454
 96  3 16  0  9 30.0000000  0  7G 9G 4G 2G 7G12G24G 5
 -15919316.59244 -12404654.77644  21071064.9974   21071064.6094
 -18383091.98244 -14324473.17744  20604021.5284   20604021.0874
  -5394324.97044                  23840101.4694
 -13855055.53544 -10796121.06244  22291239.0674   22291239.6694
  -5722592.466 4  -4459154.133 4  23450161.350    23450159.051
 -16864555.02844 -13141201.04844  21112138.5034   21112139.5444
 -13667101.73044 -10649678.58144  22670202.1934   22670202.4634
 96  3 16  0 10  0.0000000  0  7G 9G 4G 2G 7G12G24G 5
 -15910653.71944 -12397904.48644  21072713.3704   21072713.1404
 -18370752.86944 -14314858.27144  20606369.7074   20606369.0934
  -5312514.55544                  23855668.8784
 -13790279.55844 -10745646.28144  22303565.6624   22303566.2794
  -5627126.967 4  -4384765.474 4  23468327.657    23468325.334
 -16927294.30844 -13190088.77444  21100199.9414   21100200.6394
 -13747451.03644 -10712288.40944  22654912.1074   22654912.4394
 96  3 16  0 10 30.0000000  0  7G 9G 4G 2G 7G12G24G 5
 -15901404.83644 -12390697.56744  21074473.5134   21074473.2764
 -18357782.22544 -14304751.26944  20608838.1254   20608837.5644
  -5230440.69844                  23871287.9404
 -13725399.59144 -10695090.47944  22315911.3954   22315911.5254
  -5531375.208 4  -4310153.744 4  23486548.609    23486546.287
 -16989525.59744 -13238580.66244  21088357.6864   21088358.5854
 -13827695.54744 -10774816.57044  22639642.2214   22639641.4314
 96  3 16  0 11  0.0000000  0  7G 9G 4G 2G 7G12G24G 5
 -15891581.51544 -12383043.03144  21076343.0844   21076342.9504
 -18344220.99944 -14294184.06944  20611418.4914   20611417.8974
  -5148144.43444                  23886948.1904
 -13660438.04144 -10644471.09544  22328273.4214   22328273.8854
  -5435373.145 4  -4235346.977 4  23504817.227    23504814.924
 -17051278.75344 -13286699.97644  21076606.2824   21076607.2574
 -13907869.50944 -10837289.76944  22624385.7994   22624385.7074
 96  3 16  0 11 30.0000000  0  7G 9G 4G 2G 7G12G24G 5
 -15881142.67544 -12374908.87344  21078329.4324   21078329.2694
 -18330056.73844 -14283146.97444  20614114.1464   20614113.5244
  -5065599.93144                  23902656.3374
 -13595368.16244 -10593767.30744  22340655.8394   22340655.9244
  -5339096.807 4  -4160326.487 4  23523138.060    23523135.814
 -17112516.95644 -13334418.02844  21064953.1294   21064954.1204
 -13987941.33944 -10899683.36944  22609148.1664   22609148.5074
 96  3 16  0 12  0.0000000  0  7G 9G20G 4G 7G12G24G 5
 -15870110.85044 -12366312.64844  21080428.9794   21080428.4524
        -0.93654                  25193106.6354
 -18315318.52944 -14271662.64444  20616918.4444   20616917.9364
 -13530215.56844 -10542999.05644  22353054.1214   22353054.6744
  -5242575.866 4  -4085115.390 4  23541505.286    23541503.258
 -17173272.22644 -13381759.77444  21053391.7154   21053392.6434
 -14067930.98844 -10962012.93944  22593926.9644   22593926.8594
 96  3 16  0 12 30.0000000  0  7G 9G20G 4G 7G12G24G 5
 -15858546.62944 -12357301.56944  21082629.3044   21082629.0834
    -95775.16444                  25174878.4504
 -18300045.59444 -14259761.65244  20619825.0454   20619824.4334
 -13465046.69344 -10492218.13244  22365455.6014   22365455.5014
  -5145863.107 4  -4009754.839 4  23559909.319    23559907.064
 -17233597.69644 -13428766.60844  21041912.2784   21041912.9544
 -14147879.33844 -11024310.33644  22578713.5764   22578713.6554
 96  3 16  0 13  0.0000000  0  6G 9G 7G12G 4G24G 5
 -15846417.80344 -12347850.54044  21084937.2904   21084936.9634
 -13399818.61944 -10441391.06644  22377867.7174   22377868.0574
  -5048919.140 4  -3934214.119 4  23578357.241    23578354.919
 -18284201.76744 -14247415.80044  20622839.8184   20622839.1714
 -17293455.09844 -13475408.71344  21030521.6074   21030522.4574
 -14227748.53844 -11086546.05244  22563514.9924   22563514.9804
 96  3 16  0 13 30.0000000  0  6G 9G 4G 7G12G24G 5
 -15833768.59644 -12337994.01644  21087344.2094   21087344.0864
 -18267808.77944 -14234642.03544  20625959.5034   20625958.9484
 -13334567.05644 -10390545.70544  22390284.8904   22390285.3204
  -4951770.570 4  -3858513.968 4  23596843.881    23596841.733
 -17352870.10644 -13521706.09944  21019215.5244   21019216.1524
 -14307568.44044 -11148743.36144  22548325.5784   22548326.1704
 96  3 16  0 14  0.0000000  0  7G 9G20G 4G 7G12G24G 5
 -15820580.75944 -12327717.78844  21089853.9484   21089853.7534
        -0.20054                  25120132.8834
 -18250835.33044 -14221415.96544  20629189.2794   20629188.6924
 -13269258.84244 -10339656.19944  22402712.7384   22402713.4314
  -4854389.939 4  -3782632.990 4  23615374.975    23615372.838
 -17411820.45044 -13567641.40844  21007997.6104   21007998.3814
 -14387298.79544 -11210870.87744  22533153.8264   22533153.6464
 96  3 16  0 14 30.0000000  0  7G 9G20G 4G 7G12G24G 5
 -15806830.51144 -12317003.31244  21092470.8924   21092470.6954
    -96003.30244                  25101866.4634
 -18233259.30344 -14207720.35544  20632534.2344   20632533.4534
 -13203874.87444 -10288707.66444  22415154.6414   22415155.0974
  -4756755.921 4  -3706554.575 4  23633954.023    23633951.967
 -17470280.94444 -13613195.01744  20996872.8914   20996873.4974
 -14466905.78544 -11272902.27944  22518004.9144   22518004.1754
 96  3 16  0 15  0.0000000  0  7G 9G20G 7G12G 4G24G 5
 -15792525.93144 -12305856.89344  21095192.7834   21095192.3294
   -192053.63844                  25083588.7704
 -13138418.49544 -10237702.70244  22427610.6774   22427611.1464
  -4658889.010 4  -3630294.688 4  23652577.718    23652575.007
 -18215112.34844 -14193579.86544  20635987.2484   20635986.5454
 -17528266.20844 -13658378.32144  20985838.5354   20985838.9384
 -14546410.52944 -11334854.00144  22502875.9424   22502875.4714
 96  3 16  0 15 30.0000000  0  7G 9G20G 7G12G 5G 4G24
 -15777660.97944 -12294273.81644  21098021.4514   21098021.1314
   -288145.61044                  25065296.9224
 -13072890.22144 -10186641.71744  22440079.8234   22440080.7984
  -4560786.557 4  -3553851.258 4  23671246.079    23671243.343
 -14625794.12044 -11396711.32244  22487769.0224   22487768.5034
 -18196388.83144 -14178990.10844  20639550.1824   20639549.5084
 -17585766.28644 -13703183.55544  20974896.8774   20974897.3194
 96  3 16  0 16  0.0000000  0  7G 9G20G 4G 7G12G24G 5
 -15762229.32444 -12282249.15544  21100958.0444   21100957.7764
   -384281.30144   -299438.78044  25047005.7654   25047008.1004
 -18177105.22444 -14163963.91944  20643220.1644   20643219.2424
 -13007307.05244 -10135537.95044  22452560.2964   22452560.7514
  -4462458.963 4  -3477232.386 4  23689957.009    23689954.629
 -17642786.15944 -13747614.60344  20964046.4754   20964046.9754
 -14705060.24044 -11458477.10644  22472685.7064   22472686.0624
 96  3 16  0 16 30.0000000  0  7G 9G20G 7G12G 5G 4G24
 -15746193.51844 -12269753.72844  21104009.5234   21104009.0414
   -480422.19744   -374353.75544  25028711.7874
 -12941656.61544 -10084381.77244  22465053.0594   22465053.1284
  -4363888.545 4  -3400424.299 4  23708714.172    23708712.118
 -14784205.69244 -11520148.86944  22457624.4454   22457626.0984
 -18157239.80944 -14148484.36844  20647000.2304   20646999.5664
 -17699289.44544 -13791643.11644  20953294.0074   20953294.6244
 96  3 16  0 17  0.0000000  0  7G 9G20G 7G12G 4G24G 5
 -15729584.20944 -12256811.41544  21107170.1014   21107169.9704
   -576599.20944                  25010412.8714
 -12875972.34744 -10033199.23044  22477552.9204   22477552.9654
  -4265108.222 4  -3323452.649 4  23727511.442    23727509.285
 -18136820.97344 -14132573.58644  20650885.8054   20650885.3494
 -17755293.38244 -13835282.52844  20942636.8214   20942637.4484
 -14863266.92244 -11581755.00544  22442579.6474   22442579.8004
 96  3 16  0 17 30.0000000  0  7G 9G20G 7G12G 5G 4G24
 -15712435.14744 -12243448.51544  21110433.7554   21110433.2744
   -672840.03844                  24992101.0954
 -12810302.29044  -9982027.76644  22490048.6924   22490049.3024
  -4166146.751 4  -3246339.854 4  23746343.561    23746341.146
 -14942268.16644 -11643314.39744  22427546.5174   22427546.4314
 -18115873.65644 -14116250.99544  20654872.0004   20654871.1634
 -17810831.54044 -13878558.99744  20932068.2504   20932068.8044
 96  3 16  0 18  0.0000000  0  7G 9G20G 7G12G 4G24G 5
 -15694718.68344 -12229643.48344  21113804.9064   21113804.6164
   -769135.45144   -599324.90444  24973770.5264   24973768.7484
 -12744605.63344  -9930835.58844  22502550.9314   22502551.3964
  -4066977.681 4  -3169065.297 4  23765214.603    23765212.365
 -18094367.77444 -14099493.15944  20658964.1804   20658963.5404
 -17865885.55844 -13921458.20844  20921591.8074   20921592.4344
 -15021182.71244 -11704806.22144  22412529.3844   22412529.2054
 96  3 16  0 18 30.0000000  0  7G 9G20G 7G12G 5G 4G24
 -15676450.80844 -12215408.78644  21117280.8674   21117280.8044
   -865504.52144   -674417.55544  24955433.0634   24955429.8844
 -12678858.88744  -9879604.36544  22515062.1824   22515062.5364
  -3967597.090 4  -3091625.913 4  23784126.342    23784123.756
 -15100004.24244 -11766225.57944  22397530.2424   22397529.4344
 -18072289.04944 -14082288.95144  20663165.5344   20663164.9384
 -17920453.34444 -13963978.54244  20911207.9554   20911208.5784
 96  3 16  0 19  0.0000000  0  7G 9G20G 7G12G 4G24G 5
 -15657669.49844 -12200774.00444  21120855.1214   21120854.7564
   -961981.63644   -749594.47744  24937075.7814
 -12613079.22244  -9828347.49044  22527579.7134   22527579.8104
  -3868020.728 4  -3014033.970 4  23803074.988    23803072.551
 -18049649.72944 -14064647.92244  20667473.5714   20667472.9634
 -17974572.52744 -14006149.31244  20900909.4504   20900910.0264
 -15178744.41244 -11827581.52844  22382546.2884   22382545.9694
 96  3 16  0 19 30.0000000  0  7G 9G20G 7G12G 5G 4G24
 -15638337.37544 -12185710.01844  21124533.9444   21124533.5394
  -1058531.87644                  24918702.6064
 -12547222.47244  -9777030.55244  22540111.0054   22540111.6124
  -3768213.855 4  -2936262.412 4  23822067.838    23822065.327
 -15257368.40144 -11888846.95644  22367584.9254   22367585.0094
 -18026417.06244 -14046544.53944  20671894.8984   20671894.3444
 -18028214.88444 -14047948.53044  20890701.5854   20890702.2744
 96  3 16  0 20  0.0000000  0  7G 9G20G 7G12G 5G 4G24
 -15618403.94944 -12170177.48244  21128327.1994   21128327.0334
  -1155108.61244   -900082.86144  24900323.5934   24900315.6574
 -12481233.36244  -9725610.48544  22552668.7424   22552669.8494
  -3668134.561 4  -2858278.586 4  23841112.381    23841109.856
 -15335830.41644 -11949986.17644  22352653.5704   22352653.5404
 -18002551.53144 -14027948.01644  20676436.3954   20676435.7694
 -18081323.60244 -14089331.93244  20880595.0194   20880595.7904
 96  3 16  0 20 30.0000000  0  7G 9G20G 7G12G 5G 4G24
 -15597909.15844 -12154207.52544  21132227.3294   21132226.8634
  -1251730.46744   -975372.51344  24881937.4244   24881936.4484
 -12415180.72644  -9674140.90544  22565238.8384   22565238.8794
  -3567834.738 4  -2780122.919 4  23860198.764    23860196.359
 -15414181.37344 -12011038.84744  22337744.0654   22337743.9064
 -17978109.76044 -14008902.47644  20681087.4124   20681086.7774
 -18133930.82744 -14130324.55244  20870584.3264   20870584.9074
 96  3 16  0 21  0.0000000  0  7G 9G20G 7G12G 5G 4G24
 -15576844.14844 -12137793.23844  21136236.0874   21136235.5954
  -1348393.02944  -1050693.90844  24863542.0734   24863540.7694
 -12349087.18444  -9622639.44544  22577815.4624   22577815.9594
  -3467332.393 4  -2701809.438 4  23879323.733    23879321.043
 -15492431.51344 -12072012.95044  22322853.7714   22322853.6534
 -17953119.51744 -13989429.56044  20685842.9564   20685842.4024
 -18186036.10944 -14170926.05344  20860669.2384   20860669.7694
 96  3 16  0 21 30.0000000  0  7G 9G20G 7G12G 5G 4G24
 -15555174.27144 -12120907.62544  21140359.3484   21140358.9644
  -1445063.31944  -1126021.29744  24845145.7774   24845143.6784
 -12282917.54844  -9571078.72344  22590407.0094   22590407.5244
  -3366604.951 4  -2623320.558 4  23898491.362    23898488.949
 -15570533.96544 -12132871.98644  22307990.8954   22307991.1004
 -17927565.65344 -13969517.45344  20690705.3464   20690704.7604
 -18237596.04144 -14211102.60444  20850857.6994   20850858.3104
 96  3 16  0 22  0.0000000  0  7G 9G20G 7G12G 5G 4G24
 -15532925.72244 -12103571.10144  21144592.5944   21144592.4814
  -1541758.99144  -1201368.48844  24826745.3344   24826743.3384
 -12216689.56844  -9519472.52844  22603010.0194   22603010.3784
  -3265675.735 4  -2544674.447 4  23917698.057    23917695.307
 -15648499.22844 -12193624.11644  22293154.8014   22293154.4784
 -17901469.24744 -13949182.58944  20695671.7944   20695671.2004
 -18288638.46844 -14250875.90444  20841144.4014   20841144.9394
 96  3 16  0 22 30.0000000  0  7G 9G20G 7G12G 5G 4G24
 -15510111.63144 -12085793.89644  21148934.4764   21148934.3074
  -1638479.73144  -1276735.28244  24808338.7484   24808340.8594
 -12150399.02144  -9467817.56444  22615625.0924   22615624.7184
  -3164549.558 4  -2465874.868 4  23936941.523    23936939.060
 -15726331.77444 -12254272.85144  22278343.5974   22278343.4984
 -17874830.74444 -13928425.31244  20700740.8924   20700739.9964
 -18339167.44744 -14290249.11644  20831529.2544   20831529.6414
 96  3 16  0 23  0.0000000  0  7G 9G20G 7G12G 5G 4G24
 -15486769.01444 -12067604.84944  21153376.4994   21153376.1274
  -1735246.49644  -1352137.94244  24789922.9084   24789923.2004
 -12084051.91844  -9416118.52544  22628250.9744   22628250.3704
  -3063242.062 4  -2386933.998 4  23956219.674    23956217.397
 -15804043.17144 -12314827.16644  22263555.7094   22263555.7474
 -17847658.57244 -13907252.18444  20705911.6444   20705910.8034
 -18389210.60244 -14329243.76344  20822006.3544   20822007.0224
 96  3 16  0 23 30.0000000  0  7G 9G20G 7G12G 5G 4G24
 -15462910.28944 -12049013.64544  21157916.3494   21157916.1104
  -1832052.60944  -1427571.15244  24771504.2364   24771505.6034
 -12017648.99444  -9364376.00144  22640886.5804   22640886.9374
  -2961753.990 4  -2307852.422 4  23975531.959    23975529.903
 -15881629.17944 -12375283.77844  22248792.0524   22248791.6864
 -17819950.18944 -13885661.23344  20711184.0434   20711183.3534
 -18438782.08944 -14367870.88144  20812573.2524   20812573.7254
 96  3 16  0 24  0.0000000  0  7G 9G20G 7G12G 5G 4G24
 -15438543.41844 -12030026.48144  21162553.7664   21162553.3134
  -1928902.40844  -1503038.49944  24753073.4764   24753076.6254
 -11951210.25944  -9312605.57044  22653529.0314   22653529.2804
  -2860096.942 4  -2228639.176 4  23994876.746    23994874.445
 -15959111.91144 -12435659.90944  22234047.0954   22234046.9614
 -17791719.96044 -13863663.64844  20716556.4774   20716555.7704
 -18487885.96344 -14406133.62244  20803228.9904   20803229.6954
 96  3 16  0 24 30.0000000  0  7G 9G20G 7G12G 5G 4G24
 -15413658.37344 -12010635.54644  21167289.1104   21167288.8094
  -2025788.45244                  24734633.8534
 -11884740.33344  -9260810.83744  22666177.5964   22666179.1054
  -2758261.181 4  -2149286.675 4  24014255.198    24014253.180
 -16036492.37144 -12495956.34444  22219322.6364   22219322.3884
 -17762953.67344 -13841248.36144  20722030.3284   20722029.5804
 -18536501.91744 -14444016.17144  20793977.6824   20793978.2264
 96  3 16  0 25  0.0000000  0  7G 9G20G 7G12G 5G 4G24
 -15388227.30344 -11990819.13744  21172128.2304   21172128.0364
  -2122693.18444  -1654044.25444  24716192.3864
 -11818223.94544  -9208979.89844  22678835.5044   22678835.8284
  -2656224.092 4  -2069777.295 4  24033672.471    24033670.446
 -16113742.02744 -12556150.86744  22204622.2274   22204621.7384
 -17733629.37144 -13818398.25044  20727610.5304   20727609.8574
 -18584615.08644 -14481506.93644  20784822.0804   20784822.4474
 96  3 16  0 25 30.0000000  0  7G 9G20G 7G12G 5G 4G24
 -15362222.10044 -11970555.35444  21177076.5394   21177076.3874
  -2219613.82744  -1729566.82644  24697748.6264
 -11751649.79744  -9157103.95444  22691504.1814   22691504.3264
  -2553970.860 4  -1990099.479 4  24053131.043    24053128.586
 -16190848.54444 -12616233.85644  22189949.1174   22189949.2924
 -17703735.05144 -13795103.97644  20733299.3214   20733298.4664
 -18632203.38044 -14518588.70644  20775766.0484   20775766.7194
 96  3 16  0 26  0.0000000  0  7G 9G20G 7G12G 5G 4G24
 -15335685.39844 -11949877.41044  21182126.8574   21182126.6484
  -2316600.54844                  24679291.6594
 -11685055.16344  -9105212.04044  22704176.5764   22704177.6814
  -2451536.893 4  -1910280.844 4  24072623.536    24072621.100
 -16267849.97744 -12676234.95544  22175295.9044   22175296.5364
 -17673296.17344 -13771385.36444  20739091.5914   20739090.9984
 -18679300.60844 -14555287.83044  20766803.9134   20766804.4144
 96  3 16  0 26 30.0000000  0  7G 9G20G 7G12G 5G 4G24
 -15308614.72544 -11928783.38444  21187278.1964   21187277.8254
  -2413637.33944  -1880753.88744  24660826.9264
 -11618420.43544  -9053288.88644  22716856.8114   22716857.0814
  -2348911.582 4  -1830313.112 4  24092152.699    24092149.846
 -16344731.27944 -12736142.44244  22160666.2184   22160666.3174
 -17642300.31244 -13747232.74544  20744990.0034   20744989.2574
 -18725911.91144 -14591608.30844  20757933.8844   20757934.3984
 96  3 16  0 27  0.0000000  0  7G 9G20G 7G12G 5G 4G24
 -15281007.23144 -11907271.05944  21192531.3724   21192531.3464
  -2510716.81144  -1956400.11344  24642354.0984   24642357.2834
 -11551745.90344  -9001334.71644  22729545.2154   22729544.9604
  -2246095.957 4  -1750197.089 4  24111717.447    24111715.161
 -16421480.13944 -12795946.73244  22146061.1954   22146060.9894
 -17610758.40044 -13722654.62844  20750992.1584   20750991.3624
 -18772033.08244 -14627546.86544  20749157.4154   20749158.0384
 96  3 16  0 27 30.0000000  0  7G 9G20G 7G12G 5G 4G24
 -15252855.30844 -11885334.50744  21197888.8954   21197888.4704
  -2607825.80044  -2032069.36044  24623874.4654   24623876.7614
 -11485024.26244  -8949343.82144  22742241.9994   22742242.4844
  -2143089.106 4  -1669932.057 4  24131319.183    24131316.690
 -16498092.14144 -12855644.37544  22131482.1354   22131482.3024
 -17578672.56144 -13697652.67644  20757097.9624   20757097.3084
 -18817648.54744 -14663091.36844  20740477.0564   20740477.6344
 96  3 16  0 28  0.0000000  0  7G 9G20G 7G12G 4G24G 5
 -15224144.45744 -11862962.42044  21203352.3644   21203352.0234
  -2704932.73244  -2107737.10844  24605396.0274   24605397.6414
 -11418229.75944  -8897296.17844  22754951.8624   22754951.5074
  -2039884.999 4  -1589513.307 4  24150958.132    24150956.003
 -17546037.23244 -13672222.54544  20763308.0474   20763307.4194
 -18862748.13744 -14698233.89144  20731894.9964   20731895.6054
 -16574546.19144 -12915218.94844  22116933.9084   22116933.6014
 96  3 16  0 28 30.0000000  0  7G 9G20G 7G12G 5G 4G24
 -15194876.42744 -11840156.17444  21208921.8284   21208921.5754
  -2802043.02044  -2183407.45544  24586918.1764   24586917.1194
 -11351386.10044  -8845210.22444  22767671.9214   22767672.6284
  -1936504.066 4  -1508956.771 4  24170631.000    24170628.776
 -16650855.45544 -12974680.69644  22102412.9614   22102412.5004
 -17512875.08344 -13646381.90744  20769618.7264   20769618.0334
 -18907334.22944 -14732976.28644  20723410.6004   20723411.2224
 96  3 16  0 29  0.0000000  0  7G 9G20G 7G12G 4G24G 5
 -15165056.63344 -11816919.98044  21214595.9404   21214596.1704
  -2899178.03544  -2259096.98044  24568433.9574   24568435.0814
 -11284501.98744  -8793092.73644  22780399.9614   22780400.5674
  -1832959.526 4  -1428272.746 4  24190335.089    24190332.557
 -17479188.27844 -13620132.44544  20776028.9724   20776028.3014
 -18951391.15744 -14767306.34344  20715026.6264   20715027.2224
 -16727020.96044 -13034030.42344  22087918.7064   22087918.4784
 96  3 16  0 29 30.0000000  0  7G 9G20G 7G12G 5G 4G24
 -15134682.39044 -11793251.74944  21220376.4254   21220376.4304
  -2996330.29344  -2334799.96844  24549947.0994   24549944.4694
 -11217561.87244  -8740931.62244  22793137.6294   22793138.4994
  -1729246.596 4  -1347457.511 4  24210071.275    24210068.365
 -16803030.17244 -13093258.35544  22073454.6574   22073455.3974
 -17444961.79144 -13593462.45144  20782542.4044   20782541.4474
 -18994913.22144 -14801219.62544  20706744.8444   20706745.2894
 96  3 16  0 30  0.0000000  0  7G 9G20G 7G12G 4G24G 5
 -15103791.24344 -11769180.73344  21226255.0624   21226254.8824
  -3093517.23044  -2410529.96944  24531455.1524   24531453.1544
 -11150602.66344  -8688755.63244  22805879.7534   22805880.0554
  -1625385.445 4  -1266526.776 4  24229835.379    24229832.296
 -17410210.49144 -13566383.51344  20789155.1484   20789154.5454
 -19037915.69144 -14834728.02844  20698561.7364   20698562.1004
 -16878894.25544 -13152373.20444  22059018.2684   22059018.3034
 96  3 16  0 30 30.0000000  0  7G 9G20G 7G12G 5G 4G24
 -15072409.46344 -11744727.40544  21232226.5154   21232226.3994
  -3190763.20844  -2486306.03144  24512948.9514   24512945.1164
 -11083644.64144  -8636580.57044  22818621.6424   22818620.8034
  -1521388.756 4  -1185490.430 4  24249625.104    24249622.461
 -16954632.81944 -13211390.24844  22044606.0854   22044605.9804
 -17374949.12044 -13538907.11344  20795864.9884   20795864.4074
 -19080393.89544 -14867827.91344  20690478.3264   20690478.9064
 96  3 16  0 31  0.0000000  0  7G 9G20G 7G12G 4G24G 5
 -15040522.08944 -11719880.10844  21238294.6494   21238294.4664
  -3288037.00044  -2562103.73944  24494436.9504   24494438.5554
 -11016650.25744  -8584377.14944  22831370.3104   22831370.0534
  -1417231.005 4  -1104328.583 4  24269445.709    24269443.125
 -17339161.45144 -13511020.61844  20802675.1304   20802674.5254
 -19122330.52244 -14900505.78744  20682498.1754   20682498.5994
 -17030220.96744 -13270290.08444  22030221.6554   22030221.4554
 96  3 16  0 31 30.0000000  0  7G 9G20G 7G12G 5G 4G24
 -15008105.65144 -11694620.55044  21244463.2954   21244463.3004
  -3385299.62644  -2637892.75944  24475928.4564   24475931.6454
 -10949599.08344  -8532129.50644  22844129.8174   22844130.2504
  -1312891.276 4  -1023024.943 4  24289300.957    24289298.173
 -17105643.58744 -13329060.93044  22015869.1804   22015869.2944
 -17302831.30944 -13482711.41144  20809588.6304   20809587.8314
 -19163718.18344 -14932755.89644  20674622.3524   20674622.7564
 96  3 16  0 32  0.0000000  0  7G 9G20G 7G 4G12G24G 5
 -14975152.73344 -11668942.96044  21250733.7574   21250733.6214
  -3482555.73844  -2713676.61544  24457419.7574   24457423.1944
 -10882483.03944  -8479831.30744  22856901.0684   22856900.6154
 -17265963.10444 -13453982.93744  20816604.3504   20816603.9014
  -1208367.930 4   -941578.226 4  24309191.297    24309188.406
 -19204553.64544 -14964575.72344  20666851.5024   20666851.8824
 -17180901.69144 -13387703.60144  22001547.9064   22001547.9174
 96  3 16  0 32 30.0000000  0  7G 9G20G 7G12G 5G 4G24
 -14941665.23644 -11642848.81744  21257106.4354   21257106.1384
  -3579835.17944  -2789478.69944  24438907.5824   24438909.7964
 -10815310.83344  -8427489.32744  22869683.6374   22869683.1074
  -1103686.375 4   -860008.230 4  24329111.423    24329108.746
 -17256027.79844 -13446243.41044  21987251.6484   21987252.1164
 -17228583.27644 -13424855.79644  20823717.5724   20823716.9604
 -19244870.47544 -14995991.41744  20659179.3794   20659179.9404
 96  3 16  0 33  0.0000000  0  7G 9G20G 7G 4G12G24G 5
 -14907630.91944 -11616328.57944  21263582.7994   21263582.7424
  -3677136.49144  -2865297.94344  24420391.8064   24420393.4204
 -10748095.46344  -8375113.72544  22882474.9574   22882475.2144
 -17190696.81944 -13395333.88344  20830926.9984   20830926.3134
   -998848.815 4   -778316.666 4  24349061.380    24349058.834
 -19284686.38044 -15027016.78344  20651602.6804   20651603.0444
 -17331014.39044 -13504674.50244  21972982.2294   21972982.5104
 96  3 16  0 33 30.0000000  0  7G 9G20G 7G12G 4G24G 5
 -14873068.13644 -11589396.55544  21270160.0814   21270159.9904
  -3774481.98044  -2941151.53044  24401863.9584
 -10680866.16844  -8322727.27944  22895268.0204   22895268.2594
   -893873.795 4   -696517.981 4  24369037.536    24369035.048
 -17152317.29144 -13365427.75844  20838230.5464   20838229.5614
 -19324020.57244 -15057666.79044  20644117.7834   20644118.1654
 -17405875.46944 -13563007.79244  21958737.2214   21958736.7974
 96  3 16  0 34  0.0000000  0  7G 9G20G 7G 4G12G24G 5
 -14837958.76044 -11562038.61144  21276840.9174   21276840.8484
  -3871866.33544  -3017035.40744  24383336.9784
 -10613608.01344  -8270318.34144  22908066.2954   22908067.1274
 -17113427.04644 -13335123.67244  20845631.3044   20845630.7034
   -788745.832 4   -614600.125 4  24389042.706    24389040.388
 -19362854.93744 -15087927.31944  20636727.6514   20636728.2274
 -17480587.84444 -13621225.20744  21944520.0244   21944519.7364
 96  3 16  0 34 30.0000000  0  7G 9G20G 7G12G 4G24G 5
 -14802283.46244 -11534239.68844  21283629.9714   21283629.6064
  -3969811.93844                  24364800.3934
 -10546316.77244  -8217883.61744  22920871.6074   22920872.7164
   -683448.835 4   -532550.541 4  24409079.973    24409077.700
 -17074008.92044 -13304408.25244  20853132.2034   20853131.2494
 -19401165.43844 -15117779.64444  20629437.3424   20629437.8874
 -17555124.32244 -13679305.56544  21930335.9894   21930335.8584
 96  3 16  0 35  0.0000000  0  7G 9G20G 7G 4G12G24G 5
 -14766087.32444 -11506034.91144  21290517.9014   21290517.7784
  -4067968.28144                  24346264.7114
 -10479020.21144  -8165444.77444  22933678.0724   22933678.5094
 -17034099.49044 -13273309.99044  20860726.6824   20860726.0794
   -578019.444 4   -450397.811 4  24429142.691    24429140.275
 -19438979.90944 -15147245.44944  20622241.3024   20622242.0744
 -17629504.48244 -13737264.12344  21916181.7474   21916181.7304
 96  3 16  0 35 30.0000000  0  6G 9G 7G12G 5G 4G24
 -14729391.31144 -11477440.62544  21297500.9534   21297500.6114
 -10411717.87744  -8113001.39344  22946485.2684   22946485.1714
   -472473.573 4   -368154.326 4  24449227.460    24449224.833
 -17703730.11944 -13795102.27144  21902056.6704   21902056.6214
 -16993705.84044 -13241834.42144  20868413.4084   20868412.5094
 -19476311.66644 -15176335.11644  20615137.6444   20615138.2234
 96  3 16  0 36  0.0000000  0  7G 9G20G 7G 4G12G24G 5
 -14692181.33544 -11448445.84844  21304582.0324   21304581.6014
         0.02254         0.82554  24309188.1164   24309188.5744
 -10344396.74244  -8060543.37044  22959295.7104   22959296.9024
 -16952811.32344 -13209968.57044  20876195.3244   20876194.6854
   -366795.561 4   -285807.881 4  24469337.152    24469334.825
 -19513134.95844 -15205028.57944  20608130.4594   20608130.7764
 -17777781.26244 -13852804.44644  21887965.5404   21887965.1914
 96  3 16  0 36 30.0000000  0  7G 9G20G 7G12G 4G24G 5
 -14654463.96744 -11419055.70044  21311759.3374   21311758.8634
    -97408.79944    -75902.08644  24290651.1564   24290654.3304
 -10277046.88244  -8008062.99044  22972112.0024   22972112.9804
   -260974.561 4   -203350.021 4  24489474.382    24489471.807
 -16911412.81044 -13177709.99244  20884073.1404   20884072.3494
 -19549431.17244 -15233311.33044  20601223.4914   20601223.8254
 -17851642.89344 -13910358.94844  21873910.5654   21873910.1584
 96  3 16  0 37  0.0000000  0  7G 9G20G 7G 4G12G24G 5
 -14616241.32844 -11389271.84044  21319032.3864   21319032.1844
   -194793.78044   -151786.41844  24272119.9304   24272121.3504
 -10209640.47044  -7955538.51844  22984939.2534   22984939.8304
 -16869492.95844 -13145045.17544  20892050.3504   20892049.4534
   -154994.328 4   -120768.080 4  24509641.931    24509639.170
 -19585191.42544 -15261176.45044  20594418.4694   20594418.7344
 -17925300.42944 -13967754.42344  21859893.7004   21859893.2514
 96  3 16  0 37 30.0000000  0  7G 9G20G 7G12G 4G24G 5
 -14577541.69444 -11359116.29644  21326397.0584   21326396.7634
   -292174.64144   -227667.55444  24253588.7104   24253586.8064
 -10142204.57344  -7902991.06544  22997771.8904   22997772.4164
    -48869.857 4    -38073.748 4  24529836.752    24529833.977
 -16827062.75544 -13111982.68044  20900124.2444   20900123.5344
 -19620426.86844 -15288632.62444  20587713.5204   20587713.9694
 -17998782.55744 -14025013.21644  21845910.2374   21845909.9234
 96  3 16  0 38  0.0000000  0  7G 9G20G 7G 4G12G24G 5
 -14538361.37844 -11328586.19344  21333853.0134   21333852.5794
   -389545.34844   -303540.79644  24235060.0634   24235060.4834
 -10074722.50644  -7850407.66644  23010613.2674   23010611.5724
 -16784120.52644 -13078521.20344  20908296.0334   20908295.2384
     57406.224 4     44738.717 4  24550060.638    24550057.860
 -19655117.18644 -15315664.02844  20581111.8824   20581112.3614
 -18072092.04344 -14082137.48544  21831960.0254   21831960.2144
 96  3 16  0 38 30.0000000  0  7G 9G20G 7G12G 4G24G 5
 -14498676.73344 -11297663.10144  21341404.3664   21341404.2074
   -486891.05944   -379394.52244  24216535.2814   24216536.6174
 -10007157.32844  -7797759.47144  23023470.3464   23023470.5214
    163842.595 4    127676.088 4  24570314.836    24570312.172
 -16740650.76844 -13044648.66444  20916568.0794   20916567.2944
 -19689254.76644 -15342264.72644  20574615.7754   20574616.2314
 -18145212.62644 -14139114.55244  21818045.5604   21818045.9074
 96  3 16  0 39  0.0000000  0  7G 9G20G 7G 4G12G24G 5
 -14458463.53444 -11266328.15444  21349056.6494   21349056.5674
   -584213.79644   -455230.34944  24198014.9424   24198016.2974
  -9939502.04144  -7745041.06844  23036344.8554   23036345.0344
 -16696647.57344 -13010360.45844  20924941.5874   20924940.9514
    270435.307 4    210735.292 4  24590598.922    24590595.792
 -19722853.03644 -15368445.18444  20568222.3994   20568222.9304
 -18218140.39044 -14195941.36544  21804168.2344   21804168.2434
 96  3 16  0 39 30.0000000  0  7G 9G20G 7G12G 4G24G 5
 -14417723.08144 -11234582.35844  21356809.4154   21356809.2934
   -681519.91144   -531053.21444  24179497.2634   24179500.6934
  -9871778.40444  -7692269.40944  23049232.4884   23049234.0474
    377162.678 4    293899.423 4  24610908.479    24610905.319
 -16652125.27244 -12975667.75644  20933413.9674   20933413.0464
 -19755920.63044 -15394212.12644  20561929.6884   20561930.1704
 -18290894.14444 -14252632.60144  21790323.2104   21790322.9164
 96  3 16  0 40  0.0000000  0  7G 9G20G 7G 4G12G24G 5
 -14376455.99544 -11202426.20044  21364662.0244   21364661.7144
   -778813.44444   -606866.33444  24160983.9024   24160984.2324
  -9803992.56444  -7639449.30044  23062131.2854   23062132.0134
 -16607094.01944 -12940578.46944  20941983.0494   20941982.2524
    484009.433 4    377156.582 4  24631240.578    24631237.676
 -19788467.69144 -15419573.46344  20555736.3204   20555736.7974
 -18363466.02844 -14309182.11244  21776513.3434   21776512.9324
 96  3 16  0 40 30.0000000  0  7G 9G20G 7G 4G12G24G 5
 -14334694.77444 -11169884.99844  21372609.3364   21372608.9024
   -876130.30844   -682697.66244  24142464.3674   24142465.5904
  -9736194.19944  -7586619.43844  23075033.4524   23075033.3674
 -16561582.42144 -12905114.88044  20950643.4024   20950642.9064
    590942.563 4    460481.045 4  24651589.429    24651586.196
 -19820537.10344 -15444562.60044  20549633.6784   20549634.0334
 -18435884.79344 -14365612.31344  21762732.4684   21762732.1524
 96  3 16  0 41  0.0000000  0  7G 9G20G 7G12G 4G24G 5
 -14292459.76844 -11136974.61944  21380646.2724   21380646.2824
   -973477.27044   -758552.36444  24123939.3444   24123939.5544
  -9668405.60344  -7533797.16244  23087932.3954   23087932.9964
    697961.636 4    543872.477 4  24671954.304    24671951.411
 -16515593.70244 -12869279.51644  20959395.1064   20959394.4304
 -19852114.82244 -15469168.60244  20543624.5794   20543624.9224
 -18508152.53944 -14421924.83144  21748980.4024   21748980.2024
 96  3 16  0 41 30.0000000  0  7G 9G20G 7G 4G12G24G 5
 -14249735.75344 -11103683.19344  21388776.3264   21388776.1314
  -1070819.15644   -834403.14144  24105417.0214   24105420.2114
  -9600604.23744  -7480964.94244  23100835.5764   23100836.0124
 -16469097.57544 -12833048.76444  20968242.8674   20968241.7834
    805099.830 4    627356.742 4  24692342.536    24692339.566
 -19883146.25144 -15493348.92544  20537719.5394   20537719.7654
 -18580245.30744 -14478101.00544  21735262.0004   21735261.5784
 96  3 16  0 42  0.0000000  0  7G 9G20G 7G12G 4G24G 5
 -14206541.86944 -11070025.63444  21396995.8754   21396995.5534
  -1168174.98844   -910264.76744  24086890.4184   24086892.3914
  -9532817.85444  -7428144.39044  23113734.5254   23113734.9844
    912340.209 4    710920.623 4  24712749.393    24712746.744
 -16422133.23444 -12796453.16844  20977179.9574   20977179.2264
 -19913653.94144 -15517121.13844  20531913.8644   20531914.4464
 -18652174.77644 -14534149.93644  21721573.9044   21721573.7684
 96  3 16  0 42 30.0000000  0  7G 9G20G 4G 7G12G24G 5
 -14162839.28144 -11035971.67744  21405312.3144   21405312.4404
  -1265521.16744   -986118.92644  24068366.0124   24068370.6674
 -16374673.30944 -12759471.41344  20986211.4654   20986210.4944
  -9465014.36044  -7375310.50744  23126637.7204   23126639.0674
   1019717.867 4    794591.473 4  24733183.022    24733180.268
 -19943601.21444 -15540456.66644  20526215.0654   20526215.4754
 -18723915.31944 -14590051.64444  21707922.5484   21707922.4284
 96  3 16  0 43  0.0000000  0  7G 9G20G 4G 7G12G24G 5
 -14118619.60744 -11001514.79844  21413726.5734   21413726.7644
  -1362836.05944  -1061948.69144  24049848.3554   24049849.4514
 -16326718.45944 -12722103.99644  20995336.9544   20995336.3134
  -9397181.28144  -7322453.57244  23139545.7044   23139545.8274
   1127237.982 4    878373.326 4  24753643.232    24753640.412
 -19972958.55544 -15563332.50644  20520628.7094   20520629.1084
 -18795448.02844 -14645791.40044  21694310.0484   21694310.3394
 96  3 16  0 43 30.0000000  0  7G 9G20G 4G 7G12G24G 5
 -14073878.99944 -10966652.00144  21422240.8034   21422240.5244
  -1460112.75344  -1137748.62744  24031335.5744   24031339.6634
 -16278284.68244 -12684363.39544  21004553.4464   21004552.9054
  -9329307.30244  -7269564.78944  23152461.7234   23152461.3364
   1234900.965 4    962266.488 4  24774131.264    24774128.122
 -20001733.80144 -15585754.76844  20515152.8474   20515153.1654
 -18866760.96044 -14701359.90244  21680739.9454   21680739.6674
 96  3 16  0 44  0.0000000  0  6G 9G20G 4G 7G24G 5
 -14028641.11044 -10931401.70544  21430848.9994   21430848.6404
  -1557364.36044  -1213529.05144  24012829.1284   24012829.7894
 -16229385.95944 -12646260.49544  21013858.7574   21013858.1644
  -9261385.91944  -7216639.03444  23165386.2484   23165387.2944
 -20029953.58944 -15607744.20544  20509782.9264   20509783.3264
 -18937850.14544 -14756754.07244  21667211.9654   21667211.5854
 96  3 16  0 44 30.0000000  0  7G 9G20G 4G 7G12G24G 5
 -13982894.12844 -10895754.71844  21439554.8804   21439554.6254
  -1654556.62244  -1289263.22444  23994333.6014   23994335.2594
 -16179984.59144 -12607765.92444  21023259.4094   21023258.8334
  -9193370.14344  -7163639.70944  23178329.6924   23178330.0474
        -0.93214        -0.50214  24815181.756    24815178.712
 -20057591.61444 -15629280.32044  20504523.5234   20504523.9634
 -19008688.99344 -14811953.16844  21653731.7344   21653731.9374
 96  3 16  0 45  0.0000000  0  7G 9G20G 4G 7G12G24G 5
 -13936682.90344 -10859745.98344  21448348.1654   21448348.0594
  -1751710.80544  -1364967.74044  23975845.8724   23975845.5484
 -16130125.86744 -12568914.97344  21032747.2984   21032746.6274
  -9125294.34044  -7110593.65244  23191283.7114   23191283.9744
    108037.626 4     84185.318 4  24835740.971    24835737.789
 -20084696.72644 -15650401.17944  20499365.5534   20499365.9844
 -19079304.21944 -14866977.99844  21640293.8504   21640293.7114
 96  3 16  0 45 30.0000000  0  7G 9G20G 4G 7G12G24G 5
 -13890028.36844 -10823391.80944  21457226.4364   21457226.1614
  -1848859.26444  -1440667.80644  23957359.5124   23957360.6034
 -16079824.36644 -12529719.00044  21042319.0984   21042318.6224
  -9057180.65344  -7057518.08244  23204245.1684   23204246.5994
    216153.579 4    168431.436 4  24856314.632    24856311.787
 -20111323.86644 -15671149.59244  20494298.7474   20494299.2024
 -19149717.93444 -14921845.81544  21626894.5814   21626894.4274
 96  3 16  0 46  0.0000000  0  7G 9G20G 4G 7G12G24G 5
 -13842883.22144 -10786655.34144  21466197.8154   21466197.4974
  -1945960.67944  -1516331.20844  23938880.3964   23938881.6654
 -16029043.82144 -12490149.74744  21051982.4994   21051981.5444
  -8989006.44444  -7004395.36444  23217218.7484   23217218.3554
    324371.601 4    252757.095 4  24876908.257    24876905.049
 -20137448.90844 -15691506.75744  20489327.2474   20489327.6894
 -19219906.91944 -14976538.52544  21613538.1304   21613537.6084
 96  3 16  0 46 30.0000000  0  7G 9G20G 4G 7G12G24G 5
 -13795240.02044 -10749530.78044  21475264.0084   21475263.9814
  -2043028.10444  -1591968.10544  23920411.0934   23920413.1214
 -15977807.18344 -12450225.09444  21061732.3814   21061731.9624
  -8920812.31944  -6951257.09644  23230195.3774   23230196.4914
    432672.050 4    337146.980 4  24897516.948    24897513.973
 -20163086.85144 -15711484.36744  20484448.6174   20484448.9664
 -19289891.43744 -15031071.91144  21600220.4004   21600220.2554
 96  3 16  0 47  0.0000000  0  7G 9G20G 4G 7G12G24G 5
 -13747098.64344 -10712018.02844  21484425.0654   21484425.2294
  -2140079.33144  -1667592.37744  23901941.8314   23901942.5024
 -15926124.41444 -12409952.81144  21071567.4314   21071566.7264
  -8852627.18844  -6898125.82244  23243169.8964   23243170.8744
    541046.235 4    421594.328 4  24918139.987    24918136.959
 -20188236.97444 -15731081.85344  20479662.7984   20479663.0594
 -19359674.72944 -15085448.48444  21586941.2874   21586941.1004
 96  3 16  0 47 30.0000000  0  7G 9G20G 4G 7G12G24G 5
 -13698442.16544 -10674103.90044  21493683.8174   21493684.1414
  -2237094.36444  -1743188.44644  23883480.4754   23883481.6054
 -15873973.92944 -12369316.06644  21081491.2024   21081490.5714
  -8784423.67444  -6844980.23844  23256149.7334   23256149.8724
    649514.564 4    506115.030 4  24938780.903    24938778.065
 -20212855.08044 -15750264.78044  20474977.9294   20474978.3324
 -19429245.64044 -15139659.57344  21573702.3994   21573702.3514
 96  3 16  0 48  0.0000000  0  6G 9G20G 4G 7G24G 5
 -13649292.06244 -10635805.13344  21503037.1384   21503037.2704
  -2334083.23944  -1818764.16844  23865024.7404   23865026.6964
 -15821395.25244 -12328345.67044  21091496.5254   21091495.9124
  -8716216.14844  -6791831.53844  23269128.7294   23269129.8354
 -20236940.82844 -15769032.87944  20470394.5174   20470394.9034
 -19498630.24444 -15193725.48544  21560498.9634   21560498.5394
 96  3 16  0 48 30.0000000  0  6G 9G20G 4G 7G24G 5
 -13599705.58644 -10597166.33444  21512473.1494   21512472.7404
  -2431089.26044  -1894353.24044  23846564.8154   23846566.5944
 -15768409.45744 -12287058.03644  21101579.4354   21101578.9984
  -8648035.92344  -6738704.10344  23282102.9134   23282104.4904
 -20260513.16744 -15787400.92044  20465908.7614   20465909.1154
 -19567855.43944 -15247667.18344  21547325.5794   21547325.2334
 96  3 16  0 49  0.0000000  0  6G 9G20G 4G 7G 5G24
 -13549661.56044 -10558171.00444  21521996.5054   21521996.1884
  -2528066.03844  -1969919.49944  23828109.6834   23828111.1874
 -15714971.23044 -12245417.85944  21111748.1724   21111747.1624
  -8579825.11944  -6685552.83744  23295083.6254   23295082.7334
 -19636883.34844 -15301455.15044  21534190.0224   21534189.7524
 -20283520.08244 -15805328.37044  20461530.7704   20461530.8714
 96  3 16  0 49 30.0000000  0  6G 9G20G 4G 7G24G 5
 -13499169.13044 -10518826.26644  21531604.6724   21531604.3734
  -2625012.49844  -2045462.15944  23809662.1174   23809664.7664
 -15661097.34044 -12203438.19844  21122000.4344   21121999.6164
  -8511590.83944  -6632383.27044  23308067.4474   23308066.4124
 -20305992.80044 -15822839.56244  20457254.1934   20457254.5894
 -19705716.88344 -15355091.65744  21521091.5174   21521091.3114
 96  3 16  0 50  0.0000000  0  7G 9G20G 4G 7G 6G24G 5
 -13448231.26544 -10479134.43244  21541297.8224   21541297.4504
  -2721932.20744  -2120983.98244  23791219.4724   23791220.0214
 -15606781.03844 -12161113.80944  21132336.5144   21132335.8744
  -8443346.09544  -6579205.56444  23321054.0774   23321054.4764
        -0.98354                  25450666.0304
 -20327951.39044 -15839950.13644  20453075.7884   20453076.1034
 -19774344.32144 -15408567.58044  21508032.4184   21508032.0004
 96  3 16  0 50 30.0000000  0  7G 9G20G 4G 7G 6G24G 5
 -13396847.36044 -10439095.03144  21551075.9224   21551075.8014
  -2818825.27744  -2196485.02244  23772780.3344   23772783.3864
 -15551994.33544 -12118422.87744  21142761.7394   21142761.3204
  -8375085.85344  -6526015.78144  23334042.8074   23334044.7894
    -73691.51244                  25436642.5284
 -20349382.31044 -15856649.54044  20448997.7564   20448998.0724
 -19842751.58144 -15461871.92844  21495014.7244   21495014.7314
 96  3 16  0 51  0.0000000  0  6G 9G20G 4G 7G24G 5
 -13344998.03144 -10398692.97244  21560942.3834   21560942.3734
  -2915685.90044  -2271960.80344  23754348.8934   23754349.9694
 -15496760.22144 -12075383.30644  21153272.4654   21153271.7484
  -8306803.25344  -6472808.59644  23347037.7154   23347038.7794
 -20370294.68244 -15872944.87944  20445018.2384   20445018.5194
 -19910931.96944 -15514999.48544  21482040.4444   21482039.9984
 96  3 16  0 51 30.0000000  0  6G 9G20G 4G 7G24G 5
 -13292668.04444 -10357916.37144  21570900.4854   21570900.8394
  -3012494.68844  -2347396.16444  23735927.7484   23735928.1094
 -15441068.94044 -12031987.50544  21163870.2474   21163869.6204
  -8238474.84244  -6419565.67844  23360039.3794   23360039.9334
 -20390674.38344 -15888825.15344  20441139.9294   20441140.3914
 -19978854.99244 -15567926.51344  21469115.2454   21469114.7654
 96  3 16  0 52  0.0000000  0  6G 9G20G 4G 7G24G 5
 -13239861.85444 -10316768.71044  21580949.4424   21580949.6834
  -3109239.99544  -2422782.06944  23717517.7094   23717517.4094
 -15384907.15944 -11988225.08044  21174557.4414   21174556.8444
  -8170085.87744  -6366275.59544  23373054.3634   23373054.5524
 -20410489.98344 -15904265.86844  20437368.9764   20437369.4694
 -20046518.19744 -15620651.07444  21456239.1744   21456238.8394
 96  3 16  0 52 30.0000000  0  6G 9G20G 4G 7G24G 5
 -13186604.38544 -10275269.39344  21591083.9714   21591083.5344
  -3205935.11844  -2498128.86344  23699116.9054   23699118.4944
 -15328311.48644 -11944124.55944  21185327.3014   21185326.8064
  -8101661.95844  -6312958.28644  23386074.9914   23386074.0024
 -20429761.36344 -15919282.52144  20433701.8054   20433702.2254
 -20113939.96544 -15673187.50844  21443409.1794   21443408.8484
 96  3 16  0 53  0.0000000  0  6G 9G20G 4G 7G24G 5
 -13132901.58744 -10233423.07344  21601302.9674   21601302.9194
  -3302566.27244  -2573425.81744  23680728.1814   23680729.7264
 -15271298.08144 -11899698.52844  21196176.6014   21196175.9524
  -8033205.50944  -6259615.60644  23399101.8054   23399102.5044
 -20448503.99444 -15933887.16444  20430135.1634   20430135.5554
 -20181118.00544 -15725534.02244  21430625.4564   21430625.2814
 96  3 16  0 53 30.0000000  0  6G 9G20G 4G 7G24G 5
 -13078754.71044 -10191230.71444  21611606.8204   21611606.8244
  -3399123.21144  -2648664.95644  23662353.2854   23662354.2764
 -15213836.98044 -11854923.64944  21207111.0294   21207110.4194
  -7964707.81944  -6206240.76844  23412136.6264   23412136.5784
 -20466703.25644 -15948068.40044  20426671.9324   20426672.4204
 -20248037.05144 -15777678.72744  21417891.6564   21417891.2794
 96  3 16  0 54  0.0000000  0  6G 9G20G 4G 7G24G 5
 -13024181.77744 -10148706.36744  21621991.8874   21621991.5374
  -3495646.64944  -2723877.96044  23643985.4364   23643986.3554
 -15155947.71444 -11809815.13644  21218127.0204   21218126.1494
  -7896211.51444  -6152867.05644  23425169.8144   23425169.4934
 -20484379.92744 -15961842.42144  20423308.4104   20423308.6904
 -20314733.73344 -15829650.16344  21405199.4784   21405199.4134
 96  3 16  0 54 30.0000000  0  6G 9G20G 4G 7G24G 5
 -12969153.86044 -10105827.48844  21632463.1614   21632463.2684
  -3592124.94144  -2799055.83444  23625626.1484   23625626.9124
 -15097610.93644 -11764357.90344  21229228.3794   21229227.7464
  -7827687.01444  -6099471.35144  23438209.0064   23438209.5134
 -20501520.12444 -15975198.41144  20420046.6194   20420046.6424
 -20381181.42344 -15881427.57444  21392554.9604   21392554.6354
 96  3 16  0 55  0.0000000  0  6G 9G20G 4G 7G24G 5
 -12913673.26144 -10062595.86844  21643020.8834   21643020.6604
  -3688565.66244  -2874204.40644  23607274.2094   23607274.5674
 -15038829.91344 -11718554.51444  21240413.8624   21240413.4234
  -7759127.96944  -6046048.73944  23451256.0894   23451255.9454
 -20518130.95744 -15988141.90944  20416885.6584   20416886.1024
 -20447390.01144 -15933018.67044  21379955.6394   21379955.3654
 96  3 16  0 55 30.0000000  0  6G 9G20G 4G 7G24G 5
 -12857736.50044 -10019008.79544  21653665.1824   21653665.0184
  -3784966.17444  -2949321.63844  23588929.8624   23588930.0064
 -14979592.82644 -11672395.74044  21251686.2524   21251685.4424
  -7690525.69744  -5992592.43744  23464311.6274   23464312.5214
 -20534194.15344 -16000658.68044  20413828.9604   20413829.2624
 -20513350.04844 -15984416.09644  21367404.2354   21367404.0334
 96  3 16  0 56  0.0000000  0  6G 9G20G 4G 7G24G 5
 -12801335.79644  -9975060.20644  21664398.3614   21664398.0404
  -3881295.32444  -3024383.30544  23570599.2394   23570600.7134
 -14919902.21844 -11625883.57944  21263045.0554   21263044.1784
  -7621876.78644  -5939099.79144  23477375.1704   23477376.3404
 -20549703.15144 -16012743.60344  20410877.7334   20410877.9714
 -20579054.66544 -16035614.48844  21354900.9634   21354900.5104
 96  3 16  0 56 30.0000000  0  6G 9G20G 4G 7G24G 5
 -12744483.70644  -9930759.89244  21675216.6714   21675216.3064
  -3977536.87044  -3099376.66144  23552285.4824   23552285.8184
 -14859781.41544 -11579036.19944  21274485.8994   21274484.7784
  -7553179.65544  -5885569.57444  23490447.3844   23490448.1844
 -20564678.48344 -16024412.68244  20408027.9314   20408028.1264
 -20644495.12144 -16086607.04144  21342447.8424   21342447.3174
 96  3 16  0 57  0.0000000  0  6G 9G20G 4G 7G24G 5
 -12687187.65144  -9886113.62944  21686119.7204   21686119.7594
  -4073680.41144  -3174293.65044  23533989.2454   23533989.3704
 -14799235.25744 -11531857.37944  21286006.5504   21286006.1964
  -7484441.35644  -5832007.28144  23503528.1894   23503529.5094
 -20579102.99844 -16035652.55344  20405283.0644   20405283.4484
 -20709670.22744 -16137392.83244  21330045.1834   21330044.9374
 96  3 16  0 57 30.0000000  0  7G 9G20G 4G 6G 7G24G 5
 -12629451.02444  -9841124.06344  21697106.6734   21697106.5214
  -4169724.87144  -3249133.43744  23515712.8424   23515713.1424
 -14738266.26844 -11484349.07444  21297608.9094   21297608.2484
        -0.36154                  25241566.7534
  -7415661.68844  -5778412.74344  23516616.0484   23516617.0614
 -20592957.17144 -16046448.00244  20402646.8314   20402646.9724
 -20774576.89644 -16187969.44544  21317694.3374   21317693.9854
 96  3 16  0 58  0.0000000  0  6G 9G20G 4G 7G24G 5
 -12571277.10244  -9795793.75344  21708176.5964   21708176.9534
  -4265671.64144  -3323897.13944  23497455.5524   23497455.9544
 -14676886.42544 -11436520.62544  21309289.4504   21309288.7904
  -7346849.92644  -5724793.19744  23529710.9204   23529712.1554
 -20606255.79844 -16056810.55844  20400116.0194   20400116.3534
 -20839227.83144 -16238346.78344  21305391.6124   21305390.8484
 96  3 16  0 58 30.0000000  0  6G 9G20G 4G 7G24G 5
 -12512714.70844  -9750160.73344  21719320.9684   21719321.1314
  -4361576.58644  -3398628.20844  23479204.8014   23479207.1194
 -14615139.58644 -11388406.20944  21321039.4524   21321038.9004
  -7278042.25844  -5671176.87244  23542804.1944   23542803.8494
 -20619040.63744 -16066772.75744  20397683.3504   20397683.5384
 -20903666.47244 -16288558.70844  21293129.3734   21293128.7834
 96  3 16  0 59  0.0000000  0  7G 9G20G 4G 7G16G24G 5
 -12453729.09244  -9704197.93244  21730545.4124   21730545.4384
  -4457395.78844  -3473292.48344  23460971.1324   23460972.3174
 -14552976.45144 -11339967.40544  21332868.4784   21332867.7094
  -7209203.47944  -5617536.28844  23555903.8414   23555903.4814
        -0.47554                  24654318.3994
 -20631277.96244 -16076308.32644  20395354.4344   20395354.7704
 -20967858.58544 -16338578.52944  21280913.7204   21280913.6204
 96  3 16  0 59 30.0000000  0  7G 9G20G 4G 7G16G24G 5
 -12394308.83744  -9657896.45044  21741853.1174   21741853.1834
  -4553121.54244  -3547883.93144  23442754.7084   23442755.0524
 -14490394.66444 -11291202.37944  21344777.6174   21344777.1504
  -7140330.39444  -5563868.95644  23569010.0804   23569010.8284
    -92724.36744                  24636672.7254
 -20642998.47244 -16085441.18044  20393124.2144   20393124.3114
 -21031792.44144 -16388397.11144  21268747.4324   21268747.1414
 96  3 16  1  0  0.0000000  0  6G 9G20G 4G 7G24G 5
 -12334471.86944  -9611270.26044  21753239.7314   21753239.7334
  -4648761.78744  -3622408.80944  23424554.7584   23424555.7354
 -14427402.73844 -11242117.76944  21356764.4504   21356763.4994
  -7071442.11244  -5510189.77144  23582120.0134   23582121.0144
 -20654237.98844 -16094199.23644  20390985.4594   20390985.4404
 -21095463.94344 -16438011.26444  21256631.5484   21256631.2364
 96  3 16  1  0 30.0000000  0  7G 9G20G 4G 6G 7G24G 5
 -12274217.48544  -9564318.80944  21764705.1844   21764705.0764
  -4744323.73544  -3696872.60844  23406369.6964   23406370.6854
 -14364006.49544 -11192718.10444  21368828.3264   21368827.5764
        -0.92954                  25158602.2874
  -7002532.42344  -5456493.91944  23595232.1974   23595233.3424
 -20664989.34544 -16102576.90644  20388939.2394   20388939.5964
 -21158855.95444 -16487407.62344  21244568.3024   21244568.1084
 96  3 16  1  1  0.0000000  0  8G 9G20G 4G 6G 7G16G24G 5
 -12213536.10344  -9517034.62444  21776252.6504   21776252.4014
  -4839808.97344  -3771276.66044  23388200.1814   23388200.8134
 -14300199.94944 -11142998.72244  21380970.6594   21380969.8134
    -72533.03244    -56519.68044  25144799.3464
  -6933596.13744  -5402777.34144  23608349.7224   23608348.4404
        -1.16654                  24583624.8374
 -20675236.92044 -16110562.02144  20386989.3504   20386989.3674
 -21221952.36444 -16536573.64644  21232561.3654   21232560.9194
 96  3 16  1  1 30.0000000  0  8G 9G20G 4G 6G 7G16G24G 5
 -12152459.00244  -9469442.08544  21787875.2394   21787874.8884
  -4935260.52444  -3845654.45044  23370035.5424   23370036.1124
 -14236024.39144 -11092991.80244  21393182.7094   21393182.3134
   -145043.34644                  25130999.1124
  -6864655.56244  -5349057.45344  23621468.8164   23621471.1074
    -93128.25344                  24565905.5904
 -20684997.30444 -16118167.50744  20385132.0264   20385132.4164
 -21284777.65044 -16585528.41044  21220605.9864   21220605.4584
 96  3 16  1  2  0.0000000  0  6G 9G20G 4G 7G24G 5
 -12090988.96144  -9421543.36644  21799572.3164   21799572.6944
  -5030676.57344  -3920004.60144  23351878.1684   23351878.7284
 -14171485.74744 -11042701.95944  21405464.2014   21405463.2494
  -6795711.94344  -5295335.17144  23634588.4344   23634589.4724
 -20694245.83244 -16125374.14344  20383372.0114   20383372.3214
 -21347334.60044 -16634274.08044  21208701.7914   21208701.6504
 96  3 16  1  2 30.0000000  0  6G 9G20G 4G 7G24G 5
 -12029097.37644  -9373316.17044  21811349.8754   21811350.2284
  -5126034.89744  -3994309.74844  23333733.4814   23333733.7364
 -14106576.43944 -10992123.27444  21417815.4334   21417814.6894
  -6726742.28644  -5241592.61344  23647712.6934   23647714.0124
 -20702949.16344 -16132155.94944  20381715.8254   20381716.2034
 -21409616.03444 -16682805.05744  21196850.2784   21196849.7944
 96  3 16  1  3  0.0000000  0  6G 9G20G 4G 7G24G 5
 -11966754.66144  -9324737.44844  21823213.2794   21823212.9984
  -5221292.35644  -4068536.31844  23315606.8694   23315607.7904
 -14041258.60844 -10941226.26844  21430245.0174   21430244.5064
  -6657712.04444  -5187802.84844  23660849.4494   23660848.6994
 -20711075.53444 -16138488.17644  20380169.5884   20380169.7124
 -21471590.17944 -16731096.59144  21185056.7554   21185056.6524
 96  3 16  1  3 30.0000000  0  7G 9G20G 4G 6G 7G24G 5
 -11904016.04344  -9275850.22544  21835152.1414   21835152.3464
  -5316481.34444  -4142709.51044  23297491.8994   23297492.8504
 -13975583.61344 -10890050.95544  21442742.9304   21442741.9834
        -1.14554                  25075915.7574
  -6588672.77444  -5134006.01844  23673987.3434   23673986.6244
 -20718682.68844 -16144415.82144  20378721.9554   20378722.2264
 -21533311.74744 -16779191.31044  21173311.5354   21173311.2994
 96  3 16  1  4  0.0000000  0  7G 9G20G 4G 6G 7G24G 5
 -11840878.26044  -9226651.96844  21847167.2564   21847167.4114
  -5411584.71844  -4216815.98644  23279393.8804   23279394.3904
 -13909534.07744 -10838583.78344  21455311.7874   21455310.9504
    -72177.55944                  25062181.2044
  -6519624.68344  -5080202.27644  23687125.9794   23687126.5514
 -20725752.22744 -16149924.54044  20377376.4034   20377376.7674
 -21594771.44844 -16827081.98344  21161616.2624   21161615.6784
 96  3 16  1  4 30.0000000  0  7G 9G20G 4G 6G 7G24G 5
 -11777336.42444  -9177138.86644  21859258.6804   21859258.6324
  -5506586.80344  -4290843.53444  23261316.5174   23261314.9244
 -13843086.51244 -10786806.46344  21467956.0004   21467955.4184
   -144271.44644   -112418.96944  25048462.0004
  -6450547.46544  -5026375.90644  23700271.0654   23700271.3814
 -20732272.62944 -16155005.36644  20376135.9424   20376136.2324
 -21655947.11444 -16874751.32444  21149974.8674   21149974.4054
 96  3 16  1  5  0.0000000  0  7G 9G20G 4G 6G 7G24G 5
 -11713417.17044  -9127331.67544  21871422.5504   21871422.9334
  -5601499.17244  -4364801.23644  23243254.9604   23243256.2154
 -13776250.73444 -10734726.64544  21480674.9944   21480673.9334
   -216317.36444   -168558.63444  25034753.7174
  -6381458.07644  -4972540.04444  23713418.6164   23713420.5834
 -20738258.98044 -16159670.04544  20374996.6614   20374996.9964
 -21716850.25744 -16922208.30544  21138385.6174   21138385.1824
 96  3 16  1  5 30.0000000  0  7G 9G20G 4G 6G 7G24G 5
 -11649085.31044  -9077202.97144  21883664.1604   21883664.5724
  -5696287.47744  -4438662.20844  23225217.1924   23225216.2374
 -13709006.31644 -10682328.39744  21493470.6654   21493469.6964
   -288299.24844   -224648.29144  25021054.3724
  -6312330.03444  -4918674.04244  23726573.6324   23726575.2004
 -20743686.84944 -16163899.54444  20373963.6484   20373963.9604
 -21777459.78844 -16969436.49944  21126851.8204   21126851.4554
 96  3 16  1  6  0.0000000  0  7G 9G20G 4G 6G 7G24G 5
 -11584330.49844  -9026744.69744  21895986.8424   21895986.5614
  -5790950.84644  -4512425.83544  23207203.0254   23207203.5944
 -13641360.50644 -10629617.38044  21506343.3394   21506342.7004
   -360225.31544   -280694.50244  25007366.0944   25007368.2034
  -6243156.54744  -4864772.61644  23739736.3004   23739737.3994
 -20748556.83344 -16167694.32844  20373036.9264   20373037.3364
 -21837761.63544 -17016424.94444  21115376.8794   21115376.3714
 96  3 16  1  6 30.0000000  0  7G 9G20G 4G 6G 7G24G 5
 -11519168.55744  -8975969.17544  21908386.9214   21908386.5714
  -5885502.64544  -4586102.53144  23189210.3664   23189210.5684
 -13573342.34744 -10576616.21844  21519286.7684   21519286.1354
   -432116.85644   -336713.76944  24993686.3564
  -6173950.20944  -4810845.61344  23752906.2564   23752907.8744
 -20752901.62044 -16171079.86844  20372210.2424   20372210.2084
 -21897767.26944 -17063182.57244  21103957.9854   21103957.6504
 96  3 16  1  7  0.0000000  0  7G 9G20G 4G 6G 7G24G 5
 -11453601.38744  -8924877.89144  21920863.2754   21920862.9784
  -5979938.88344  -4659689.20044  23171240.1714   23171240.6724
 -13504968.67844 -10523338.03944  21532297.9744   21532297.1564
   -503964.65644   -392699.02244  24980012.8534
  -6104696.98344  -4756882.05644  23766084.7354   23766085.3264
 -20756730.09544 -16174063.08544  20371481.5194   20371481.9354
 -21957473.04044 -17109706.53944  21092596.2724   21092595.9524
 96  3 16  1  7 30.0000000  0  7G 9G20G 4G 6G 7G24G 5
 -11387625.31744  -8873467.98444  21933418.1834   21933418.2904
  -6074245.70944  -4733174.99644  23153293.7454   23153295.4104
 -13436238.41244 -10469781.98944  21545377.0974   21545376.0964
   -575748.41744                  24966349.2474
  -6035391.04044  -4702877.36244  23779274.3354   23779271.2554
 -20760043.58044 -16176645.01344  20370850.9694   20370851.2674
 -22016871.45944 -17155991.00844  21081293.0034   21081292.6814
 96  3 16  1  8  0.0000000  0  8G 9G20G 4G 6G 7G16G24G 5
 -11321290.82244  -8821778.78244  21946041.1504   21946041.4914
  -6168460.27344  -4806588.88944  23135365.8514   23135368.4214
 -13367190.20844 -10415978.19944  21558516.3514   21558515.8184
   -647506.83244   -504549.87444  24952695.9594   24952695.0464
  -5966079.25144  -4648867.07844  23792463.3204   23792462.8384
        -0.57954                  24334443.0674
 -20762875.36044 -16178851.58744  20370312.2794   20370312.3884
 -22075988.84244 -17202056.49244  21070043.5794   21070043.0744
 96  3 16  1  8 30.0000000  0  8G 9G20G 4G 6G 7G16G24G 5
 -11254599.38844  -8769811.45044  21958732.3834   21958731.9934
  -6262572.61944  -4879923.13844  23117456.7734   23117455.8914
 -13297810.69444 -10361916.24844  21571718.5854   21571717.8744
   -719232.13944                  24939047.9414
  -5896757.10144  -4594853.18344  23805653.6824   23805652.8374
    -94027.57044    -73266.77444  24316550.0874   24316551.8154
 -20765215.61044 -16180675.14644  20369866.7164   20369867.1874
 -22134826.72544 -17247904.18444  21058847.1944   21058846.6214
 96  3 16  1  9  0.0000000  0  8G 9G20G 4G 6G 7G16G24G 5
 -11187552.90844  -8717567.45344  21971491.3054   21971491.0754
  -6356585.07844  -4953179.59744  23099566.6184   23099566.6334
 -13228098.81744 -10307595.30444  21584984.2694   21584983.5444
   -790922.26744                  24925407.5384
  -5827443.80844                  23818843.9304
   -188125.08744                  24298644.1924
 -20767069.50944 -16182119.73644  20369513.9374   20369514.3764
 -22193400.14444 -17293545.79644  21047700.9004   21047700.3984
 96  3 16  1  9 30.0000000  0  8G 9G20G 4G 6G 7G16G24G 5
 -11120122.48344  -8665024.28344  21984323.0614   21984322.8904
  -6450474.56344  -5026340.18344  23081700.1354   23081701.2884
 -13158020.18244 -10252988.58144  21598319.8214   21598319.5334
   -862565.17044                  24911774.1684
  -5758134.96644                  23832031.2614
   -282258.84544                  24280731.3234
 -20768399.51544 -16183156.09844  20369260.9864   20369261.2284
 -22251692.81544 -17338968.64944  21036608.2024   21036607.7994
 96  3 16  1 10  0.0000000  0  8G 9G20G 4G 6G 7G16G24G 5
 -11052320.93444  -8612191.92244  21997224.9384   21997224.6454
  -6544258.83544  -5099418.79644  23063853.7504   23063854.3024
 -13087579.66744 -10198099.87244  21611724.5144   21611724.0004
   -934168.80144                  24898147.7834
  -5688833.89444  -4432836.01044  23845220.7744   23845218.6374
   -376420.90744   -293313.58344  24262813.1004
 -20769213.41644 -16183790.30044  20369106.0374   20369106.3094
 -22309692.46144 -17384163.17244  21025571.2494   21025570.9214
 96  3 16  1 10 30.0000000  0  8G 9G20G 4G 6G 7G16G24G 5
 -10984166.92344  -8559084.91644  22010194.2384   22010194.0614
  -6637953.35244  -5172427.47744  23046023.7634   23046023.4824
 -13016776.94044 -10142928.91844  21625197.6584   21625197.3734
  -1005730.24044                  24884530.6574
  -5619531.78444  -4378834.36744  23858408.7014   23858409.4784
   -470601.00544   -366700.66144  24244889.9144   24244890.6994
 -20769523.03144 -16184031.55244  20369047.1434   20369047.3694
 -22367399.36944 -17429129.58244  21014590.1054   21014589.7244
 96  3 16  1 11  0.0000000  0  8G 9G20G 4G 6G 7G16G24G 5
 -10915653.27544  -8505697.67944  22023231.5974   22023231.8094
  -6731533.05844  -5245346.68044  23028216.6364   23028217.1024
 -12945594.60944 -10087462.16944  21638743.3944   21638742.8494
  -1077236.78944                  24870920.1984
  -5550200.25244  -4324809.72644  23871601.5624
   -564790.61544   -440095.08844  24226966.7654   24226969.7054
 -20769307.89444 -16183863.90744  20369088.2194   20369088.3514
 -22424781.33244 -17473842.78944  21003670.4294   21003669.9744
 96  3 16  1 11 30.0000000  0  8G 9G20G 4G 6G 7G16G24G 5
 -10846782.95244  -8452032.51344  22036337.3424   22036337.6574
  -6825000.66644  -5318178.56844  23010429.7864   23010430.8704
 -12874039.15644 -10031704.67544  21652359.7874   21652358.8884
  -1148689.95744                  24857322.0174
  -5480816.09844                  23884805.0834
   -658994.62344   -513500.74344  24209040.2634   24209042.2334
 -20768562.21144 -16183282.85244  20369230.0864   20369230.3404
 -22481814.54844 -17518284.24844  20992817.2654   20992816.8264
 96  3 16  1 12  0.0000000  0  8G 9G20G 4G 6G 7G16G24G 5
 -10777566.82744  -8398097.88744  22049508.9094   22049508.7244
  -6918353.25444  -5390920.79944  22992665.3074   22992666.1424
 -12802115.25844  -9975660.08344  21666046.6284   21666045.6944
  -1220085.54344                  24843738.7704
  -5411371.83944  -4216628.62744  23898019.7064   23898019.3304
   -753207.65244   -586913.42044  24191111.1124   24191113.4194
 -20767305.08544 -16182303.26744  20369469.2814   20369469.5744
 -22538487.54244 -17562445.01344  20982032.8054   20982032.3664
 96  3 16  1 12 30.0000000  0  8G 9G20G 4G 6G 7G16G24G 5
 -10708004.00144  -8343893.10144  22062746.1684   22062746.2364
  -7011583.74944  -5463567.90144  22974923.5184   22974923.8024
 -12729841.05944  -9919342.53044  21679799.5674   21679798.9634
  -1291431.75444                  24830161.8024
  -5341870.80144  -4162474.28144  23911244.9054   23911244.5284
   -847432.77544   -660335.53044  24173180.9794   24173184.0844
 -20765541.24744 -16180928.84344  20369804.9054   20369805.0284
 -22594834.87344 -17606352.02344  20971310.4144   20971309.6064
 96  3 16  1 13  0.0000000  0  8G 9G20G 4G 6G 7G16G24G 5
 -10638065.08644  -8289395.26044  22076054.7244   22076054.9814
  -7104668.49344  -5536101.44244  22957211.5904   22957210.4474
 -12657228.72344  -9862761.49044  21693617.4644   21693617.0664
  -1362725.89844                  24816595.8194
  -5272311.75444  -4108273.41644  23924481.8834
   -941655.49844   -733755.79144  24155250.9884   24155252.7674
 -20763258.07544 -16179149.74144  20370239.2444   20370239.5964
 -22650846.07644 -17649997.10644  20960651.8824   20960651.5484
 96  3 16  1 13 30.0000000  0  8G 9G20G 4G 6G 7G16G24G 5
 -10567746.73744  -8234601.76044  22089436.4504   22089436.3944
  -7197633.42844  -5608541.64344  22939519.8914   22939520.6124
 -12584297.90944  -9805932.28744  21707496.0914   21707495.4234
  -1433969.18444  -1117377.21244  24803039.7724
  -5202720.50644  -4054046.41244  23937725.0554   23937725.4734
  -1035883.24444   -807179.97644  24137319.8204   24137319.3874
 -20760473.63044 -16176980.03644  20370769.1564   20370769.3414
 -22706529.93044 -17693387.10944  20950055.4054   20950055.0284
 96  3 16  1 14  0.0000000  0  8G 9G20G 4G 6G 7G16G24G 5
 -10497079.76544  -8179536.60044  22102883.8754   22102883.6494
  -7290493.63944  -5680900.20144  22921849.6624   22921851.1904
 -12511077.90144  -9748877.74444  21721429.0174   21721428.1804
  -1505193.05144  -1172876.22544  24789485.9044   24789490.2284
  -5133129.39544  -3999819.56344  23950967.4954   23950968.4614
  -1130142.32844   -880628.57744  24119383.6874   24119384.1344
 -20757210.57744 -16174437.39144  20371389.9844   20371390.0454
 -22761921.83244 -17736549.62644  20939514.8104   20939514.4844
 96  3 16  1 14 30.0000000  0  8G 9G20G 4G 6G 7G16G24G 5
 -10426042.75844  -8124183.10344  22116401.7434   22116402.0414
  -7383229.80944  -5753162.10944  22904202.6294   22904203.0684
 -12437550.43044  -9691583.61444  21735420.7024   21735420.3034
  -1576380.22444  -1228346.71044  24775938.9024   24775941.8554
  -5063526.80144  -3945583.78144  23964212.7124   23964213.4394
  -1224408.27944   -954082.53144  24101444.7934   24101448.2434
 -20753426.93944 -16171489.09344  20372110.1044   20372110.2874
 -22816994.38644 -17779463.29844  20929034.6504   20929034.4654
 96  3 16  1 15  0.0000000  0  8G 9G20G 4G 6G 7G16G24G 5
 -10354630.25244  -8068537.01244  22129990.9584   22129990.7744
  -7475832.19044  -5825319.79244  22886580.5034   22886581.0194
 -12363689.12944  -9634029.35944  21749476.3664   21749475.4744
  -1647510.43744  -1283772.78944  24762402.9334   24762406.5634
  -4993896.87644  -3891326.68644  23977464.0674   23977464.3724
  -1318675.51344  -1027537.48744  24083506.8514   24083510.3634
 -20749106.83644 -16168122.77144  20372932.2394   20372932.3074
 -22871702.37044 -17822092.88944  20918624.1114   20918623.5964
 96  3 16  1 15 30.0000000  0  7G 9G20G 4G 7G16G24G 5
 -10282863.59244  -8012614.95944  22143647.5444   22143647.9154
  -7568292.07644  -5897366.41844  22868985.4394   22868986.3934
 -12289465.67244  -9576192.90444  21763600.6144   21763599.7804
  -4924230.17244  -3837040.93744  23990719.3864   23990717.2294
  -1412936.47344  -1100987.56244  24065569.4794   24065571.1334
 -20744244.63744 -16164334.03844  20373857.3094   20373857.3854
 -22926054.87544 -17864445.48344  20908281.2654   20908280.8024
 96  3 16  1 16  0.0000000  0  7G 9G20G 4G 7G16G24G 5
 -10210790.65344  -7956454.24844  22157362.4944   22157362.8134
  -7660619.38144  -5969309.75044  22851416.4274   22851416.8264
 -12214900.09644  -9518089.85544  21777790.2044   21777789.3374
  -4854540.97444  -3782737.69944  24003980.5754   24003977.3664
  -1507211.64044  -1174448.67744  24047628.6874   24047630.9914
 -20738870.34444 -16160146.26644  20374880.1034   20374880.2654
 -22980085.55744 -17906547.30744  20897999.5474   20897998.9404
 96  3 16  1 16 30.0000000  0  7G 9G20G 4G 7G16G24G 5
 -10138418.91744  -7900060.70844  22171134.2244   22171134.0954
  -7752807.10244  -6041144.29644  22833873.3394   22833875.1824
 -12139996.23144  -9459723.21044  21792043.4614   21792042.6034
  -4784827.75844  -3728415.69444  24017247.8074   24017249.8624
  -1601497.29244  -1247917.98244  24029687.1444   24029688.2414
 -20733000.58944 -16155572.42744  20375996.9974   20375997.1054
 -23033789.72744 -17948394.71444  20887780.0654   20887779.8934
 96  3 16  1 17  0.0000000  0  8G 9G20G 4G 6G 7G16G24G 5
 -10065717.03944  -7843409.91444  22184969.4404   22184969.4424
  -7844811.89444  -6112836.31244  22816366.2064   22816366.5804
 -12064734.37944  -9401077.61744  21806365.6404   21806364.6084
        -1.02554                  24708362.9824
  -4715056.89244  -3674048.76644  24030524.3414   24030524.6124
  -1695763.28744  -1321371.97144  24011748.8314   24011753.0534
 -20726622.38144 -16150602.38844  20377210.7944   20377210.9764
 -23087146.47844 -17989971.39644  20877626.6764   20877626.3134
 96  3 16  1 17 30.0000000  0  8G 9G20G 4G 6G 7G16G24G 5
  -9992671.75544  -7786491.53144  22198869.9134   22198869.4304
  -7936614.79244  -6184371.00344  22798896.6144   22798897.1624
 -11989125.24144  -9342161.40544  21820753.2944   21820752.4914
    -70821.03944    -55184.87544  24694886.4204   24694887.9044
  -4645225.53144  -3619634.72744  24043813.4954   24043813.2814
  -1789994.48044  -1394798.83144  23993817.1594   23993819.0654
 -20719730.16144 -16145231.81744  20378522.3324   20378522.2234
 -23140155.98044 -18031277.50044  20867538.9854   20867538.4204
 96  3 16  1 18  0.0000000  0  8G 9G20G 4G 6G 7G16G24G 5
  -9919315.14444  -7729330.54744  22212829.5724   22212829.2384
  -8028255.13544  -6255779.03544  22781458.2484   22781458.7164
 -11913242.20444  -9283031.77644  21835193.2314   21835192.3734
   -141602.29144   -110339.02244  24681416.2534
  -4575387.90544  -3565215.82944  24057102.7464   24057102.6304
  -1884232.19044  -1468230.77944  23975884.3864   23975887.4564
 -20712373.61044 -16139499.43544  20379922.1694   20379922.2384
 -23192837.64144 -18072328.13744  20857514.1514   20857513.5594
 96  3 16  1 18 30.0000000  0  8G 9G20G 4G 6G 7G16G24G 5
  -9845639.05044  -7671920.61644  22226849.0324   22226848.5634
  -8119741.25044  -6327066.90044  22764048.4094   22764048.4994
 -11837098.77044  -9223699.22144  21849683.4294   21849681.8964
   -212344.54744   -165462.81644  24667955.1084   24667954.7224
  -4505554.91344  -3510800.54544  24070390.2094   24070394.6554
  -1978473.29144  -1541665.39144  23957950.4564   23957951.2094
 -20704548.34944 -16133401.82044  20381411.2694   20381411.4154
 -23245184.50044 -18113117.89344  20847552.6494   20847552.2624
 96  3 16  1 19  0.0000000  0  8G 9G20G 4G 6G 7G16G24G 5
  -9771636.55044  -7614256.34744  22240930.9164   22240930.5884
  -8211087.68244  -6398245.90044  22746666.4994   22746666.2894
 -11760686.80344  -9164157.42844  21864223.9954   21864223.0614
   -283058.98044   -220564.91144  24654498.2784
  -4435727.39144  -3456389.52644  24083678.7474   24083679.7904
  -2072709.65744  -1615096.25744  23940019.0794   23940019.3434
 -20696242.09344 -16126929.40644  20382992.0384   20382992.1574
 -23297192.79744 -18153643.83544  20837655.9534   20837655.8294
 96  3 16  1 19 30.0000000  0  8G 9G20G 4G 6G 7G16G24G 5
  -9697306.82144  -7556337.09344  22255075.5854   22255076.1534
  -8302295.56344  -6469316.94644  22729309.8684   22729309.6074
 -11683987.40344  -9104391.66744  21878819.1844   21878818.6014
   -353743.80244   -275643.91244  24641048.6204   24641048.7224
  -4365897.05544  -3401976.31844  24096966.9744   24096968.7124
  -2166934.33044  -1688518.08844  23922088.2334   23922088.4224
 -20687439.07744 -16120069.90644  20384667.0094   20384667.1214
 -23348856.70544 -18193901.42044  20827824.8194   20827824.3794
 96  3 16  1 20  0.0000000  0  8G 9G20G 4G 6G 7G16G24G 5
  -9622644.17644  -7498158.43044  22269283.4514   22269284.0244
  -8393352.28544  -6540270.21644  22711982.2864   22711982.8814
 -11606976.58044  -9044383.23744  21893473.8054   21893473.0394
   -424387.06344   -330690.54744  24627606.2754   24627606.9674
  -4296046.65744  -3347547.41944  24110259.2074   24110256.2234
  -2261130.00144  -1761917.28044  23904163.0844   23904164.2814
 -20678126.71844 -16112813.51444  20386439.2234   20386439.4444
 -23400166.26044 -18233882.88744  20818060.9194   20818060.2294
 96  3 16  1 20 30.0000000  0  8G 9G20G 4G 6G 7G16G24G 5
  -9547667.63844  -7439735.17844  22283550.8424   22283551.6394
  -8484285.47744  -6611127.22244  22694678.5724   22694678.6354
 -11529657.03244  -8984134.24344  21908187.3094   21908186.1334
   -495018.12944   -385727.70744  24614164.7524   24614168.4074
  -4226179.61144  -3293105.53244  24123555.3104   24123558.0294
  -2355318.86244  -1835311.18544  23886239.3784   23886242.2634
 -20668311.71844 -16105165.45544  20388306.9474   20388306.9214
 -23451156.40544 -18273615.45944  20808357.4824   20808356.9164
 96  3 16  1 21  0.0000000  0  8G 9G20G 4G 6G 7G16G24G 5
  -9472368.65644  -7381060.66544  22297879.4964   22297879.8054
  -8575057.99744  -6681859.01644  22677404.9674   22677404.9054
 -11452013.75744  -8923632.98544  21922962.4344   21922961.7404
   -565621.54644                  24600728.2944
  -4156275.71644  -3238634.97044  24136857.1124   24136856.7764
  -2449494.14644  -1908694.43544  23868318.1284   23868320.8024
 -20657973.41544 -16097109.62744  20390274.1664   20390274.2014
 -23501817.61844 -18313091.71944  20798717.1054   20798716.4914
 96  3 16  1 21 30.0000000  0  8G 9G20G 4G 6G 7G16G24G 5
  -9396750.47044  -7322137.42044  22312269.3274   22312269.3784
  -8665643.50244  -6752445.11444  22660166.4414   22660167.2824
 -11374057.94944  -8862888.19944  21937796.8474   21937796.2504
   -636194.06544   -495734.68944  24587299.5774
  -4086328.97444  -3184130.98344  24150168.1384   24150169.1834
  -2543652.74044  -1982064.71344  23850400.4674   23850402.4234
 -20647121.39744 -16088653.49944  20392339.2924   20392339.4854
 -23552143.05444 -18352306.33944  20789140.6224   20789139.7394
 96  3 16  1 22  0.0000000  0  8G 9G20G 4G 6G 7G16G24G 5
  -9320811.12244  -7262963.91844  22326720.7784   22326719.9254
  -8756033.91344  -6822879.18244  22642965.4664   22642965.9184
 -11295809.00644  -8801915.00644  21952687.3394   21952686.5354
   -706717.76744   -550688.23244  24573879.9344   24573881.8714
  -4016334.44944  -3129589.78744  24163486.4124   24163489.4524
  -2637787.91344  -2055416.70044  23832487.0104   23832488.7914
 -20635758.30944 -16079799.14044  20394501.5994   20394501.9204
 -23602110.96044 -18391242.36444  20779632.0054   20779631.4854
 96  3 16  1 22 30.0000000  0  8G 9G20G 4G 6G 7G16G24G 5
  -9244545.08844  -7203535.84644  22341233.8554   22341233.0594
  -8846224.60244  -6893157.58644  22625802.8034   22625802.8974
 -11217263.09344  -8740710.39744  21967634.2184   21967633.3714
   -777174.78544   -605589.75844  24560472.3504
  -3946283.71444  -3075004.80944  24176818.0054   24176818.9374
  -2731886.97144  -2128740.58444  23814580.0804   23814582.3924
 -20623881.09244 -16070544.15644  20396761.4764   20396761.7774
 -23651704.11044 -18429886.36744  20770194.5704   20770194.2224
 96  3 16  1 23  0.0000000  0  8G 9G20G 4G 6G 7G16G24G 5
  -9167976.72244  -7143872.18644  22355804.1474   22355803.1954
  -8936218.81444  -6963282.93344  22608677.7954   22608678.1974
 -11138440.11644  -8679289.90144  21982633.4244   21982632.2364
   -847564.11744   -660438.51844  24547077.4584   24547076.9264
  -3876203.40344  -3020396.84744  24190153.0484   24190153.1184
  -2825950.18544  -2202036.51944  23796681.4194   23796681.9204
 -20611522.47544 -16060914.05744  20399113.2894   20399113.5734
 -23700927.80144 -18468242.48044  20760827.4264   20760826.8724
 96  3 16  1 23 30.0000000  0  8G 9G20G 4G 6G 7G16G24G 5
  -9091110.84844  -7083976.72544  22370430.5234   22370430.9214
  -9026039.11244  -7033272.75044  22591586.1024   22591585.8904
 -11059338.74044  -8617652.47044  21997686.1364   21997684.8754
   -917876.65544   -715227.41744  24533697.4044   24533697.2774
  -3806091.36144  -2965764.12244  24203494.7164   24203494.8654
  -2919962.93144  -2275293.13544  23778790.7804   23778793.6744
 -20598692.64544 -16050916.78144  20401554.8004   20401555.0704
 -23749775.47344 -18506305.59144  20751532.4854   20751531.8714
 96  3 16  1 24  0.0000000  0  8G 9G20G 4G 6G 7G16G24G 5
  -9013955.15344  -7023855.42844  22385113.1044   22385113.9454
  -9115712.71744  -7103148.26944  22574522.0694   22574522.5704
 -10979954.61344  -8555794.70944  22012792.1674   22012791.5964
   -988125.55744   -769966.74444  24520330.5314   24520328.7664
  -3735958.69444  -2911115.30044  24216840.9404   24216839.8514
  -3013933.11144  -2348516.58744  23760908.8254   23760909.7004
 -20585386.56444 -16040548.39644  20404086.7834   20404087.1244
 -23798259.89644 -18544085.64344  20742305.8994   20742305.4564
 96  3 16  1 24 30.0000000  0  7G 9G20G 4G 6G16G24G 5
  -8936520.44944  -6963516.70944  22399848.2224   22399849.1154
  -9205247.87244  -7172915.91744  22557483.3894   22557483.6914
 -10900278.21144  -8493709.19344  22027953.7444   22027953.1264
  -1058324.93144   -824667.48644  24506971.1924   24506969.1474
  -3107844.75844  -2421694.38044  23743038.2214   23743041.1554
 -20571611.51544 -16029814.57844  20406708.1074   20406708.4474
 -23846396.11344 -18581594.36944  20733145.8184   20733145.3484
 96  3 16  1 25  0.0000000  0  8G 9G20G 4G 6G 7G16G24G 5
  -8858809.80944  -6902962.98744  22414635.9434   22414636.4744
  -9294642.25144  -7242573.84344  22540471.8264   22540472.4644
 -10820319.46944  -8431403.69144  22043169.4094   22043168.5784
  -1128494.08744   -879344.69644  24493618.3234   24493617.9954
         0.04454         0.57054  24243540.0104   24243539.7984
  -3201701.25544  -2494829.31244  23725178.1394   23725179.6034
 -20557362.77444 -16018711.66544  20409419.6064   20409419.6064
 -23894183.83144 -18618831.55144  20724052.2204   20724051.8844
 96  3 16  1 25 30.0000000  0  8G 9G20G 4G 6G 7G16G24G 5
  -8780837.33544  -6842205.23444  22429474.4634   22429474.1464
  -9383912.87044  -7312135.33044  22523483.7484   22523485.0894
 -10740105.77544  -8368899.51444  22058433.6434   22058433.0184
  -1198673.03544   -934029.52444  24480263.9154   24480262.1204
     70159.13844     54670.05044  24256890.2994
  -3295527.82044  -2567940.86744  23707323.1424   23707325.5034
 -20542648.84044 -16007246.25344  20412219.5614   20412219.6404
 -23941628.30044 -18655801.25844  20715023.7454   20715023.2254
 96  3 16  1 26  0.0000000  0  8G 9G20G 4G 6G 7G16G24G 5
  -8702573.74844  -6781220.63544  22444367.4784   22444367.0864
  -9473012.51844  -7381563.61044  22506529.1484   22506529.1024
 -10659616.72144  -8306180.77044  22073750.0364   22073749.8194
  -1268839.39044   -988704.45144  24466911.1504   24466913.5164
    140346.93044    109361.82044  24270245.9654
  -3389277.72544  -2640992.68844  23689483.4494   23689485.0594
 -20527440.03844 -15995395.23444  20415113.8244   20415113.9314
 -23988685.32944 -18692469.06144  20706069.1294   20706068.5414
 96  3 16  1 26 30.0000000  0  8G 9G20G 4G 6G 7G16G24G 5
  -8624033.07744  -6720020.13144  22459313.2074   22459313.0524
  -9561920.79244  -7450842.74644  22489610.9914   22489610.9034
 -10578872.24744  -8243263.00844  22089115.5724   22089115.0924
  -1338989.16044  -1043366.58044  24453562.4784   24453561.6474
    210559.61044    164073.07444  24283606.7044
  -3482946.90144  -2713981.62644  23671658.3384   23671659.8434
 -20511751.63244 -15983170.49644  20418099.0654   20418099.0864
 -24035349.16444 -18728830.48344  20697189.3334   20697188.7654
 96  3 16  1 27  0.0000000  0  8G 9G20G 4G 6G 7G16G24G 5
  -8545196.92244  -6658589.37844  22474315.5904   22474315.8174
  -9650600.22844  -7519943.57844  22472735.5134   22472735.0664
 -10497858.95544  -8180135.76644  22104531.8254   22104531.3344
  -1409097.00944  -1097995.98944  24440221.0484   24440220.0514
    280826.79644    218826.67144  24296978.9954
  -3576530.14044  -2786903.55644  23653849.7014   23653852.8154
 -20495557.25244 -15970551.49344  20421180.7884   20421181.1094
 -24081583.12744 -18764856.93544  20688391.1834   20688390.8144
 96  3 16  1 27 30.0000000  0  8G 9G20G 4G 6G 7G16G24G 5
  -8466079.38044  -6596939.36144  22489370.8064   22489371.0304
  -9739057.05744  -7588870.95844  22455902.8694   22455902.5314
 -10416588.77644  -8116808.34644  22119997.0954   22119996.4824
  -1479157.37444  -1152588.39344  24426888.6934   24426887.1094
    351132.22144    273610.07744  24310357.6704   24310357.5124
  -3670025.33344  -2859756.89144  23636058.3894   23636061.4384
 -20478879.08944 -15957555.51644  20424354.5994   20424354.7314
 -24127398.54044 -18800557.24944  20679672.9074   20679672.5164
 96  3 16  1 28  0.0000000  0  8G 9G20G 4G 6G 7G16G24G 5
  -8386685.29944  -6535073.87044  22504477.8294   22504478.6524
  -9827301.78344  -7657633.05744  22439110.6754   22439111.1454
 -10335048.32844  -8053270.33544  22135514.0384   22135513.1924
  -1549149.54944  -1207127.71944  24413569.6544   24413569.3794
    421470.16444    328418.90244  24323742.2044
  -3763425.33444  -2932536.04644  23618284.2574   23618285.9324
 -20461720.37244 -15944185.08444  20427619.6524   20427619.7504
 -24172811.28044 -18835943.79044  20671031.2174   20671030.6134
 96  3 16  1 28 30.0000000  0  8G 9G20G 4G 6G 7G16G24G 5
  -8307014.01744  -6472992.38544  22519638.5734   22519639.6084
  -9915322.30844  -7726220.46444  22422360.5224   22422361.1114
 -10253225.53344  -7989512.30944  22151083.9374   22151083.3474
  -1619069.76944  -1261610.99144  24400264.1294   24400267.1734
    491848.75644    383259.33644  24337135.3644
  -3856746.40244  -3005253.72044  23600526.0714   23600526.9714
 -20444072.49244 -15930433.48244  20430977.9234   20430977.7924
 -24217825.60244 -18871019.87544  20662464.9844   20662464.4184
 96  3 16  1 29  0.0000000  0  8G 9G20G 4G 6G 7G16G24G 5
  -8227090.76944  -6410714.55444  22534848.2624   22534848.4014
 -10003154.28844  -7794660.94744  22405646.0894   22405646.3914
 -10171148.94544  -7925556.52444  22166702.4884   22166701.5754
  -1688958.14744  -1316069.40644  24386963.9604   24386964.6194
    562231.34244                  24350528.5034
  -3950026.64644  -3077939.58144  23582775.7194   23582776.5354
 -20425968.05144 -15916326.11844  20434423.0844   20434422.9094
 -24262475.24844 -18905811.80444  20653968.4554   20653967.8134
 96  3 16  1 29 30.0000000  0  8G 9G20G 4G 6G 7G16G24G 5
  -8146893.71744  -6348223.36644  22550110.1664   22550109.5464
 -10090783.84244  -7862943.68744  22388970.6304   22388970.8654
 -10088802.01944  -7861390.09044  22182372.7884   22182372.3814
  -1758791.18144  -1370484.72944  24373676.6584   24373679.3524
    632624.00944                  24363922.8204
  -4043233.23544  -3150568.05944  23565039.7964   23565039.6794
 -20407394.33444 -15901853.08644  20437957.5544   20437957.6404
 -24306754.00444 -18940314.72244  20645542.5354   20645542.0254
 96  3 16  1 30  0.0000000  0  8G 9G20G 4G 6G 7G16G24G 5
  -8066420.96744  -6285517.34744  22565423.6534   22565423.0534
 -10178195.15844  -7931056.38844  22372337.1574   22372337.1704
 -10006180.71644  -7797009.85644  22198095.1524   22198095.2654
  -1828567.77244  -1424856.02844  24360397.8924   24360397.7494
    703052.35644                  24377325.1494
  -4136358.92544  -3223133.48944  23547317.7584   23547320.1634
 -20388340.53644 -15887005.96144  20441583.3764   20441583.6494
 -24350650.60844 -18974519.86344  20637189.2864   20637188.7594
 96  3 16  1 30 30.0000000  0  8G 9G20G 4G 6G 7G16G24G 5
  -7985687.93444  -6222608.50144  22580786.1434   22580786.3464
 -10265383.71244  -7998995.49944  22355745.7474   22355745.5434
  -9923315.34644  -7732439.44144  22213863.2124   22213863.1424
  -1898304.55244  -1479196.36344  24347126.9724   24347125.4714
    773510.70344                  24390733.8044
  -4229421.84144  -3295650.00144  23529608.6324   23529610.5994
 -20368825.19544 -15871799.19644  20445296.8734   20445297.0294
 -24394166.66644 -19008428.47244  20628908.3874   20628907.9614
 96  3 16  1 31  0.0000000  0  8G 9G20G 4G 6G 7G16G24G 5
  -7904718.39944  -6159515.37244  22596193.7884   22596193.8804
 -10352380.78644  -8066785.39944  22339191.0904   22339191.7944
  -9840242.62444  -7667707.44544  22229672.1474   22229671.5384
  -1968010.99844  -1533513.04444  24333863.0964   24333860.0654
    843979.76744                  24404142.9884
  -4322440.29644  -3368131.89744  23511907.5254   23511909.3374
 -20348871.62644 -15856250.94544  20449094.2674   20449094.4744
 -24437322.14044 -19042056.11044  20620696.5024   20620695.8614
 96  3 16  1 31 30.0000000  0  8G 9G20G 4G 6G 7G16G24G 5
  -7823499.64844  -6096228.06244  22611648.6834   22611649.2054
 -10439162.59744  -8134407.56944  22322676.8814   22322677.4154
  -9756938.65044  -7602795.25744  22245523.9384   22245523.0364
  -2037660.69744  -1587785.49344  24320609.0874   24320609.6554
    914497.15044                  24417561.8604
  -4415384.58744  -3440555.99044  23494220.7924   23494221.1114
 -20328452.44644 -15840339.88844  20452979.7674   20452979.7704
 -24480093.10444 -19075384.13144  20612557.3294   20612556.6254
 96  3 16  1 32  0.0000000  0  8G 9G20G 4G 6G 7G16G24G 5
  -7742023.30344  -6032740.03844  22627153.6874   22627155.1024
 -10525711.88044  -8201848.55244  22306207.0264   22306206.8004
  -9673387.00244  -7537690.07644  22261424.0424   22261422.8974
  -2107242.82644  -1642005.29544  24307368.1404   24307368.1994
    985090.77244                  24430996.2454
  -4508242.55544  -3512912.83844  23476550.7474   23476551.7804
 -20307546.85044 -15824049.79844  20456957.9024   20456957.8764
 -24522452.66944 -19108391.57844  20604496.5234   20604496.0404
 96  3 16  1 32 30.0000000  0  8G 9G20G 4G 6G 7G16G24G 5
  -7660321.50744  -5969076.33844  22642701.7704   22642701.2374
 -10612056.52544  -8269130.08344  22289776.2084   22289776.6144
  -9589615.15144  -7472413.30644  22277364.8214   22277364.5144
  -2176792.43944  -1696199.70344  24294132.6974   24294133.9724
   1055710.77444                  24444432.6574
  -4601044.09344  -3585225.69144  23458891.1924   23458892.8174
 -20286177.71544 -15807398.51244  20461024.3184   20461024.1734
 -24564419.59244 -19141093.07244  20596510.3484   20596509.9154
 96  3 16  1 33  0.0000000  0  8G 9G20G 4G 6G 7G16G24G 5
  -7578406.02144  -5905246.10844  22658290.2614   22658289.4574
 -10698198.57644  -8336253.73844  22273383.9504   22273384.3374
  -9505620.08644  -7406962.60944  22293348.4134   22293348.0254
  -2246332.80944  -1750386.93944  24280898.7464   24280898.4064
   1126338.83344                  24457874.5214
  -4693768.20844  -3657478.23244  23441246.1664   23441247.0194
 -20264355.13044 -15790393.88944  20465177.0314   20465177.0394
 -24605989.79344 -19173485.43144  20588599.8614   20588599.4494
 96  3 16  1 33 30.0000000  0  8G 9G20G 4G 6G 7G16G24G 5
  -7496241.22544  -5841221.60744  22673925.6124   22673925.0484
 -10784106.17044  -8403194.69744  22257036.5574   22257037.1814
  -9421359.90244  -7341305.32144  22309382.3164   22309381.5884
  -2315856.57744  -1804561.21044  24267668.5794   24267669.7194
   1197006.85044                  24471322.3144
  -4786358.80644  -3729626.73444  23423627.0644   23423629.6474
 -20242054.42544 -15773016.70444  20469420.7634   20469420.6584
 -24647127.23544 -19205540.57544  20580771.8834   20580771.1064
 96  3 16  1 34  0.0000000  0  8G 9G20G 4G 6G 7G16G24G 5
  -7413820.73944  -5776997.86944  22689609.2294   22689609.6304
 -10869772.47544  -8469947.63844  22240734.2584   22240734.0014
  -9336832.54144  -7275439.84944  22325467.5134   22325467.4714
  -2385354.46544  -1858715.38144  24254444.3664   24254446.3784
   1267713.01844                  24484775.2964
  -4878795.51744  -3801655.33044  23406036.9884   23406037.5454
 -20219275.61344 -15755266.96944  20473755.3194   20473755.2794
 -24687810.28644 -19237241.64444  20573029.9644   20573029.5514
 96  3 16  1 34 30.0000000  0  8G 9G20G 4G 6G 7G16G24G 5
  -7331134.57244  -5712567.11844  22705343.3084   22705344.1464
 -10955188.34844  -8536505.43844  22224480.2604   22224481.0234
  -9252045.12444  -7209371.72844  22341602.5454   22341601.7324
  -2454835.21744  -1912856.12044  24241221.9854   24241222.3744
   1338453.18844                  24498238.1974
  -4971068.84644  -3873556.58444  23388478.0484   23388479.8524
 -20196029.89644 -15737153.41644  20478178.7084   20478178.9494
 -24728035.37844 -19268585.86244  20565375.5094   20565374.9544
 96  3 16  1 35  0.0000000  0  8G 9G20G 4G 6G 7G16G24G 5
  -7248184.85844  -5647931.00544  22721127.4794   22721128.4584
 -11040375.80944  -8602885.25544  22208269.4764   22208269.9824
  -9167008.97044  -7143109.77744  22357784.1614   22357782.9454
  -2524302.73844  -1966986.57544  24228001.9514   24228003.4104
   1409234.30144                  24511707.7944
  -5063172.38044  -3945325.54144  23370951.4814   23370953.1604
 -20172331.60444 -15718687.20844  20482688.3604   20482688.4504
 -24767821.18144 -19299587.78744  20557804.4214   20557803.9394
 96  3 16  1 35 30.0000000  0  8G 9G20G 4G 6G 7G16G24G 5
  -7164984.87344  -5583099.87444  22736960.5334   22736961.2974
 -11125351.29944  -8669099.90244  22192098.9214   22192099.3254
  -9081742.97744  -7076668.73544  22374009.7114   22374008.5994
  -2593745.82444  -2021098.00144  24214787.5274   24214788.6894
   1480058.73544                  24525185.8564
  -5155123.83644  -4016975.97144  23353453.1414   23353454.1724
 -20148165.98544 -15699856.84944  20487287.1124   20487287.2194
 -24807189.59344 -19330264.46344  20550312.7334   20550312.3894
 96  3 16  1 36  0.0000000  0  8G 9G20G 4G 6G 7G16G24G 5
  -7081552.12444  -5518087.35844  22752838.5424   22752838.2474
 -11210108.48744  -8735144.44344  22175970.5924   22175970.5874
  -8996262.15044  -7010060.31044  22390276.4394   22390275.7654
  -2663142.09044  -2075172.90244  24201581.9864   24201584.2214
   1550910.81644                  24538667.3814
  -5246941.48644  -4088522.15044  23335980.6994   23335983.0124
 -20123532.70144 -15680662.07644  20491974.6554   20491974.6804
 -24846146.38644 -19360620.40244  20542899.6384   20542899.0214
 96  3 16  1 36 30.0000000  0  8G 9G20G 4G 6G 7G16G24G 5
  -6997894.13344  -5452899.33044  22768757.2404   22768757.3704
 -11294652.91944  -8801023.20144  22159882.3924   22159882.2924
  -8910575.13544  -6943291.20944  22406581.9944   22406581.0484
  -2732497.14044  -2129215.73644  24188384.9764   24188384.4184
   1621784.16844                  24552154.3644
  -5338637.77244  -4159973.75144  23318531.7334   23318532.5224
 -20098439.22544 -15661108.70944  20496749.6534   20496749.9044
 -24884718.00944 -19390676.20544  20535559.6414   20535559.1044
 96  3 16  1 37  0.0000000  0  8G 9G20G 4G 6G 7G16G24G 5
  -6914029.23844  -5387550.07644  22784716.0664   22784716.3334
 -11378986.46244  -8866737.62244  22143834.5494   22143835.0514
  -8824689.88244  -6876367.63444  22422925.5184   22422925.0974
  -2801792.64144  -2183212.15944  24175198.1094   24175199.5144
   1692683.07344                  24565646.9564
  -5430215.92244  -4231333.28944  23301104.9554   23301106.5804
 -20072885.52944 -15641196.73444  20501612.2384   20501612.2254
 -24922905.30144 -19420432.52744  20528292.9574   20528292.3884
 96  3 16  1 37 30.0000000  0  8G 9G20G 4G 6G 7G16G24G 5
  -6829964.61844  -5322045.20644  22800713.1914   22800713.5314
 -11463071.67044  -8932258.53744  22127833.3704   22127833.7984
  -8738617.56344  -6809298.30044  22439303.9784   22439303.5634
  -2871009.51744  -2237147.34144  24162026.0854   24162025.6474
   1763607.26944                  24579142.9174
  -5521685.25744  -4302608.02844  23283698.6124   23283699.3304
 -20046875.44744 -15620929.13544  20506561.8574   20506561.9794
 -24960697.15044 -19449880.71144  20521101.3504   20521100.8294
 96  3 16  1 38  0.0000000  0  8G 9G20G 4G 6G 7G16G24G 5
  -6745683.53744  -5256371.65644  22816751.6394   22816751.9244
 -11546887.96044  -8997569.91144  22111883.7104   22111883.8664
  -8652349.05044  -6742076.06644  22455720.3684   22455719.7544
  -2940144.55644  -2291018.74744  24148870.4504   24148870.9554
   1834555.99244                  24592643.9534
  -5613046.95644  -4373798.89944  23266313.1104   23266315.6914
 -20020432.38744 -15600324.15144  20511593.9254   20511593.9414
 -24998075.78944 -19479006.91944  20513988.5924   20513987.8834
 96  3 16  1 38 30.0000000  0  8G 9G20G 4G 6G 7G16G24G 5
  -6661181.89944  -5190526.24344  22832831.2184   22832830.8564
 -11630429.89644  -9062667.50144  22095986.2464   22095986.1784
  -8565878.81644  -6674696.66544  22472174.9464   22472174.6154
  -3009208.81344  -2344834.98844  24135727.7614   24135728.4644
   1905542.54944                  24606152.2714
  -5704293.34844  -4444899.93744  23248949.4254   23248950.8044
 -19993560.54744 -15579385.05444  20516707.4034   20516707.4914
 -25035033.26944 -19507804.94744  20506955.6524   20506955.1914
 96  3 16  1 39  0.0000000  0  8G 9G20G 4G 6G 7G16G24G 5
  -6576466.49044  -5124514.26044  22848951.8804   22848951.5224
 -11713687.53044  -9127543.57244  22080143.3954   22080142.7154
  -8479198.54844  -6607153.59244  22488669.8644   22488669.2644
  -3078201.87444  -2398595.78744  24122599.3504   24122600.7984
   1976565.83644                  24619666.3594
  -5795423.57044  -4515910.44444  23231607.6254   23231609.2994
 -19966252.66244 -15558106.18044  20521903.8734   20521903.9734
 -25071551.64044 -19536260.81244  20500006.2504   20500005.7854
 96  3 16  1 39 30.0000000  0  8G 9G20G 4G 6G 7G16G24G 5
  -6491537.92944  -5058336.17244  22865113.4194   22865112.6564
 -11796668.61544  -9192204.13644  22064351.7654   22064352.2364
  -8392287.37144  -6539430.59244  22505208.6364   22505208.1364
  -3147142.21744  -2452315.47044  24109480.0214   24109483.0844
   2047616.85444                  24633188.1524
  -5886437.04844  -4586830.00244  23214288.2094   23214290.2524
 -19938507.26644 -15536486.38444  20527183.7764   20527183.9544
 -25107635.91544 -19564378.42144  20493139.5894   20493139.1504
 96  3 16  1 40  0.0000000  0  7G 9G20G 4G 6G16G24G 5
  -6406411.80444  -4992004.14744  22881312.0674   22881312.3304
 -11879417.18244  -9256683.51544  22048604.8234   22048605.1324
  -8305146.13244  -6471528.33144  22521791.2534   22521790.2314
  -3216059.62844  -2506017.29544  24096364.9494   24096367.6354
  -5977337.07144  -4657661.13544  23196990.8524   23196992.0384
 -19910334.64144 -15514533.68544  20532544.8884   20532544.9694
 -25143296.80444 -19592166.11844  20486353.8904   20486353.3064
 96  3 16  1 40 30.0000000  0  7G 9G20G 4G 6G16G24G 5
  -6321117.64844  -4925541.19244  22897543.6474   22897544.0384
 -11961956.04344  -9320999.49644  22032898.5194   22032898.8324
  -8217797.19644  -6403464.21244  22538413.4004   22538412.2804
  -3284982.83244  -2559723.63744  24083248.8814   24083249.1714
  -6068119.80944  -4728400.88844  23179716.1024   23179716.8854
 -19881747.99244 -15492258.36144  20537984.6704   20537984.6644
 -25178550.04344 -19619636.16944  20479645.0994   20479644.6214
 96  3 16  1 41  0.0000000  0  7G 9G20G 4G 6G16G24G 5
  -6235616.35244  -4858916.83044  22913814.2234   22913814.8374
 -12044251.09544  -9385125.50544  22017238.5224   22017238.8694
  -8130210.25344  -6335214.65144  22555080.1444   22555079.1384
  -3353883.21244  -2613412.23644  24070137.7854   24070139.3704
  -6158733.65144  -4799009.05444  23162472.3394   23162474.1664
 -19852711.03844 -15469632.15744  20543510.1514   20543510.2714
 -25213355.34344 -19646757.17744  20473021.9084   20473021.3274
 96  3 16  1 41 30.0000000  0  8G 9G20G 4G 6G 7G16G24G 5
  -6149925.42944  -4792144.70644  22930119.9074   22930120.7914
 -12126327.47244  -9449081.11444  22001619.7414   22001619.6284
  -8042445.45344  -6266826.49244  22571781.3324   22571779.8464
  -3422790.69444  -2667106.35744  24057026.3014   24057024.6814
         0.13554                  24687321.5634
  -6249190.05144  -4869494.54044  23145258.9584   23145260.1524
 -19823252.53944 -15446677.47244  20549115.8304   20549115.9014
 -25247738.36644 -19673549.13644  20466479.0584   20466478.5044
 96  3 16  1 42  0.0000000  0  8G 9G20G 4G 6G 7G16G24G 5
  -6064045.17944  -4725225.06544  22946462.4784   22946463.3984
 -12208176.25844  -9512859.37244  21986043.9124   21986044.3944
  -7954532.83444  -6198323.15344  22588510.0234   22588509.6644
  -3491695.92644  -2720798.74544  24043913.8704   24043914.1864
     71219.95344                  24700874.8454
  -6339477.77844  -4939848.59144  23128078.1764   23128078.7264
 -19793374.56444 -15423395.92244  20554801.5054   20554801.5524
 -25281697.14444 -19700010.52144  20460016.8954   20460016.3494
 96  3 16  1 42 30.0000000  0  8G 9G20G 4G 6G 7G16G24G 5
  -5977962.49544  -4658147.67444  22962844.0244   22962843.7234
 -12289765.91844  -9576435.71344  21970518.5174   21970518.0734
  -7866458.47444  -6129693.79244  22605270.4824   22605270.0734
  -3560579.57644  -2774474.25944  24030805.6044   24030806.5764
    142488.66544                  24714436.3334
  -6429577.31844  -5010056.01144  23110932.4104   23110933.8374
 -19763067.97744 -15399780.39144  20560568.5904   20560568.5074
 -25315209.48344 -19726124.02544  20453639.7974   20453639.3054
 96  3 16  1 43  0.0000000  0  8G 9G20G 4G 6G 7G16G24G 5
  -5891667.98644  -4590905.21944  22979264.8304   22979264.3894
 -12371078.17744  -9639795.90944  21955045.1484   21955044.9604
  -7778219.36744  -6060936.04444  22622062.1794   22622061.1784
  -3629418.38944  -2828114.77144  24017705.9974   24017709.0634
    213803.25144                  24728007.9184
  -6519479.74144  -5080109.82644  23093824.1404   23093825.5584
 -19732313.90744 -15375816.16744  20566420.7734   20566420.8114
 -25348256.02844 -19751874.57544  20447351.1624   20447350.5034
 96  3 16  1 43 30.0000000  0  7G 9G20G 4G 6G16G24G 5
  -5805194.05144  -4523522.95044  22995720.7474   22995720.3974
 -12452117.29944  -9702943.25944  21939624.2304   21939624.3104
  -7689826.01344  -5992058.10244  22638882.3624   22638881.8404
  -3698219.07644  -2881725.65444  24004614.4294   24004614.8464
  -6609220.24144  -5150037.46844  23076746.9544   23076747.5864
 -19701129.93344 -15351516.95744  20572355.1554   20572355.2774
 -25380849.37644 -19777271.98744  20441148.9014   20441148.4454
 96  3 16  1 44  0.0000000  0  7G 9G20G 4G 6G16G24G 5
  -5718542.25144  -4456002.08544  23012210.2884   23012210.7684
 -12532857.66644  -9765857.82244  21924260.1654   21924259.7854
  -7601219.49944  -5923014.08044  22655743.6914   22655743.1394
  -3766960.98844  -2935290.78144  23991533.7334   23991533.8254
  -6698790.37944  -5219832.36844  23059703.1934   23059703.8004
 -19669508.81344 -15326877.11144  20578372.3544   20578372.2954
 -25412967.86044 -19802299.37044  20435036.9704   20435036.4494
 96  3 16  1 44 30.0000000  0  7G 9G20G 4G 6G16G24G 5
  -5631713.27044  -4388343.15944  23028733.3174   23028733.5004
 -12613270.88744  -9828517.45444  21908957.5024   21908957.8674
  -7512386.92844  -5853793.89544  22672647.6044   22672647.4834
  -3835646.08944  -2988811.59544  23978462.2124   23978462.2514
  -6788179.59844  -5289486.26844  23042692.2834   23042693.8384
 -19637447.21044 -15301894.03344  20584473.3744   20584473.7104
 -25444599.60044 -19826947.47844  20429017.5454   20429016.9474
 96  3 16  1 45  0.0000000  0  8G 9G20G 4G 6G 7G16G24G 5
  -5544731.63044  -4320565.29144  23045284.9704   23045285.3834
 -12693369.32144  -9890931.80144  21893715.1804   21893715.1464
  -7423355.96744  -5784419.10944  22689590.0884   22689589.1854
  -3904294.07144  -3042303.45844  23965398.1234   23965399.9234
        -0.16254                  24782333.8064
  -6877410.09244  -5359016.49544  23025712.2004   23025713.5444
 -19604951.78844 -15276572.91644  20590656.8584   20590657.0334
 -25475775.20444 -19851240.15644  20423085.2794   20423084.6754
 96  3 16  1 45 30.0000000  0  8G 9G20G 4G 6G 7G16G24G 5
  -5457591.83944  -4252664.18244  23061866.5724   23061867.3424
 -12773153.03844  -9953100.90744  21878532.8494   21878532.4404
  -7334110.02644  -5714876.81144  22706572.8774   22706572.8394
  -3972897.39844  -3095760.50044  23952343.5794   23952345.3154
     71437.74744                  24795929.9514
  -6966479.57744  -5428421.25044  23008763.1144   23008765.0574
 -19572024.31144 -15250915.12844  20596922.8734   20596922.9314
 -25506501.78344 -19875182.94544  20417238.0554   20417237.4104
 96  3 16  1 46  0.0000000  0  8G 9G20G 4G 6G 7G16G24G 5
  -5370287.15344  -4184634.59444  23078480.2634   23078480.7294
 -12852639.56944 -10015038.44944  21863407.0304   21863406.7844
  -7244667.89544  -5645181.64644  22723593.9754   22723592.8954
  -4041457.45644  -3149183.85144  23939296.9784   23939298.5054
    142909.89944                  24809530.9204
  -7055364.70644  -5497682.35344  22991849.2624   22991849.9624
 -19538674.84944 -15224928.52444  20603268.9634   20603269.1674
 -25536783.81344 -19898779.33444  20411475.5894   20411475.1984
 96  3 16  1 46 30.0000000  0  8G 9G20G 4G 6G 7G16G24G 5
  -5282821.39344  -4116479.49044  23095125.2734   23095125.0564
 -12931853.11144 -10076763.27044  21848333.2034   21848332.9854
  -7155068.90544  -5575364.23644  22740644.0564   22740642.5254
  -4109982.75344  -3202580.11844  23926257.1774   23926256.7704
    214402.94444                  24823135.5654
  -7144064.62944  -5566799.13244  22974969.3694   22974970.2934
 -19504910.66544 -15198618.76144  20609694.2904   20609694.0974
 -25566636.06744 -19922040.82844  20405795.0024   20405794.4754
 96  3 16  1 47  0.0000000  0  8G 9G20G 4G 6G 7G16G24G 5
  -5195193.36544  -4048197.92744  23111800.4184   23111800.3324
 -13010825.36844 -10138300.07844  21833304.8954   21833304.9834
  -7065305.02944  -5505418.37244  22757725.1114   22757724.6344
  -4178472.73744  -3255948.87444  23913224.0264   23913224.3974
    285930.60544                  24836746.8754
  -7232582.06844  -5635773.70744  22958125.4354   22958125.9104
 -19470740.03444 -15171992.28444  20616196.6844   20616196.9044
 -25596055.85744 -19944965.33844  20400196.4304   20400195.7384
 96  3 16  1 47 30.0000000  0  8G 9G20G 4G 6G 7G16G24G 5
  -5107375.37544  -3979768.35344  23128510.8904   23128510.0554
 -13089534.50044 -10199631.85444  21818327.5144   21818327.8754
  -6975358.22944  -5435329.95644  22774841.8554   22774840.1314
  -4246904.57444  -3309272.36744  23900200.8044   23900202.2354
    357532.33044                  24850371.9374
  -7320883.61744  -5704580.06344  22941322.2334   22941322.6934
 -19436157.37944 -15145044.75844  20622777.7224   20622778.0384
 -25625011.38244 -19967528.07744  20394686.3964   20394685.8344
 96  3 16  1 48  0.0000000  0  8G 9G20G 4G 6G 7G16G24G 5
  -5019397.74444  -3911214.38744  23145253.0034   23145252.4844
 -13167988.17244 -10260764.56544  21803398.1774   21803398.4974
  -6885258.57244  -5365122.43844  22791987.0994   22791986.0794
  -4315305.31844  -3362571.57144  23887185.0514   23887186.6554
    429178.39144                  24864005.2394
  -7408983.39344  -5773229.18444  22924557.0084   22924557.8484
 -19401191.77944 -15117798.82744  20629430.9844   20629431.4544
 -25653511.88844 -19989736.25944  20389262.7624   20389262.1614
 96  3 16  1 48 30.0000000  0  8G20G 9G 4G 6G 7G16G24G 5
 -13246180.69144 -10321693.77944  21788518.9604   21788518.9214
  -4931273.27444  -3842545.99244  23162022.6014   23162022.8594
  -6795002.54244  -5294793.06944  22809161.9974   22809160.9314
  -4383685.58244  -3415854.80644  23874173.2124   23874174.4394
    500870.49544                  24877647.5554
  -7496891.16044  -5841728.70344  22907828.5154   22907830.0094
 -19365838.87044 -15090251.10144  20636158.7154   20636159.0474
 -25681563.87944 -20011594.95044  20383924.7624   20383924.1324
 96  3 16  1 49  0.0000000  0  8G20G 9G 4G 6G 7G16G24G 5
 -13324086.32844 -10382399.45144  21773694.0294   21773693.6454
  -4842994.08844  -3773757.05144  23178821.7114   23178821.7584
  -6704589.35344  -5224341.23044  22826367.4814   22826366.4844
  -4452039.38244  -3469117.47744  23861165.9014   23861167.4474
    572612.34944                  24891300.5064
  -7584607.65144  -5910079.16544  22891137.0684   22891138.6674
 -19330084.04244 -15062390.19144  20642962.7444   20642962.4854
 -25709153.89944 -20033093.66144  20378674.5344   20378674.0714
 96  3 16  1 49 30.0000000  0  8G20G 9G 4G 6G 7G16G24G 5
 -13401690.47544 -10442870.19344  21758926.5174   21758926.8584
  -4754582.12344  -3704864.63944  23195646.3034   23195646.6474
  -6614042.17444  -5153784.98044  22843597.6374   22843596.8144
  -4520367.41944  -3522360.02344  23848163.5614   23848163.1244
    644375.38044                  24904956.7744
  -7672143.15344  -5978288.58344  22874479.1544   22874480.2184
 -19293938.53344 -15034224.85144  20649840.7534   20649840.7874
 -25736292.24444 -20054240.42144  20373510.3494   20373509.7994
 96  3 16  1 50  0.0000000  0  8G20G 9G 4G 6G 7G16G24G 5
 -13478974.46644 -10503091.46844  21744219.2924   21744219.8864
  -4666030.08244  -3635863.08344  23212496.9074   23212497.3464
  -6523340.35244  -5083108.24244  22860857.2844   22860856.5164
  -4588658.35144  -3575573.70044  23835168.2774   23835167.6594
    716175.53044                  24918619.1944
  -7759476.95744  -6046340.85644  22857860.4344   22857861.8164
 -19257380.91144 -15005738.39244  20656797.6674   20656797.9744
 -25762959.51344 -20075020.10544  20368435.5704   20368435.1434
 96  3 16  1 50 30.0000000  0  8G 9G20G 4G 6G 7G16G24G 5
  -4577332.82244  -3566748.35544  23229375.2594   23229375.1664
 -13555937.08044 -10563062.31444  21729573.6334   21729574.2644
  -6432492.83144  -5012317.95944  22878145.3534   22878143.9564
  -4656920.65744  -3628765.08244  23822178.1634   23822178.1244
    788018.58044                  24932290.4534
  -7846597.12644  -6114226.67544  22841281.4194   22841282.8624
 -19220401.78344 -14976923.48244  20663834.4624   20663834.6734
 -25789156.26644 -20095433.15444  20363450.7064   20363449.9334
 96  3 16  1 51  0.0000000  0  8G20G 9G 4G 6G 7G16G24G 5
 -13632576.77044 -10622781.53944  21714989.9724   21714989.8684
  -4488498.50844  -3497526.83744  23246279.2244   23246279.3374
  -6341505.67544  -4941418.87944  22895459.0074   22895458.5254
  -4725155.37544  -3681934.92644  23809193.0314   23809193.3744
    859894.99944                  24945968.1214
  -7933507.31644  -6181948.86844  22824743.3554   22824743.9984
 -19183019.40044 -14947794.34844  20670947.8734   20670948.0524
 -25814881.16444 -20115478.52244  20358555.4064   20358554.7794
 96  3 16  1 51 30.0000000  0  8G20G 9G 4G 6G 7G16G24G 5
 -13708914.58944 -10682265.53644  21700463.4034   21700463.3334
  -4399547.87244  -3428214.67944  23263206.3844   23263206.9834
  -6250377.22544  -4870409.69944  22912799.9794   22912799.9864
  -4793381.41244  -3735098.01744  23796210.7664   23796211.9244
    931799.39344                  24959651.0964
  -8020203.46644  -6249504.28744  22808245.7414   22808246.7134
 -19145270.40644 -14918379.54344  20678131.4894   20678131.4374
 -25840146.28344 -20135165.62044  20353747.5584   20353747.0034
 96  3 16  1 52  0.0000000  0  8G20G 9G 4G 6G 7G16G24G 5
 -13784944.89744 -10741509.90944  21685995.0674   21685995.2514
  -4310463.90544  -3358798.63144  23280159.0464   23280158.6994
  -6159106.40444  -4799289.58044  22930168.9214   22930167.4894
  -4861600.85144  -3788255.98344  23783229.3784   23783229.1844
   1003746.75344                  24973341.7604
  -8106670.38744  -6316881.07044  22791790.8754   22791792.5434
 -19107139.74844 -14888667.33144  20685387.3774   20685387.4034
 -25864944.20644 -20154488.67344  20349028.7904   20349028.1844
 96  3 16  1 52 30.0000000  0  8G20G 9G 4G 6G 7G16G24G 5
 -13860651.24644 -10800501.85444  21671588.7414   21671588.6554
  -4221229.58944  -3289265.41244  23297139.5744   23297139.5834
  -6067681.56544  -4728049.43744  22947566.2164   22947564.9504
  -4929788.41244  -3841389.10044  23770253.5144   23770254.4144
   1075738.76744                  24987041.8504
  -8192892.93044  -6384067.43744  22775383.6744   22775384.8094
 -19068612.87344 -14858646.37944  20692718.8434   20692719.1694
 -25889266.19444 -20173440.86344  20344400.2104   20344399.7934
 96  3 16  1 53  0.0000000  0  7G 9G20G 4G 6G16G24G 5
  -4131868.17144  -3219633.17844  23314144.0924   23314145.0844
 -13936046.98644 -10859251.76244  21657241.0754   21657240.9054
  -5976107.05344  -4656692.67844  22964992.5484   22964991.5774
  -4997940.62744  -3894494.68844  23757284.1124   23757283.8164
  -8278891.67644  -6451079.41844  22759018.6784   22759019.8194
 -19029710.16644 -14828332.57544  20700122.0094   20700121.8794
 -25913126.55144 -20192033.34444  20339860.0974   20339859.2534
 96  3 16  1 53 30.0000000  0  7G20G 9G 4G 6G16G24G 5
 -14011127.15544 -10917755.78244  21642954.0764   21642954.1004
  -4042379.00144  -3149901.38744  23331173.8844   23331173.5484
  -5884390.53844  -4585225.26144  22982445.5884   22982444.9084
  -5066049.26044  -3947566.28444  23744323.2634   23744324.6154
  -8364650.60344  -6517904.53044  22742699.3884   22742700.2084
 -18990430.53344 -14797725.05744  20707596.5424   20707596.7614
 -25936517.44244 -20210260.00344  20335408.6604   20335408.0744
 96  3 16  1 54  0.0000000  0  7G20G 9G 4G 6G16G24G 5
 -14085895.99144 -10976017.20344  21628726.2014   21628725.9124
  -3952769.09144  -3080075.49844  23348226.4424   23348225.9464
  -5792548.79944  -4513660.26444  22999922.9754   22999921.2984
  -5134109.38844  -4000600.08844  23731371.7984   23731372.2794
  -8450178.39944  -6584549.53144  22726424.1204   22726424.9094
 -18950756.25844 -14766810.02944  20715146.3154   20715146.1964
 -25959442.62444 -20228123.77744  20331046.1894   20331045.6384
 96  3 16  1 54 30.0000000  0  7G20G 9G 4G 6G16G24G 5
 -14160354.71744 -11034036.96144  21614556.9864   21614557.4034
  -3863052.51744  -3010166.50044  23365298.8114   23365298.5384
  -5700579.42844  -4441995.82644  23017423.6864   23017423.1314
  -5202111.54044  -4053588.74744  23718431.9454   23718431.0444
  -8535483.45144  -6651020.96644  22710191.1484   22710192.6294
 -18910698.92244 -14735596.51044  20722768.7624   20722768.7534
 -25981894.65244 -20245618.86044  20326773.9494   20326773.4804
 96  3 16  1 55  0.0000000  0  7G20G 9G 4G 6G16G24G 5
 -14234490.49244 -11091805.08344  21600449.3654   21600449.3394
  -3773232.63744  -2940177.02344  23382389.8224   23382391.9944
  -5608476.23644  -4370227.11544  23034950.5924   23034949.4744
  -5270051.11744  -4106528.63944  23705503.6934   23705504.2254
  -8620562.57644  -6717316.35544  22694001.0844   22694001.3864
 -18870260.52844 -14704086.06844  20730464.1744   20730464.1104
 -26003857.17144 -20262732.50144  20322594.2994   20322593.6684
 96  3 16  1 55 30.0000000  0  7G20G 9G 4G 6G16G24G 5
 -14308298.32544 -11149317.66944  21586403.9194   21586403.8024
  -3683307.59944  -2870105.59944  23399502.0534   23399504.0764
  -5516244.84444  -4298358.49244  23052501.2494   23052499.8064
  -5337944.61044  -4159432.61344  23692583.3864   23692583.5544
  -8705416.69544  -6783436.40344  22677854.0554   22677854.4844
 -18829444.36944 -14672281.26244  20738231.1304   20738231.2814
 -26025330.40644 -20279464.89044  20318508.0614   20318507.4494
 96  3 16  1 56  0.0000000  0  7G20G 9G 4G 6G16G24G 5
 -14381763.02644 -11206562.87644  21572423.9974   21572424.1164
  -3593271.64944  -2799947.76444  23416636.1424   23416637.7884
  -5423877.97844  -4226384.31044  23070078.3294   23070077.6934
  -5405791.96944  -4212300.64244  23679671.8294   23679672.1174
  -8790043.52244  -6849379.34844  22661749.9844   22661751.1264
 -18788231.62344 -14640167.43144  20746073.5704   20746073.6344
 -26046311.50144 -20295813.78744  20314515.6754   20314515.0024
 96  3 16  1 56 30.0000000  0  7G20G 9G 4G 6G16G24G 5
 -14454878.42844 -11263535.90644  21558510.6964   21558510.4604
  -3503145.49144  -2729719.62044  23433786.2814   23433786.9584
  -5331389.30644  -4154315.21544  23087678.3814   23087677.0164
  -5473607.95744  -4265144.18144  23666767.1144   23666766.3134
  -8874440.60344  -6915143.27044  22645689.8314   22645690.6874
 -18746647.14844 -14607763.93444  20753986.8954   20753986.9184
 -26066809.09244 -20311785.93344  20310615.0564   20310614.5604
 96  3 16  1 57  0.0000000  0  7G20G 9G 4G 6G16G24G 5
 -14527653.44644 -11320243.69144  21544662.1654   21544661.8374
  -3412932.08244  -2659423.49044  23450953.7854   23450953.6414
  -5238792.60744  -4082161.93544  23105298.7374   23105296.8764
  -5541411.71144  -4317978.24044  23653864.8194   23653864.7004
  -8958594.25744  -6980717.51244  22629675.4644   22629676.9694
 -18704691.74244 -14575071.40444  20761970.5434   20761970.6024
 -26086840.35144 -20327394.70144  20306803.3444   20306802.7054
 96  3 16  1 57 30.0000000  0  7G20G 9G 4G 6G16G24G 5
 -14600091.58344 -11376688.97844  21530878.1394   21530877.8794
  -3322620.16944  -2589050.58844  23468139.7374   23468139.3094
  -5146096.51944  -4009931.21144  23122938.1714   23122937.5324
  -5609209.08144  -4370807.32344  23640963.5924   23640962.7824
  -9042488.19744  -7046089.36644  22613710.6594   22613711.5564
 -18662351.27544 -14542078.82344  20770027.7564   20770027.7154
 -26106395.48944 -20342632.46744  20303081.9384   20303081.5224
 96  3 16  1 58  0.0000000  0  7G20G 9G 4G 6G16G24G 5
 -14672173.63744 -11432856.80944  21517161.2934   21517161.1444
  -3232204.42844  -2518596.76844  23485345.3244   23485345.8334
  -5053286.01344  -3937611.33044  23140599.3404   23140598.0434
  -5676977.64644  -4423613.96344  23628067.4344   23628067.0644
  -9126096.82044  -7111238.90744  22597800.6754   22597802.0764
 -18619600.44844 -14508766.48444  20778162.9024   20778162.8664
 -26125449.17844 -20357479.49444  20299456.2474   20299455.5624
 96  3 16  1 58 30.0000000  0  7G 9G20G 4G 6G16G24G 5
  -3141691.10944  -2448066.94944  23502567.9874   23502569.3764
 -14743901.21644 -11488748.41744  21503511.3864   21503511.8454
  -4960358.06844  -3865199.93644  23158283.1414   23158282.0964
  -5744724.88944  -4476403.97144  23615174.9064   23615176.0534
  -9209432.76444  -7176175.96344  22581942.6674   22581943.2094
 -18576458.41844 -14475149.30944  20786372.5574   20786372.7764
 -26144006.62144 -20371939.83344  20295925.1054   20295924.4784
 96  3 16  1 59  0.0000000  0  7G20G 9G 4G 6G16G24G 5
 -14815279.13244 -11544367.55544  21489928.8304   21489928.7014
  -3051073.06644  -2377455.52044  23519813.4504   23519813.4634
  -4867308.16444  -3792693.52644  23175990.1504   23175989.6384
  -5812460.41644  -4529184.85644  23602285.6924   23602286.3334
  -9292510.36744  -7240911.72144  22566133.1574   22566133.8314
 -18532930.67144 -14441231.57944  20794655.5434   20794655.9494
 -26162066.42444 -20386012.40644  20292488.1794   20292487.5294
 96  3 16  1 59 30.0000000  0  7G20G 9G 4G 6G16G24G 5
 -14886279.51444 -11599692.52144  21476417.8594   21476417.7534
  -2960355.28944  -2306766.36844  23537075.8834   23537076.3184
  -4774120.46144  -3720079.72244  23193723.1644   23193722.4614
  -5880173.85544  -4581948.53144  23589400.2494   23589400.6314
  -9375329.70444  -7305446.22544  22550372.8944   22550373.4584
 -18489026.97044 -14407020.89644  20803010.4024   20803010.3864
 -26179607.28044 -20399680.59944  20289150.2964   20289149.7654
 96  3 16  2  0  0.0000000  0  7G20G 9G 4G 6G16G24G 5
 -14956895.36844 -11654717.84944  21462979.9154   21462979.9254
  -2869556.20744  -2236013.87344  23554354.7554   23554355.6174
  -4680797.71144  -3647360.68644  23211481.8614   23211480.6514
  -5947850.92544  -4634683.89944  23576522.3214   23576522.4164
  -9457895.23344  -7369782.96044  22534661.5274   22534662.4224
 -18444775.04044 -14372538.86444  20811431.0504   20811431.0514
 -26196632.16444 -20412946.74144  20285910.5254   20285909.9104
 96  3 16  2  0 30.0000000  0  7G20G 9G 4G 6G16G24G 5
 -15027126.27244 -11709443.21444  21449616.2374   21449616.3794
  -2778654.03644  -2165181.04344  23571652.6744   23571652.2904
  -4587342.14644  -3574538.17744  23229265.7104   23229265.3694
  -6015474.32344  -4687377.41644  23563652.9394   23563652.7384
  -9540187.74244  -7433906.95044  22519002.0284   22519003.1614
 -18400180.57744 -14337789.92544  20819917.2304   20819917.4444
 -26213138.09744 -20425808.50444  20282769.6174   20282769.0244
 96  3 16  2  1  0.0000000  0  7G20G 9G 4G 6G16G24G 5
 -15096997.99044 -11763888.69644  21436319.4984   21436319.8204
  -2687660.22944  -2094276.79344  23588967.6194   23588967.8074
  -4493772.90944  -3501627.09144  23247071.7354   23247071.2034
  -6083037.93244  -4740024.33044  23550796.4564   23550794.6344
  -9622191.07444  -7497805.60944  22503397.2364   22503398.2874
 -18355251.33144 -14302780.11644  20828466.7974   20828466.7834
 -26229128.44144 -20438268.50444  20279726.7404   20279726.0084
 96  3 16  2  1 30.0000000  0  7G20G 9G 4G 6G16G24G 5
 -15166528.44344 -11818068.26644  21423088.0274   21423088.3984
  -2596594.27344  -2023316.32644  23606297.0854   23606297.7074
  -4400105.92944  -3428639.82144  23264895.7494   23264894.0194
  -6150533.97444  -4792618.59644  23537952.2824   23537950.9824
  -9703908.07144  -7561481.16144  22487846.8084   22487847.4424
 -18309993.02244 -14267513.88844  20837079.1344   20837079.3414
 -26244618.14344 -20450338.39744  20276778.9894   20276778.5434
 96  3 16  2  2  0.0000000  0  7G20G 9G 4G 6G16G24G 5
 -15235719.43544 -11871983.30944  21409921.5034   21409921.4004
  -2505437.39044  -1952285.01944  23623643.7154   23623643.8764
  -4306329.68544  -3355567.41844  23282740.0984   23282738.7524
  -6217952.34144  -4845152.35844  23525122.4864   23525123.0834
  -9785320.29844  -7624919.21644  22472354.4304   22472355.3964
 -18264377.62844 -14231969.41744  20845759.5624   20845759.8664
 -26259604.51244 -20462016.08044  20273927.2614   20273926.4704
 96  3 16  2  2 30.0000000  0  7G20G 9G 4G 6G16G24G 5
 -15304590.23744 -11925648.84944  21396816.1894   21396816.0844
  -2414196.43644  -1881188.19144  23641006.7134   23641006.9024
  -4212451.66144  -3282415.71044  23300604.6374   23300605.0164
  -6285324.94544  -4897650.42844  23512302.0204   23512303.6144
  -9866443.16644  -7688131.81444  22456917.4614   22456917.8544
 -18218406.92344 -14196148.08144  20854507.6784   20854507.5864
 -26274112.18644 -20473320.76044  20271166.6154   20271166.0284
 96  3 16  2  3  0.0000000  0  7G 9G20G 4G 6G16G24G 5
  -2322911.61544  -1810057.20144  23658377.7474   23658378.1294
 -15373151.29344 -11979073.03444  21383769.1764   21383769.2754
  -4118479.12544  -3209190.36644  23318487.7344   23318487.3564
  -6352692.52544  -4950144.54944  23499482.1964   23499484.9634
  -9947311.66844  -7751146.19444  22441529.1344   22441529.8234
 -18172102.30444 -14160066.55144  20863319.0084   20863319.1124
 -26288147.20644 -20484257.13344  20268495.9504   20268495.2414
 96  3 16  2  3 30.0000000  0  7G 9G20G 4G 6G16G24G 5
  -2231574.59244  -1738885.52144  23675759.0404   23675759.3324
 -15441368.76244 -12032229.48544  21370787.6504   21370787.9194
  -4024404.66444  -3135885.58544  23336389.0204   23336389.1344
  -6420061.33644  -5002639.67744  23486662.8284   23486663.9564
 -10027917.82944  -7813956.15744  22426189.8604   22426190.5094
 -18125448.44844 -14123712.89044  20872196.9204   20872196.8194
 -26301692.35144 -20494811.79444  20265918.1174   20265917.3524
 96  3 16  2  4  0.0000000  0  7G 9G20G 4G 6G16G24G 5
  -2140166.67244  -1667658.57844  23693153.6544   23693153.2364
 -15509218.33444 -12085099.27644  21357876.5824   21357876.9164
  -3930229.86544  -3062502.61544  23354309.8574   23354309.0424
  -6487429.12944  -5055133.99444  23473843.5434   23473842.8724
 -10108226.23744  -7876534.11044  22410907.5564   22410908.4744
 -18078435.80144 -14087079.65344  20881143.1284   20881143.2534
 -26314723.31844 -20504965.79144  20263438.3864   20263437.8674
 96  3 16  2  4 30.0000000  0  7G20G 9G 4G 6G16G24G 5
 -15576691.11244 -12137675.44344  21345036.8034   21345036.9284
  -2048702.30644  -1596387.67744  23710557.6084   23710557.8504
  -3835980.03944  -2989061.20544  23372245.2114   23372245.2134
  -6554788.63944  -5107621.48144  23461024.6404   23461024.7804
 -10188231.40144  -7938875.77344  22395683.2384   22395684.4964
 -18031078.99944 -14050178.25144  20890154.8724   20890155.0264
 -26327242.72944 -20514721.17444  20261056.0554   20261055.4574
 96  3 16  2  5  0.0000000  0  7G 9G20G 4G 6G16G24G 5
  -1957197.58744  -1525085.32844  23727971.4974   23727973.5884
 -15643771.16644 -12189945.60144  21332272.2834   21332272.3324
  -3741673.46044  -2915575.58044  23390190.8404   23390189.2794
  -6622138.41544  -5160102.27644  23448208.7334   23448208.3184
 -10267915.65644  -8000967.37444  22380519.4324   22380519.8514
 -17983380.66844 -14013010.71244  20899231.5264   20899231.3964
 -26339248.33744 -20524076.18944  20258771.6084   20258771.0304
 96  3 16  2  5 30.0000000  0  7G20G 9G 4G 6G16G24G 5
 -15710462.86044 -12241913.14044  21319580.8294   21319580.5594
  -1865646.60744  -1453746.93144  23745391.5564   23745393.3624
  -3647327.94244  -2842059.58644  23408144.1934   23408142.7444
  -6689458.47144  -5212559.39244  23435397.4584   23435398.1204
 -10347265.68444  -8062798.53544  22365419.5524   22365420.8484
 -17935334.64344 -13975572.24544  20908374.3124   20908374.3754
 -26350754.14444 -20533041.75344  20256582.0924   20256581.4844
 96  3 16  2  6  0.0000000  0  7G20G 9G 4G 6G16G24G 5
 -15776756.62044 -12293570.60644  21306965.3344   21306965.2204
  -1774048.61044  -1382371.90344  23762822.2934   23762822.8894
  -3552928.24044  -2768501.36244  23426107.7654   23426107.3224
  -6756731.62544  -5264979.98244  23422595.9074   23422596.0804
 -10426284.57944  -8124371.66344  22350382.7304   22350383.0234
 -17886946.42244 -13937867.13444  20917582.4354   20917582.3714
 -26361765.34344 -20541621.90144  20254486.5684   20254485.9694
 96  3 16  2  6 30.0000000  0  7G20G 9G 4G 6G16G24G 5
 -15842631.24344 -12344901.45944  21294430.0444   21294429.8994
  -1682389.53344  -1310949.26544  23780265.7444   23780266.0924
  -3458428.64644  -2694865.31744  23444090.5784   23444091.4264
  -6823933.99244  -5317345.42044  23409808.2604   23409807.9594
 -10504970.53544  -8185685.36644  22335409.6214   22335409.9774
 -17838205.79844 -13899887.42044  20926857.1954   20926857.3084
 -26372267.79944 -20549805.63044  20252488.1014   20252487.2624
 96  3 16  2  7  0.0000000  0  7G20G 9G 4G 6G16G24G 5
 -15908109.69144 -12395923.61544  21281969.7254   21281969.5144
  -1590674.16644  -1239482.78744  23797717.8454   23797718.8884
  -3363831.98644  -2621153.65644  23462091.8044   23462092.1524
  -6891088.30544  -5369673.42544  23397029.1914   23397027.2004
 -10583358.17744  -8246766.61844  22320492.9454   22320493.5284
 -17789127.50844 -13861644.59044  20936196.7004   20936196.8414
 -26382268.39344 -20557598.29644  20250585.1354   20250584.5534
 96  3 16  2  7 30.0000000  0  7G20G 9G 4G 6G16G24G 5
 -15973192.16444 -12446637.22444  21269585.3724   21269584.9004
  -1498891.41544  -1167963.79144  23815183.6734   23815184.4584
  -3269121.03144  -2547352.89944  23480115.0134   23480112.7564
  -6958181.94444  -5421954.14144  23384261.7854   23384260.8824
 -10661462.63144  -8307627.19644  22305630.1364   22305630.5124
 -17739720.35244 -13823145.50344  20945598.5334   20945598.3664
 -26391760.02444 -20564994.36844  20248778.7634   20248778.0614
 96  3 16  2  8  0.0000000  0  7G20G 9G 4G 6G16G24G 5
 -16037882.44044 -12497045.22344  21257275.2434   21257274.9034
  -1407058.79344  -1096405.94744  23832658.8104   23832659.2594
  -3174312.21444  -2473475.91444  23498156.8064   23498154.9694
  -7025229.49144  -5474198.94844  23371502.6394   23371502.1914
 -10739289.90544  -8368271.78644  22290819.9004   22290820.0094
 -17690010.20844 -13784410.31944  20955057.9834   20955058.1774
 -26400749.17144 -20571998.89644  20247068.5144   20247067.9384
 96  3 16  2  8 30.0000000  0  7G20G 9G 4G 6G16G24G 5
 -16102179.16044 -12547146.55244  21245039.6184   21245039.8034
  -1315166.96744  -1024801.93644  23850146.2824   23850146.1604
  -3079419.69844  -2399533.66644  23516213.8544   23516212.2314
  -7092232.77144  -5526409.26444  23358752.4274   23358753.1864
 -10816827.01444  -8428690.27844  22276065.1964   22276065.7014
 -17639979.74344 -13745425.53844  20964578.4904   20964578.5444
 -26409215.63944 -20578596.14144  20245457.1104   20245456.3424
 96  3 16  2  9  0.0000000  0  7G20G 9G 4G 6G16G24G 5
 -16166086.37944 -12596944.36844  21232878.5194   21232878.5794
  -1223229.31244   -953162.22844  23867640.4434   23867640.1354
  -2984468.09944  -2325545.40044  23534282.1544   23534281.6354
  -7159205.60144  -5578595.85844  23346007.0674   23346007.9014
 -10894065.32744  -8488875.93844  22261366.8644   22261367.7964
 -17589618.13644 -13706182.72344  20974162.0304   20974161.7584
 -26417151.88844 -20584780.22844  20243946.9574   20243946.5434
 96  3 16  2  9 30.0000000  0  7G 9G20G 4G 6G16G24G 5
  -1131288.14944   -881519.79644  23885136.1744   23885135.7534
 -16229620.56944 -12646451.52544  21220788.6114   21220788.2154
  -2889477.98244  -2251527.14144  23552358.3694   23552357.4994
  -7226169.42344  -5630775.43244  23333264.2904   23333264.1584
 -10970990.48244  -8548817.58544  22246728.8004   22246729.8184
 -17538942.33644 -13666695.07844  20983805.4644   20983805.1124
 -26424578.92744 -20590567.52944  20242533.8564   20242533.0654
 96  3 16  2 10  0.0000000  0  7G 9G20G 4G 6G16G24G 5
  -1039356.36344   -809884.67544  23902631.1364   23902632.0334
 -16292771.79044 -12695660.25544  21208770.9554   21208770.9024
  -2794458.21444  -2177485.74844  23570440.3614   23570438.4424
  -7293135.22144  -5682956.53544  23320521.3924   23320522.5784
 -11047582.09944  -8608499.33444  22232153.8804   22232154.9254
 -17487942.03944 -13626954.58244  20993510.4764   20993510.3384
 -26431480.64144 -20595945.48644  20241220.5064   20241219.8854
 96  3 16  2 10 30.0000000  0  7G 9G20G 4G 6G16G24G 5
   -947443.66544   -738264.41544  23920121.1754   23920120.3024
 -16355537.22744 -12744568.37744  21196827.2244   21196827.0664
  -2699382.44644  -2103400.71744  23588532.8064   23588531.6534
  -7360106.60844  -5735141.99844  23307776.8734   23307778.5474
 -11123831.39944  -8667914.34144  22217643.8984   22217644.4914
 -17436612.68544 -13586957.67744  21003278.0824   21003277.7884
 -26437847.13444 -20600906.38844  20240008.7974   20240008.1924
 96  3 16  2 11  0.0000000  0  7G 9G20G 4G 6G16G24G 5
   -855556.48544   -666664.04644  23937606.9024   23937607.7854
 -16417896.51844 -12793160.02544  21184960.6064   21184960.6714
  -2604231.70044  -2029257.28544  23606638.1764   23606637.2984
  -7427057.03044  -5787311.11944  23295036.6374   23295037.8294
 -11199705.50944  -8727036.99244  22203205.7874   22203206.3754
 -17384954.22744 -13546704.32444  21013108.3724   21013108.0884
 -26443673.19944 -20605446.17844  20238899.9464   20238899.4464
 96  3 16  2 11 30.0000000  0  7G 9G20G 4G 6G16G24G 5
   -763665.35644   -595060.60144  23955092.2544   23955094.4024
 -16479813.10444 -12841406.70244  21173178.5334   21173178.0724
  -2508984.90644  -1955039.00844  23624764.5164   23624764.0334
  -7493948.85244  -5839434.56844  23282306.8494   23282307.4394
 -11275178.55244  -8785847.12544  22188843.2934   22188844.2174
 -17332962.79144 -13506191.51144  21023002.1584   21023002.1584
 -26448953.21044 -20609560.47244  20237895.5254   20237894.7634
 96  3 16  2 12  0.0000000  0  7G 9G20G 4G 6G16G24G 5
   -671737.32344   -523428.42144  23972585.8454   23972586.2874
 -16541277.98644 -12889301.40344  21161481.8374   21161481.7114
  -2413630.68444  -1880737.00044  23642910.0044   23642909.0354
  -7560765.10044  -5891499.12444  23269592.9624   23269593.4054
 -11350258.52444  -8844350.96144  22174556.3434   22174557.2894
 -17280631.63544 -13465413.98744  21032960.2074   21032959.9954
 -26453680.50044 -20613244.07544  20236996.0944   20236995.4454
 96  3 16  2 12 30.0000000  0  7G 9G20G 4G 6G16G24G 5
   -579772.10944   -451767.23644  23990087.1274   23990087.4604
 -16602323.82244 -12936869.57544  21149865.4844   21149865.4794
  -2318189.15944  -1806366.96444  23661070.4094   23661069.8314
  -7627515.39044  -5943512.27644  23256891.6394   23256891.1554
 -11424976.38544  -8902572.64044  22160337.6064   22160337.9074
 -17227984.97344 -13424390.60444  21042978.6504   21042978.2594
 -26457895.19444 -20616528.25344  20236193.9764   20236193.4274
 96  3 16  2 13  0.0000000  0  7G 9G20G 4G 6G16G24G 5
   -487748.85244   -380060.81844  24007599.0214   24007598.4164
 -16662940.80144 -12984103.57344  21138330.2124   21138330.1324
  -2222678.69944  -1731943.24344  23679246.8884   23679245.1164
  -7694189.88644  -5995466.37644  23244204.1274   23244204.1394
 -11499336.64644  -8960515.66944  22146187.1704   22146188.1154
 -17175015.37844 -13383115.59044  21053058.3494   21053058.3554
 -26461594.57044 -20619410.88444  20235489.7514   20235489.2114
 96  3 16  2 13 30.0000000  0  7G 9G20G 4G 6G16G24G 5
   -395669.53444   -308310.73144  24025120.2894   24025121.1684
 -16723153.44444 -13031022.50344  21126871.9684   21126872.2744
  -2127112.48544  -1657476.04944  23697432.9854   23697432.0854
  -7760815.47644  -6047382.37444  23231525.5224   23231524.8914
 -11573378.94044  -9018210.93244  22132098.1304   22132099.0064
 -17121748.31244 -13341608.78044  21063194.9544   21063194.9324
 -26464784.91744 -20621896.86544  20234882.6914   20234881.9054
 96  3 16  2 14  0.0000000  0  7G 9G20G 4G 6G16G24G 5
   -303549.07744   -236528.60444  24042650.5254   24042651.3654
 -16782975.85244 -13077637.34944  21115488.0684   21115488.2014
  -2031495.18944  -1582969.04944  23715627.4144   23715625.7854
  -7827401.63644  -6099267.66744  23218854.8854   23218855.0404
 -11647107.31744  -9075661.59244  22118067.4494   22118068.0544
 -17068189.14144 -13299874.36144  21073386.8854   21073386.7354
 -26467458.99044 -20623980.56144  20234373.9004   20234373.1774
 96  3 16  2 14 30.0000000  0  7G 9G20G 4G 6G16G24G 5
   -211434.91344   -164751.39344  24060179.6894   24060180.6084
 -16842414.08244 -13123952.84044  21104177.5024   21104177.5374
  -1935858.18244  -1508446.71444  23733826.1964   23733826.0934
  -7893973.91944  -6151142.12844  23206186.3094   23206185.6914
 -11720527.75344  -9132872.28544  22104096.3544   22104096.8814
 -17014369.70344 -13257937.12744  21083628.2664   21083627.9974
 -26469625.94044 -20625669.09244  20233961.5124   20233960.8514
 96  3 16  2 15  0.0000000  0  7G 9G20G 4G 6G16G24G 5
   -119344.22144    -92992.41544  24077703.0394   24077703.3774
 -16901450.34944 -13169955.11944  21092943.6444   21092943.2634
  -1840194.62444  -1433903.67844  23752031.5174   23752030.3884
  -7960543.05644  -6203014.12544  23193519.0214   23193518.5514
 -11793623.37344  -9189829.87144  22090186.7314   22090187.2204
 -16960289.66244 -13215796.82944  21093919.4174   21093919.2354
 -26471269.52944 -20626949.81244  20233648.7514   20233648.1394
 96  3 16  2 15 30.0000000  0  7G 9G20G 4G 6G16G24G 5
    -27279.09544    -21253.39244  24095223.2484   24095224.8314
 -16960073.80044 -13215635.72744  21081787.9334   21081788.1224
  -1744495.23144  -1359332.71144  23770241.8214   23770242.1694
  -8027108.30544  -6254883.08744  23180852.0724   23180850.6284
 -11866379.59044  -9246523.00144  22076341.7054   22076341.6814
 -16905942.69144 -13173448.53844  21104260.9784   21104260.8854
 -26472389.16244 -20627822.25344  20233435.8814   20233435.2784
 96  3 16  2 16  0.0000000  0  7G 9G20G 4G 6G16G24G 5
     64753.69144     50460.41744  24112737.1954   24112738.1134
 -17018270.43844 -13260983.73544  21070713.3814   21070713.3584
  -1648769.72844  -1284741.40344  23788457.1254   23788456.8054
  -8093685.40944  -6306761.30844  23168182.6424   23168182.4154
 -11938777.00744  -9302936.54244  22062564.3264   22062565.2324
 -16851307.87144 -13130875.94644  21114657.7504   21114657.7964
 -26472983.95244 -20628285.72844  20233322.4854   20233321.9614
 96  3 16  2 16 30.0000000  0  7G 9G20G 4G 6G16G24G 5
    156769.49544    122161.02344  24130247.0944   24130247.8234
 -17076013.08844 -13305977.99844  21059725.0404   21059724.7784
  -1553008.45144  -1210122.21544  23806680.6464   23806679.5944
  -8160266.62944  -6358642.75444  23155512.6784   23155512.2634
 -12010796.03744  -9359055.23544  22048859.3494   22048859.8874
 -16796363.28044 -13088061.97744  21125113.3944   21125113.5414
 -26473044.66744 -20628333.03944  20233311.0544   20233310.5404
 96  3 16  2 17  0.0000000  0  7G 9G20G 4G 6G16G24G 5
    248794.55144    193868.83944  24147757.7594   24147758.2074
 -17133282.72944 -13350603.68444  21048827.0944   21048827.1194
  -1457195.44844  -1135462.75044  23824912.7524   23824912.0374
  -8226827.58244  -6410508.39644  23142845.9484   23142845.4044
 -12082421.29444  -9414867.09644  22035230.0504   22035230.5914
 -16741086.36644 -13044989.05844  21135632.3174   21135632.4294
 -26472563.65244 -20627958.22144  20233402.4774   20233401.9184
 96  3 16  2 17 30.0000000  0  7G 9G20G 4G 6G16G24G 5
    340821.45744    265578.07244  24165270.8104   24165271.7334
 -17190086.83144 -13394866.60544  21038017.3834   21038017.5394
  -1361343.78144  -1060773.12644  23843153.0324   23843151.6074
  -8293361.36244  -6462352.88044  23130185.0674   23130184.6024
 -12153656.38144  -9470374.92444  22021674.1404   22021674.7284
 -16685482.81644 -13001661.60944  21146213.5014   21146213.4294
 -26471552.06544 -20627169.97144  20233594.9964   20233594.3564
 96  3 16  2 18  0.0000000  0  7G 9G20G 4G 6G16G24G 5
    432845.96144    337285.44544  24182781.1424   24182783.3774
 -17246421.54344 -13438763.77844  21027297.8024   21027297.3714
  -1265441.53544   -986044.09344  23861402.8744   23861401.4024
  -8359848.57244  -6514161.05944  23117532.7254   23117532.9334
 -12224485.26844  -9525566.22644  22008196.3194   22008197.2514
 -16629563.14144 -12958087.83644  21156854.4434   21156854.4194
 -26470003.63644 -20625963.40444  20233889.6204   20233888.8544
 96  3 16  2 18 30.0000000  0  7G 9G20G 4G 6G16G24G 5
    524867.14744    408990.21044  24200292.7894   24200294.2844
 -17302285.07044 -13482293.79244  21016667.4734   21016667.2064
  -1169476.50944   -911266.15844  23879664.1094   23879662.8304
  -8426253.30144  -6565904.96244  23104895.8954   23104895.8354
 -12294902.42244  -9580436.70644  21994796.0634   21994796.7024
 -16573342.80244 -12914279.77744  21167552.8234   21167552.5974
 -26467920.22844 -20624339.96944  20234286.1444   20234285.5434
 96  3 16  2 19  0.0000000  0  7G 9G20G 4G 6G16G24G 5
    616871.14744    480681.59344  24217800.8774   24217801.4594
 -17357699.63644 -13525473.96344  21006122.0974   21006121.9464
  -1073452.28544   -836442.09144  23897936.9354   23897935.9174
  -8492575.09244  -6617584.25144  23092275.8044   23092275.0954
 -12364928.50544  -9635002.45844  21981470.6224   21981471.4544
 -16516837.18244 -12870249.41644  21178305.5294   21178305.2234
 -26465296.46644 -20622295.48044  20234785.4054   20234784.8104
 96  3 16  2 19 30.0000000  0  7G 9G20G 4G 6G16G24G 5
    708838.65144    552344.58044  24235302.3164   24235300.2104
 -17412689.71544 -13568323.36744  20995657.7564   20995657.6684
   -977388.77544   -761587.40344  23916216.5304   23916216.1594
  -8558842.62044  -6669221.26844  23079665.5534   23079665.2054
 -12434578.81044  -9689275.39344  21968216.4934   21968217.4684
 -16460072.58944 -12826017.26544  21189107.5054   21189107.3424
 -26462146.66944 -20619841.09344  20235384.8974   20235384.2364
 96  3 16  2 20  0.0000000  0  7G 9G 4G 6G20G16G24G 5
    800758.35844    623970.30444  24252793.4584   24252794.6194
   -881290.35244   -686705.50744  23934503.8194   23934502.5944
  -8625060.83944  -6720819.86244  23067064.2184   23067063.8354
 -17467262.55544 -13610847.64844  20985272.9184   20985272.5704
 -12503855.48544  -9743257.18544  21955033.3834   21955034.2474
 -16403060.34944 -12781592.14144  21199956.5814   21199956.2274
 -26458460.95744 -20616969.11344  20236086.2634   20236085.6724
 96  3 16  2 20 30.0000000  0  7G 9G 4G 6G20G16G24G 5
    892636.58944    695563.69644  24270277.9274   24270279.3074
   -785160.54544   -611799.14344  23952796.5544   23952795.7374
  -8691238.00244  -6772386.46244  23054470.8084   23054471.2594
 -17521423.62344 -13653051.07044  20974966.4294   20974966.0444
 -12572770.62444  -9796957.26344  21941919.4444   21941920.8934
 -16345787.97944 -12736964.30944  21210855.1774   21210854.8084
 -26454216.16244 -20613661.47944  20236893.9154   20236893.2574
 96  3 16  2 21  0.0000000  0  7G 9G 4G 6G20G16G24G 5
    984477.71144    767128.13844  24287754.3984   24287755.6634
   -689004.96544   -536872.72144  23971094.9784   23971095.2084
  -8757396.48644  -6823938.49144  23041881.4084   23041881.4584
 -17575181.07044 -13694939.98344  20964736.6814   20964736.2784
 -12641324.35944  -9850375.72844  21928873.9434   21928874.5684
 -16288263.38544 -12692139.94644  21221801.5704   21221801.5124
 -26449410.27144 -20609916.63144  20237808.5264   20237807.9344
 96  3 16  2 21 30.0000000  0  7G 9G 4G 6G20G16G24G 5
   1076293.81044    838673.18744  24305225.9944   24305224.2564
   -592817.59944   -461921.52244  23989398.6764   23989398.4544
  -8823531.76444  -6875472.46044  23029296.5294   23029296.6884
 -17628506.91844 -13736492.58544  20954589.2404   20954589.5404
 -12709481.03344  -9903484.79544  21915904.2324   21915905.1484
 -16230475.14444 -12647110.14744  21232798.4754   21232798.4604
 -26444033.92944 -20605727.27344  20238831.5364   20238830.8784
 96  3 16  2 22  0.0000000  0  7G 9G 4G20G 6G16G24G 5
   1168072.42344    910188.95244  24322690.4574   24322692.4474
   -496595.55844   -386943.32744  24007708.4914   24007708.3644
 -17681405.23344 -13777712.04544  20944522.8014   20944522.6844
  -8889639.92344  -6926985.27444  23016716.3444   23016716.3154
 -12777248.11744  -9956290.28144  21903008.7674   21903009.7224
 -16172421.24044 -12601873.34244  21243845.5074   21243845.5384
 -26438094.67644 -20601099.28844  20239961.7904   20239961.2024
 96  3 16  2 22 30.0000000  0  7G 9G20G 4G 6G16G24G 5
   1259830.41844    981688.65744  24340152.0394   24340154.7804
 -17733847.52244 -13818576.16144  20934543.6354   20934543.2524
   -400334.07544   -311934.36844  24026027.5064   24026025.9444
  -8955713.82144  -6978471.39944  23004142.8954   23004142.6474
 -12844618.69644 -10008786.80544  21890188.4784   21890188.8644
 -16114086.53144 -12556417.71444  21254946.4334   21254946.1454
 -26431608.84544 -20596045.39144  20241195.8934   20241195.2504
 96  3 16  2 23  0.0000000  0  7G 9G 4G20G 6G16G24G 5
   1351546.11644   1053155.39744  24357604.6334   24357606.1234
   -304060.65044   -236916.08444  24044347.4404   24044345.1014
 -17785812.15044 -13859068.07644  20924654.8224   20924654.7694
  -9021752.30844  -7029929.93244  22991576.0744   22991576.2924
 -12911575.42144 -10060960.84844  21877446.8994   21877447.2844
 -16055483.66544 -12510753.13344  21266098.0904   21266098.1044
 -26424606.81744 -20590589.26344  20242528.3724   20242527.8714
 96  3 16  2 23 30.0000000  0  7G 9G 4G20G 6G16G24G 5
   1443197.38444   1124571.95244  24375046.1414   24375046.4104
   -207793.72544   -161902.92644  24062666.0814   24062662.8234
 -17837297.36344 -13899186.41244  20914857.5374   20914857.5854
  -9087746.67444  -7081354.07344  22979017.8894   22979018.2334
 -12978123.69344 -10112816.61344  21864782.8734   21864783.3434
 -15996609.42444 -12464877.10244  21277301.4204   21277301.1334
 -26417100.54144 -20584740.21344  20243956.8144   20243956.0534
 96  3 16  2 24  0.0000000  0  7G 9G 4G20G 6G16G24G 5
   1534781.61244   1195936.26544  24392473.7004   24392474.0224
   -111542.05844    -86901.60944  24080981.8084   24080980.1234
 -17888308.47844 -13938935.32444  20905150.5554   20905150.3124
  -9153688.86444  -7132737.56244  22966469.7344   22966469.6664
 -13044272.41044 -10164361.05044  21852195.0474   21852195.7184
 -15937471.85244 -12418795.87344  21288555.1864   21288554.9534
 -26409098.49644 -20578504.85144  20245479.3224   20245478.7584
 96  3 16  2 24 30.0000000  0  7G 9G 4G20G 6G16G24G 5
   1626303.80744   1267252.23144  24409890.0664   24409891.2394
    -15313.76144    -11918.51644  24099292.8344   24099295.0084
 -17938831.73344 -13978304.09044  20895535.9774   20895535.9534
  -9219576.82944  -7184078.84444  22953931.8184   22953931.0224
 -13110000.41444 -10215577.63944  21839688.0584   21839688.7154
 -15878071.11544 -12372509.57744  21299858.7604   21299858.7194
 -26400581.57744 -20571868.29244  20247100.1494   20247099.2974
 96  3 16  2 25  0.0000000  0  7G 9G 4G20G 6G16G24G 5
   1717766.25144   1338521.65044  24427293.5494   24427295.2364
     80895.42844     63049.68244  24117601.4514   24117599.9364
 -17988880.17944 -14017302.87244  20886012.5664   20886012.2564
  -9285412.60944  -7235379.42344  22941404.0294   22941403.2904
 -13175292.47244 -10266454.53444  21827262.8904   21827263.6774
 -15818405.50944 -12326016.89144  21311212.5894   21311212.7004
 -26391525.19444 -20564811.37244  20248823.6364   20248823.1224
 96  3 16  2 25 30.0000000  0  7G 9G 4G20G 6G16G24G 5
   1809175.15744   1409749.33044  24444688.7184   24444690.8244
    177112.56144    138024.10744  24135911.4794   24135910.4034
 -18038476.68844 -14055949.49844  20876574.5724   20876574.1774
  -9351220.35644  -7286658.14544  22928880.6814   22928880.1314
 -13240157.67944 -10316998.82444  21814919.6414   21814920.0924
 -15758469.61244 -12279313.58544  21322617.8594   21322617.8194
 -26381930.31644 -20557334.84844  20250649.4134   20250648.7824
 96  3 16  2 26  0.0000000  0  7G 9G 4G20G 6G16G24G 5
   1900534.07244   1480938.10644  24462072.9894   24462075.3564
    273356.00844    213019.00144  24154225.6664   24154224.6064
 -18087605.48544 -14094231.67344  20867225.4334   20867225.4674
  -9417004.13744  -7337918.20244  22916362.5884   22916362.3644
 -13304582.59444 -10367200.02544  21802660.0304   21802660.4104
 -15698263.60144 -12232399.81044  21334074.6204   21334074.6674
 -26371790.39544 -20549433.61144  20252578.9844   20252578.4614
 96  3 16  2 26 30.0000000  0  7G 9G20G 4G 6G16G24G 5
   1991830.84744   1552078.43344  24479447.4354   24479447.4154
 -18136262.79644 -14132146.44744  20857966.2944   20857966.3194
    369620.62944    288030.40544  24172543.8724   24172543.0454
  -9482765.20744  -7389160.58144  22903848.5784   22903848.1394
 -13368568.72844 -10417059.32844  21790483.6514   21790483.9744
 -15637786.01344 -12185274.41444  21345583.1054   21345583.1924
 -26361109.21944 -20541110.62044  20254611.4824   20254610.8864
 96  3 16  2 27  0.0000000  0  7G 9G20G 4G 6G16G24G 5
   2083081.83344   1623183.08244  24496811.6514   24496812.2134
 -18184424.70144 -14169675.19844  20848801.4374   20848801.1314
    465928.74444    363075.67744  24190871.3744   24190871.7364
  -9548480.90144  -7440367.58944  22891343.4624   22891342.8314
 -13432098.11744 -10466562.71844  21778394.8454   21778395.4434
 -15577023.62544 -12137927.09344  21357146.0894   21357145.9874
 -26349877.04244 -20532358.27644  20256748.8354   20256748.2404
 96  3 16  2 27 30.0000000  0  7G 9G20G 4G 6G16G24G 5
   2174265.16444   1694234.99744  24514163.2954   24514164.9784
 -18232089.60444 -14206816.67244  20839731.0924   20839730.9544
    562278.54544    438153.43344  24209206.2624   24209205.0434
  -9614150.25244  -7491538.48144  22878846.9084   22878846.0034
 -13495186.36644 -10515722.36744  21766389.4134   21766389.9654
 -15515997.24944 -12090374.07044  21368758.9024   21368758.7854
 -26338101.45044 -20523182.49344  20258989.7964   20258989.2004
 96  3 16  2 28  0.0000000  0  7G 9G20G 4G 6G16G24G 5
   2265372.32144   1765227.52344  24531499.9394   24531500.3424
 -18279244.79844 -14243560.97444  20830757.8854   20830757.5674
    658644.28244    513243.64544  24227544.6844   24227545.3544
  -9679758.00044  -7542661.38444  22866362.0594   22866360.4894
 -13557841.58544 -10564544.59144  21754466.3754   21754466.5234
 -15454721.31644 -12042626.59144  21380419.2494   21380419.3324
 -26325770.79244 -20513574.19144  20261336.2884   20261335.6274
 96  3 16  2 28 30.0000000  0  7G 9G20G 4G 6G16G24G 5
   2356400.85444   1836158.82844  24548823.0104   24548821.9304
 -18325912.57444 -14279925.46844  20821876.9374   20821877.2704
    755008.93444    588333.01644  24245881.9384   24245880.5284
  -9745331.89344  -7593757.90444  22853883.6204   22853882.8984
 -13620078.58944 -10613040.93244  21742622.8944   21742623.2514
 -15393210.82644 -11994696.33744  21392124.4374   21392124.3834
 -26312895.14244 -20503541.22244  20263786.6364   20263785.9644
 96  3 16  2 29  0.0000000  0  7G 9G20G 4G 6G16G24G 5
   2447340.27044   1907020.73944  24566128.4724   24566128.0884
 -18372108.96744 -14315922.65244  20813086.5454   20813086.0454
    851375.79444    663424.07344  24264218.4474   24264216.5194
  -9810907.41944  -7644855.68844  22841404.7614   22841404.5004
 -13681915.70644 -10661225.67144  21730855.6974   21730856.0934
 -15331484.91944 -11946598.22544  21403870.5694   21403870.4334
 -26299489.19744 -20493095.03744  20266337.5344   20266336.7784
 96  3 16  2 29 30.0000000  0  7G 9G20G 4G 6G16G24G 5
   2538203.92044   1977823.54944  24583418.2444   24583418.8914
 -18417823.16544 -14351544.09944  20804387.1474   20804386.8154
    947744.91144    738516.90244  24282557.0454   24282556.7924
  -9876476.87344  -7695948.73544  22828927.0934   22828927.3144
 -13743352.50044 -10709098.47544  21719164.7424   21719165.2834
 -15269535.89244 -11898326.25744  21415659.0204   21415658.9964
 -26285538.87044 -20482224.65344  20268992.0284   20268991.5214
 96  3 16  2 30  0.0000000  0  7G 9G20G 4G 6G16G24G 5
   2629010.40544   2048581.82144  24600698.6734   24600696.4274
 -18463033.20744 -14386772.69444  20795784.0414   20795783.7694
   1044115.73144    813611.05944  24300894.7864   24300894.8034
  -9942017.61644  -7747019.42444  22816455.1964   22816454.4394
 -13804370.04244 -10756644.59144  21707553.3944   21707553.5894
 -15207349.31244 -11849869.17744  21427492.6514   21427492.6444
 -26271026.25944 -20470916.13244  20271753.8914   20271753.2054
 96  3 16  2 30 30.0000000  0  7G 9G20G 4G 6G16G24G 5
   2719759.35844   2119295.28144  24617968.0294   24617968.5564
 -18507750.52844 -14421617.35244  20787274.4554   20787274.4244
   1140479.08144    888699.36344  24319233.4384   24319233.0454
 -10007519.85844  -7798060.11144  22803990.5104   22803989.9604
 -13864964.57044 -10803861.08344  21696022.8134   21696023.5884
 -15144936.95344 -11801236.17144  21439369.2324   21439369.4784
 -26255952.07944 -20459170.02444  20274622.4874   20274621.7644
 96  3 16  2 31  0.0000000  0  7G 9G20G 4G 6G16G24G 5
   2810429.70744   2189947.48544  24635222.2994   24635221.3384
 -18551967.08144 -14456071.80244  20778860.3024   20778860.3994
   1236814.72244    963766.11044  24337565.3984   24337565.0774
 -10072951.93144  -7849046.11944  22791539.2934   22791538.5044
 -13925136.13844 -10850748.00244  21684572.3014   21684572.8004
 -15082311.99644 -11752437.50344  21451286.3364   21451286.5324
 -26240308.74844 -20446980.41744  20277599.2634   20277598.6634
 96  3 16  2 31 30.0000000  0  7G 9G20G 4G 6G16G24G 5
   2901010.76344   2260530.09244  24652458.6394   24652459.2194
 -18595682.18944 -14490135.52244  20770541.8374   20770541.5504
   1333097.52744   1038791.71544  24355887.1204   24355886.0464
 -10138293.35244  -7899961.47744  22779105.2314   22779104.8614
 -13984866.67944 -10897291.25744  21673206.1704   21673206.6954
 -15019487.71644 -11703483.51444  21463241.3664   21463241.3594
 -26224085.54344 -20434338.96444  20280686.3504   20280685.7074
 96  3 16  2 32  0.0000000  0  7G 9G20G 4G 6G16G24G 5
   2991522.92944   2331058.99644  24669682.3704   24669682.6864
 -18638879.45244 -14523795.71944  20762321.5504   20762321.3864
   1429368.33244   1113807.93044  24374207.6804
 -10203521.80344  -7950788.80844  22766692.8354   22766692.6734
 -14044115.04044 -10943458.79444  21661931.8344   21661932.3374
 -14956430.17544 -11654347.77244  21475240.9694   21475241.1454
 -26207277.74544 -20421241.98344  20283884.7184   20283884.1044
 96  3 16  2 32 30.0000000  0  7G 9G20G 4G 6G16G24G 5
   3081932.17044   2401507.69644  24686886.3864   24686887.4164
 -18681590.27244 -14557076.87644  20754193.7224   20754193.4704
   1525617.61444   1188807.34544  24392524.6244   24392522.7424
 -10268685.03044  -8001565.32844  22754292.5224   22754292.9984
 -14102887.69744 -10989255.64444  21650747.5074   21650747.8604
 -14893166.31344 -11605051.25244  21487279.5134   21487279.8444
 -26189938.52144 -20407730.90244  20287184.2874   20287183.7554
 96  3 16  2 33  0.0000000  0  7G 9G20G 4G 6G16G24G 5
   3172202.34844   2471848.07344  24704065.4734   24704067.5034
 -18723832.32144 -14589992.74744  20746155.5504   20746155.2624
   1621842.97144   1263788.12244  24410835.2114   24410830.2904
 -10333832.80344  -8052329.80544  22741895.0244   22741895.0974
 -14161204.28344 -11034697.11744  21639650.2314   21639650.3254
 -14829707.93044 -11555603.15744  21499355.3834   21499355.4664
 -26172104.52844 -20393834.29044  20290578.0514   20290577.4234
 96  3 16  2 33 30.0000000  0  8G 9G20G 4G 6G17G16G24G 5
   3262405.09144   2542135.88144  24721229.3624   24721233.3914
 -18765556.54544 -14622505.12544  20738215.5904   20738215.1594
   1718117.88744   1338807.59644  24429155.0604   24429153.1634
 -10398932.15144  -8103056.53944  22729507.3824   22729507.0654
        -0.98154                  25511084.1744
 -14219005.18644 -11079736.75944  21628650.9984   21628651.4294
 -14765989.34344 -11505952.31244  21511480.6384   21511480.5924
 -26153733.67244 -20379519.33744  20294074.0664   20294073.2464
 96  3 16  2 34  0.0000000  0  8G 9G20G 4G 6G17G16G24G 5
   3352522.68144   2612357.33744  24738378.5994   24738379.4184
 -18806788.61144 -14654634.00244  20730369.4934   20730369.3744
   1814428.06344   1413854.46044  24447481.8944   24447482.2414
 -10464009.44344  -8153766.10044  22717123.5004   22717122.6774
    -98274.93644                  25492384.7514
 -14276323.00044 -11124399.97144  21617743.6004   21617743.8174
 -14702022.32544 -11456107.87744  21523653.1224   21523652.9254
 -26134860.92944 -20364813.30644  20297665.1884   20297664.4784
 96  3 16  2 34 30.0000000  0  8G 9G20G 4G 6G17G16G24G 5
   3442537.68244   2682498.88944  24755507.0124   24755506.1634
 -18847536.79844 -14686385.82744  20722615.5254   20722615.3274
   1910736.69344   1488900.13444  24465809.2484   24465809.3774
 -10529079.07444  -8204469.67944  22704741.7174   22704740.9064
   -196446.05544                  25473702.9904
 -14333175.73644 -11168700.78444  21606924.9814   21606925.4594
 -14637835.65244 -11406092.28244  21535867.3124   21535867.1944
 -26115465.97844 -20349700.36244  20301355.7084   20301355.2304
 96  3 16  2 35  0.0000000  0  7G 6G 9G20G 4G16G24G 5
 -10594137.78544  -8255164.75344  22692361.2034   22692360.6874
   3532452.84944   2752562.62144  24772618.6294   24772618.5584
 -18887808.38244 -14717766.28144  20714951.4904   20714951.4114
   2007013.59244   1563921.13444  24484130.5084   24484130.4044
 -14389593.21644 -11212662.43544  21596188.7464   21596189.2244
 -14573434.22144 -11355909.34844  21548122.5384   21548122.9334
 -26095530.50444 -20334166.23344  20305149.5884   20305149.0934
 96  3 16  2 35 30.0000000  0  7G 6G 9G20G 4G16G24G 5
 -10659173.11144  -8305841.60244  22679984.9734   22679984.9424
   3622266.85144   2822547.50744  24789708.0624   24789707.8384
 -18927604.54844 -14748776.27544  20707378.8334   20707378.7544
   2103235.72044   1638899.36644  24502440.8614   24502442.1374
 -14445572.23744 -11256282.42844  21585536.3984   21585536.6924
 -14508827.46344 -11305566.42144  21560416.5864   21560416.9484
 -26075056.38444 -20318212.37444  20309045.5894   20309045.0814
 96  3 16  2 36  0.0000000  0  8G 6G 9G20G 4G17G16G24G 5
 -10724164.84944  -8356484.50444  22667617.3194   22667617.6754
   3711975.36844   2892450.22944  24806780.3204   24806779.8934
 -18966888.81844 -14779387.38644  20699903.4244   20699903.2614
   2199409.55144   1713840.05144  24520742.1124   24520739.2574
         0.11754                  25417749.3224
 -14501094.66044 -11299546.63244  21574970.9344   21574971.3244
 -14444005.63244 -11255055.90044  21572751.8604   21572751.8254
 -26054021.22444 -20301821.34344  20313048.5734   20313047.9884
 96  3 16  2 36 30.0000000  0  8G 6G 9G20G 4G17G16G24G 5
 -10789120.04044  -8407098.91144  22655256.4424   22655256.5184
   3801552.20044   2962250.32144  24823826.0104   24823825.1984
 -19005654.24044 -14809594.20544  20692526.7594   20692526.3244
   2295526.02144   1788736.01644  24539032.4424   24539033.0364
    -97048.40944                  25399165.7234
 -14556165.16244 -11342458.68644  21564491.2544   21564491.2294
 -14378993.83144 -11204397.35244  21585123.5244   21585123.2404
 -26032427.70044 -20284995.22144  20317157.6144   20317157.0504
 96  3 16  2 37  0.0000000  0  7G 6G 9G20G 4G16G24G 5
 -10854032.75244  -8457680.22444  22642904.6154   22642903.7084
   3890982.56344   3031936.31644  24840844.5114   24840843.8544
 -19043895.36444 -14839392.47844  20685249.3954   20685249.2644
   2391594.16444   1863594.31644  24557312.7244   24557311.8784
 -14610777.54244 -11385013.76644  21554099.1974   21554099.5304
 -14313791.65044 -11153590.45244  21597531.0154   21597530.8514
 -26010297.32544 -20267750.77344  20321368.8824   20321368.3794
 96  3 16  2 37 30.0000000  0  8G 6G 9G20G 4G17G16G24G 5
 -10918885.13844  -8508214.52844  22630563.7804   22630563.3034
   3980266.02144   3101507.80144  24857833.9744   24857834.7134
 -19081590.11244 -14868765.00044  20678076.7394   20678076.3624
   2487638.08944   1938433.71144  24575589.6964   24575590.0504
        -0.65454                  25362017.8174
 -14664898.46544 -11427185.89544  21543799.9944   21543800.4444
 -14248395.56944 -11102632.46844  21609975.1664   21609974.8534
 -25987632.89744 -20250090.18144  20325681.9774   20325681.2874
 96  3 16  2 38 30.0000000  0  7G16G 4G20G25G17G24G 5
        -0.43754         0.27154  21523488.9264   21523489.2074
        -0.26754        -0.06154  24612135.1014   24612136.0854
        -0.37954         0.68354  20664038.4364   20664038.1534
        -0.42554        -0.02054  25268439.6424   25268437.1454
        -0.39154         0.64654  25324972.2444
        -0.27054         0.47654  21634977.4124   21634977.4104
        -0.92654        -0.89054  20334618.8144   20334618.1894
 96  3 16  2 39  0.0000000  0  8G 6G 4G20G25G17G16G24G 5
        -0.80954        -1.02754  22593618.8104   22593618.3154
     96005.27344     74809.50544  24630405.0604   24630406.5474
    -36093.35644    -28123.71044  20657170.3104   20657170.2994
    -39206.63744    -30550.32944  25260977.3814   25260979.4134
    -97157.90744                  25306483.1134
    -52602.69944    -40988.48644  21513478.7824   21513479.2504
     66010.87344     51437.72844  21647539.0504   21647538.7064
     24301.78844     18936.28244  20339243.6574   20339242.9094
 96  3 16  2 39 30.0000000  0  8G 6G16G 4G20G25G17G24G 5
    -64592.31944    -50332.05144  22581327.9174   22581327.3154
   -104710.19444    -81591.70844  21503563.5304   21503563.9634
    191987.96344    149601.20644  24648670.4454   24648669.0164
    -71662.42644    -55839.86344  20650401.7654   20650401.4084
    -77933.05344    -60726.70744  25253608.5894   25253609.6374
   -194210.12844                  25288011.0634
    132235.50944    103041.34444  21660140.9424   21660140.9984
     49145.41944     38294.95344  20343971.0524   20343970.5314
 96  3 16  2 40  0.0000000  0  8G 6G16G 4G20G25G17G24G 5
   -129119.40244   -100612.86944  22569048.8954   22569047.9924
   -156323.58644   -121809.91844  21493741.6694   21493742.0754
    287961.59844    224385.86744  24666933.1104   24666933.2554
   -106697.92944    -83140.25044  20643734.4064   20643734.0324
   -116174.95044    -90525.60844  25246331.5364   25246336.2224
   -291144.53844                  25269559.0254
    198694.53444    154827.59744  21672787.8924   21672787.9134
     74561.26344     58099.50144  20348807.6714   20348807.1154
 96  3 16  2 40 30.0000000  0  8G 6G16G 4G20G25G17G24G 5
   -193620.90944   -150873.76544  22556774.2034   22556773.5904
   -207470.18644   -161664.39044  21484008.5774   21484008.9664
    383901.56644    299144.28644  24685189.0044   24685191.3324
   -141212.68144   -110034.85844  20637166.5914   20637166.2844
   -153967.41244   -119974.34344  25239140.3914   25239139.7774
   -387978.48544                  25251130.9424
    265360.86444    206775.38944  21685474.1874   21685474.0094
    100528.28544     78333.54244  20353748.9384   20353748.4284
 96  3 16  2 41  0.0000000  0  8G 6G16G 4G20G25G17G24G 5
   -258098.30544   -201115.87244  22544504.5664   22544504.0304
   -258149.43544   -201154.69444  21474364.8404   21474365.2564
    479797.50444    373868.43544  24703438.8274   24703435.6714
   -175202.15444   -136520.15744  20630698.6714   20630698.3694
   -191322.92544   -149082.42044  25232031.5694   25232034.5424
   -484723.43744                  25232723.3434
    332233.96744    258884.30444  21698199.5084   21698199.3544
    127042.44944     98993.93144  20358794.4014   20358793.8434
 96  3 16  2 41 30.0000000  0  8G 6G16G 4G20G25G17G24G 5
   -322540.87444   -251330.84144  22532241.1304   22532240.7934
   -308358.20544   -240278.39544  21464810.1934   21464810.5844
    575646.71944    448556.10144  24721676.8374   24721678.5254
   -208679.43244   -162606.34644  20624328.0714   20624327.7904
   -228250.40744   -177857.09644  25225003.2934   25225004.6754
   -581373.11544                  25214335.0914
    399290.83144    311136.41144  21710960.2444   21710959.8084
    154098.74944    120076.76044  20363943.0654   20363942.4504
 96  3 16  2 42  0.0000000  0  8G 6G16G 4G20G25G17G24G 5
   -386948.11544   -301518.28044  22519984.8004   22519984.5444
   -358071.94144   -279016.35144  21455349.9514   21455350.3864
    671445.93444    523204.75144  24739906.9164   24739905.1134
   -241639.65044   -188289.62844  20618056.0004   20618055.8404
   -264734.81344                  25218060.6524
   -677907.76744   -528238.01644  25195969.4504   25195967.8834
    466527.33244    363528.49444  21723754.5854   21723754.5144
    181702.72944    141586.34444  20369195.8014   20369195.1494
 96  3 16  2 42 30.0000000  0  8G 6G16G24G 4G20G25G17G 5
   -451268.38144   -351637.94744  22507745.0144   22507745.1004
   -407244.04044   -317332.24844  21445993.0094   21445993.4544
    533970.89444    416081.91144  21736588.8284   21736588.8364
    767218.38244    597832.63844  24758131.8764   24758129.9744
   -274032.14544   -213530.53744  20611891.8204   20611891.5034
   -300722.69944                  25211212.8984
   -774294.05644   -603344.13344  25177627.8654   25177627.0914
    209869.98244    163534.85044  20374555.9844   20374555.4364
 96  3 16  2 43  0.0000000  0  8G 6G16G24G 4G20G25G17G 5
   -515489.33644   -401680.23744  22495524.6044   22495523.6254
   -455886.60544   -355235.52444  21436736.3804   21436736.7934
    601599.82544    468779.78144  21749458.3284   21749458.1634
    862947.08744    672426.46644  24776349.3414   24776346.8884
   -305863.05744   -238333.84344  20605834.4214   20605834.3544
   -336202.29644   -261975.47944  25204462.1544   25204461.1054
   -870532.86544   -678335.33344  25159314.8374   25159311.1064
    238579.22744    185905.68344  20380019.0564   20380018.5214
 96  3 16  2 43 30.0000000  0  8G 6G16G24G 4G20G25G17G 5
   -579639.44544   -451667.31144  22483317.4224   22483316.6664
   -504027.64444   -392748.00744  21427575.7974   21427575.9864
    669399.08844    521610.37444  21762359.6244   21762359.6004
    958638.79344    746991.43244  24794558.9344   24794556.7574
   -337141.28244   -262706.48244  20599882.5044   20599882.3404
   -371171.72944                  25197808.6964
   -966622.46544   -753210.28244  25141029.2994   25141023.0714
    267817.49744    208688.74444  20385582.8774   20385582.3864
 96  3 16  2 44  0.0000000  0  8G 6G16G24G 4G20G25G17G 5
   -643713.35244   -501595.01944  22471124.7394   22471123.4764
   -551664.04844   -429867.26644  21418511.0074   21418511.3694
    737388.90644    574589.45944  21775298.2584   21775297.7804
   1054298.35444    821531.38444  24812762.1164   24812758.2294
   -367849.45644   -286634.92844  20594038.9884   20594038.5574
   -405619.97244   -316067.10644  25191253.8954
  -1062566.00144   -827971.48044  25122770.9704   25122768.7574
    297582.35544    231882.13444  20391247.0154   20391246.4754
 96  3 16  2 44 30.0000000  0  8G 6G16G24G 4G20G25G17G 5
   -707714.82044   -551466.27144  22458945.5444   22458944.3024
   -598809.44244   -466603.92144  21409539.3234   21409539.5724
    805563.65244    627712.64344  21788271.1974   21788270.9314
   1149918.91644    896040.97044  24830958.3164   24830956.0534
   -398000.00244   -310128.86044  20588301.7494   20588301.2884
   -439560.86444   -342514.53644  25184795.2214
  -1158383.70044   -902634.57144  25104533.4844
    327867.30944    255480.79144  20397009.9104   20397009.3514
 96  3 16  2 45  0.0000000  0  7G 6G16G24G 4G20G25G 5
   -771689.58444   -601316.71544  22446771.5884   22446770.9584
   -645472.77144   -502964.94344  21400659.3714   21400659.5954
    873911.79744    680970.93244  21801277.1344   21801277.5664
   1245494.24044    970515.19944  24849146.3164   24849147.0894
   -427626.16344   -333214.17844  20582663.7874   20582663.6604
   -473025.34544                  25178427.0914
    358673.34144    279485.48044  20402872.1864   20402871.5474
 96  3 16  2 45 30.0000000  0  7G 6G16G24G 4G20G25G 5
   -835657.93844   -651162.16944  22434598.5294   22434598.2974
   -691646.53444   -538944.48244  21391873.0234   21391873.0124
    942431.73044    734363.08544  21814316.1774   21814316.2064
   1341009.78544   1044942.91944  24867322.4964   24867323.5404
   -456744.66744   -355903.92344  20577122.8194   20577122.6404
   -506044.90644                  25172143.4464
    389996.67944    303893.26944  20408833.0804   20408832.4944
 96  3 16  2 46  0.0000000  0  8G 6G16G24G 4G20G25G17G 5
   -899550.54844   -700948.60044  22422439.9534   22422439.6014
   -737246.62244   -574477.00144  21383195.5134   21383195.4774
   1011167.84344    787923.69344  21827396.2594   21827395.8914
   1436494.26244   1119346.42444  24885492.3104   24885491.7444
   -485307.09144   -378160.35844  20571687.7934   20571687.4184
   -538579.77844                  25165952.5804
        -0.68354         0.53054  25049947.8614
    421885.86644    328741.98044  20414901.3304   20414900.7334
 96  3 16  2 46 30.0000000  0  8G 6G16G24G 4G20G25G17G 5
   -963400.05244   -750701.44444  22410289.7744   22410289.1984
   -782296.12644   -609580.49544  21374622.9474   21374623.0274
   1080081.02444    841622.28644  21840509.9294   21840509.6654
   1531927.81844   1193710.25544  24903652.6184
   -513333.97844   -399999.49244  20566354.0764   20566353.9994
   -570654.43444                  25159847.5304
    -95378.17044    -74319.54044  25031800.3474   25031798.1114
    454333.69544    354025.99344  20421075.9464   20421075.4494
 96  3 16  2 47  0.0000000  0  8G 6G16G24G 4G20G25G17G 5
  -1027218.92344   -800430.42244  22398145.4674   22398145.3234
   -826815.84144   -644271.16944  21366150.9694   21366151.3434
   1149153.91744    895445.32144  21853653.8744   21853653.6124
   1627299.34844                  24921801.4574
   -540835.51344   -421429.25944  20561120.8484   20561120.5444
   -602281.13544                  25153831.0144
   -190627.61644   -148539.87244  25013676.8154   25013675.2204
    487333.88444    379740.41744  20427355.6424   20427355.0324
 96  3 16  2 47 30.0000000  0  8G 6G16G24G 4G20G25G17G 5
  -1090998.45544   -850128.74744  22386008.6074   22386008.3314
   -870823.94944   -678563.18444  21357776.6274   21357776.7914
   1218370.66744    949380.44944  21866825.9024   21866825.5394
   1722593.48144                  24939935.8384
   -567807.02444   -442446.02244  20555988.5264   20555988.1804
   -633460.53044                  25147897.5504
   -285748.23444   -222659.84044  24995577.3684   24995576.4024
    520870.36944    405872.73944  20433737.2484   20433736.6284
 96  3 16  2 48  0.0000000  0  8G 6G16G24G 4G20G25G17G 5
  -1154745.56744   -899801.80044  22373877.7874   22373877.2704
   -914346.17644   -712476.59544  21349494.3784   21349494.7144
   1287717.11644   1003416.64044  21880022.1764   21880021.8104
   1817813.38144                  24958053.7274
   -594239.54444   -463042.78844  20550958.3344   20550958.3324
   -664176.37744                  25142050.1234
   -380730.37544   -296671.83244  24977502.0694   24977501.6864
    554936.51244    432417.78444  20440219.6584   20440219.1184
 96  3 16  2 48 30.0000000  0  8G 6G16G24G 4G20G25G17G 5
  -1218427.73044   -949424.25244  22361759.7534   22361759.4484
   -957378.75244   -746008.45744  21341305.6674   21341305.8494
   1357221.85144   1057576.17544  21893248.3114   21893248.3194
   1913004.78344                  24976168.0664
   -620091.41844   -483187.10744  20546039.1244   20546038.8524
   -694380.46444                  25136301.6914
   -475534.95144   -370545.47444  24959460.6664   24959458.4284
    589574.60844    459408.50344  20446811.2944   20446810.7514
 96  3 16  2 49  0.0000000  0  7G 6G16G24G20G25G17G 5
  -1282027.91144   -998982.82344  22349656.7624   22349656.3114
   -999907.35144   -779147.60644  21333212.5254   21333212.9404
   1426894.23044   1111866.33944  21906506.4664   21906506.1484
   -645361.34444   -502877.95244  20541230.0974   20541230.0074
   -724066.91944                  25130650.8384
   -570161.52644   -444280.38544  24941452.6364   24941453.2134
    624771.95644    486834.99944  20453509.1614   20453508.6154
 96  3 16  2 49 30.0000000  0  7G 6G16G24G20G25G17G 5
  -1345559.48344  -1048487.92344  22337567.2504   22337566.6474
  -1041940.57544   -811900.75144  21325213.8454   21325214.0194
   1496721.66944   1166277.33344  21919794.0604   21919794.2744
   -670063.37144   -522126.28744  20536529.5754   20536529.2674
   -753256.72844                  25125096.6144
   -664640.62944   -517900.34344  24923469.7984   24923474.4224
    660493.13644    514669.67444  20460306.6564   20460306.0754
 96  3 16  2 50  0.0000000  0  8G 6G16G24G 9G20G25G17G 5
  -1408983.43544  -1097909.17544  22325498.3074   22325497.0514
  -1083435.47844   -844234.42544  21317317.7504   21317318.0184
   1566733.83344   1220832.26244  21933117.1434   21933116.8694
        -0.59054         0.64554  25274094.5014   25274093.8014
   -694178.63144   -540917.39944  20531940.5854   20531940.3574
   -781924.51244                  25119639.6584
   -758946.23944                  24905521.6124
    696769.24844    542936.76644  20467209.8094   20467209.2634
 96  3 16  2 50 30.0000000  0  8G 6G16G24G 9G20G25G17G 5
  -1472317.93244  -1147260.71144  22313446.3864   22313445.3964
  -1124392.26944   -876148.79244  21309523.8304   21309523.9764
   1636915.22444   1275519.05544  21946472.6064   21946472.2664
     85437.31044     66575.58444  25290351.8764   25290350.3954
   -717745.92044   -559281.52344  20527455.9074   20527455.5514
   -810115.78044                  25114276.5104
   -853113.41844                  24887602.0464
    733578.93444    571619.62744  20474214.4234   20474213.8424
 96  3 16  2 51  0.0000000  0  8G 6G16G24G 9G20G25G17G 5
  -1535578.84544  -1196554.91044  22301407.9394   22301407.3724
  -1164800.78444   -907635.92744  21301834.3724   21301834.9744
   1707255.55144   1330329.69744  21959857.6144   21959857.4474
    170678.25644                  25306572.2774
   -740776.33444   -577227.29744  20523073.4854   20523073.3814
   -837859.00844                  25108995.6944
   -947163.61044   -738047.82444  24869709.5474
    770905.93744    600705.59344  20481317.5364   20481317.0244
 96  3 16  2 51 30.0000000  0  8G 6G16G24G 9G20G25G17G 5
  -1598705.96144  -1245744.85444  22289395.2744   22289394.4104
  -1204599.77444   -938648.11044  21294260.9134   21294261.2364
   1777817.30344   1385312.88044  21973284.9064   21973285.2964
    255800.99144    199326.51244  25322771.9984
   -763198.62844   -594699.21244  20518806.6254   20518806.2914
   -865086.28844                  25103816.0664
  -1041037.11044                  24851847.5174
    808828.94544    630255.97744  20488534.3114   20488533.7834
 96  3 16  2 52  0.0000000  0  8G 6G16G24G 9G20G25G17G 5
  -1661661.35344  -1294800.98344  22277415.2834   22277414.5384
  -1243731.80644   -969140.58544  21286814.4244   21286814.9104
   1848632.83144   1440493.80844  21986760.7594   21986760.5544
    340850.88944                  25338954.7144
   -784973.87544   -611666.93544  20514663.0854   20514662.8424
   -891743.01944                  25098747.4264
  -1134686.47944   -884169.46544  24834026.8944   24834021.5464
    847396.52044    660308.62444  20495873.3724   20495872.8974
 96  3 16  2 52 30.0000000  0  8G 6G16G24G 9G20G25G17G 5
  -1724630.05144  -1343867.49144  22265432.7484   22265431.4124
  -1282378.55144   -999254.91744  21279460.0564   21279460.2624
   1919522.47344   1495732.48844  22000250.5794   22000250.3624
    425647.36744                  25355092.4924
   -806258.26144   -628252.17344  20510612.6184   20510612.2084
   -917997.78144                  25093751.1134
  -1228285.95044   -957104.09144  24816214.9194   24816212.6014
    886419.65644    690716.25444  20503298.9244   20503298.4614
 96  3 16  2 53  0.0000000  0  7G 6G16G24G 9G20G17G 5
  -1787716.34544  -1393025.63244  22253427.7104   22253426.9224
  -1320646.44744  -1029074.04144  21272178.3324   21272178.6704
   1990372.46244   1550940.26944  22013732.6724   22013732.1724
    510083.66944                  25371160.2654
   -827144.50744   -644527.16944  20506638.0734   20506638.0124
  -1321927.25544  -1030071.31444  24798397.1994   24798393.9454
    925784.86544    721390.43344  20510790.1094   20510789.5564
 96  3 16  2 53 30.0000000  0  7G 6G16G24G 9G20G17G 5
  -1850764.05644  -1442153.70344  22241430.0494   22241429.6764
  -1358377.09144  -1058474.53044  21264997.9764   21264998.2194
   2061345.25644   1606243.74144  22027238.5044   22027237.9364
    594312.98244                  25387188.3844
   -847473.60844   -660368.02444  20502769.7334   20502769.3774
  -1415441.06644  -1102939.19244  24780601.5334   24780601.8814
    965655.98844    752458.83244  20518377.1434   20518376.6494
 96  3 16  2 54  0.0000000  0  8G 6G16G24G 9G20G25G17G 5
  -1913730.17244  -1491218.19744  22229447.8894   22229447.2834
  -1395524.82744  -1087420.80244  21257929.3024   21257929.5214
   2132476.27244   1661670.51644  22040774.4744   22040773.9834
    678370.46444                  25403183.7504
   -867195.51144   -675735.74044  20499016.6184   20499016.4754
         0.23854                  25079240.2534
  -1508779.48644  -1175670.37544  24762839.3864   24762843.8134
   1006067.74244    783948.50144  20526067.3844   20526066.7754
 96  3 16  2 54 30.0000000  0  8G 6G16G24G 9G20G25G17G 5
  -1976625.81444  -1540227.77444  22217479.0704   22217478.5494
  -1432117.11944  -1115934.25844  21250965.9314   21250966.2324
   2203756.15944   1717213.29844  22054338.6494   22054338.1394
    762259.74744                  25419146.8394
   -886311.41944   -690631.25444  20495378.9754   20495378.5994
    -24396.22744                  25074597.1904
  -1601947.77244  -1248269.00944  24745109.1864   24745111.9344
   1047020.74144    815859.92044  20533860.5244   20533859.8934
 96  3 16  2 55  0.0000000  0  8G 6G16G24G 9G20G25G17G 5
  -2039446.59344  -1589179.02044  22205524.6314   22205524.3024
  -1468142.76244  -1144006.17544  21244110.2414   21244110.4644
   2275196.34544   1772880.97344  22067932.5274   22067933.0914
    845982.62544                  25435079.1214
   -904831.61444   -705062.57744  20491854.7594   20491854.3424
    -48287.36844                  25070051.1284
  -1694932.23644  -1320724.39144  24727414.0184   24727417.1934
   1088536.34344    848209.73744  20541760.8004   20541760.2894
 96  3 16  2 55 30.0000000  0  8G 6G16G24G 9G20G25G17G 5
  -2102194.21944  -1638073.26144  22193584.3194   22193583.9094
  -1503602.10944  -1171636.81844  21237362.5154   21237362.9594
   2346802.24544   1828677.76944  22081559.0874   22081559.2834
    929533.86944                  25450978.0064
   -922763.00344   -719035.08844  20488442.5914   20488442.2314
    -71693.44744                  25065597.4744
  -1787738.38944  -1393040.79844  24709752.2624   24709758.0694
   1130612.52444    880996.36744  20549767.5104   20549767.0114
 96  3 16  2 56  0.0000000  0  8G 6G16G24G 9G20G25G17G 5
  -2164854.39444  -1686899.36644  22181660.5384   22181659.5024
  -1538489.90644  -1198822.09744  21230723.8624   21230724.2764
   2418578.65544   1884607.44544  22095217.9754   22095217.9534
   1012908.00044                  25466843.6754
   -940107.16544   -732550.02144  20485141.8734   20485141.6714
    -94625.76044                  25061238.6194
  -1880361.23444  -1465214.37544  24692125.9894   24692130.1814
   1173222.28644    914198.76644  20557875.8384   20557875.3134
 96  3 16  2 56 30.0000000  0  8G 6G16G24G 9G20G25G17G 5
  -2227447.15644  -1735672.93144  22169749.9014   22169748.9364
  -1572823.65244  -1225575.65144  21224190.3204   21224190.3754
   2490512.24944   1940659.59744  22108906.2204   22108906.2444
   1096069.48544                  25482669.7374
   -956894.84444   -745631.33044  20481947.2894   20481947.0264
   -117090.84544                  25056959.8944
  -1972817.80144  -1537258.38344  24674533.0314   24674535.4994
   1216338.30444    947795.64844  20566080.6354   20566080.1554
 96  3 16  2 57  0.0000000  0  7G 6G16G20G25G17G24G 5
  -2289975.76444  -1784396.50844  22157851.0544   22157850.4454
  -1606604.71044  -1251898.53644  21217761.7724   21217762.2674
   -973138.60744   -758288.81144  20478856.3174   20478856.2704
   -139095.48544                  25052768.4774
  -2065120.06444  -1609182.15644  24656967.5114   24656970.7494
   2562591.39344   1996825.16444  22122622.4304   22122622.8924
   1259940.88244    981771.66744  20574378.1104   20574377.5714
 96  3 16  2 57 30.0000000  0  7G 6G16G24G20G25G17G 5
  -2352439.21344  -1833069.30144  22145964.9174   22145964.2824
  -1639848.96344  -1277803.13544  21211435.6154   21211435.8624
   2634794.06544   2053086.97944  22136362.2894   22136361.9134
   -988827.20444   -770513.69044  20475871.1574   20475870.8304
   -160633.05144                  25048666.5414
  -2157280.31044  -1680995.23044  24639430.2724   24639434.4084
   1304017.38144   1016116.98144  20582765.3584   20582764.9074
 96  3 16  2 58  0.0000000  0  8G 6G16G24G 4G20G25G17G 5
  -2414853.84344  -1881704.07244  22134087.4504   22134086.6004
  -1672586.44244  -1303312.84544  21205205.7414   21205206.0754
   2707080.00944   2109413.68844  22150117.9274   22150117.4214
        -0.85454                  25318220.3294
  -1003962.54744   -782307.46744  20472990.6084   20472990.2514
   -181703.19844   -141586.96944  25044653.8444
  -2249316.54344  -1752711.71344  24621916.9344   24621918.0164
   1348571.03744   1050834.10644  20591243.7374   20591243.2204
 96  3 16  2 58 30.0000000  0  7G 6G16G20G25G17G24G 5
  -2477219.04644  -1930300.32244  22122219.5724   22122219.2314
  -1704811.70644  -1328423.42744  21199073.5644   21199073.4454
  -1018528.05844   -793657.21844  20470219.0594   20470218.8084
   -202293.28944   -157631.19144  25040733.6904   25040734.2874
  -2341235.81844  -1824337.04544  24604426.3114   24604428.9544
   2779446.43244   2165803.11244  22163888.5164   22163888.0604
   1393647.15244   1085958.34344  20599821.5594   20599821.1434
 96  3 16  2 59  0.0000000  0  7G 6G16G24G25G20G17G 5
  -2539535.17044  -1978858.32944  22110360.9824   22110360.6414
  -1736523.71444  -1353134.06544  21193039.1844   21193039.2234
   2851879.45644   2222244.43244  22177671.7524   22177672.1714
   -222412.92544   -173308.80644  25036903.3814   25036904.6974
  -1032520.08544   -804560.09844  20467556.6484   20467556.4654
  -2433045.14444  -1895876.70144  24586955.8124   24586953.8594
   1439249.44444   1121492.58444  20608499.3694   20608498.8594
 96  3 16  2 59 30.0000000  0  7G 6G25G20G17G16G24G 5
  -2601757.34444  -2027343.12444  22098520.6064   22098520.1264
   -242007.63544   -188577.40244  25033175.6414   25033178.8104
  -1045892.62944   -814980.26244  20465011.8854   20465011.5884
  -2524703.71744  -1967298.93444  24569515.5874   24569513.6594
  -1767673.00044  -1377406.22244  21187111.5534   21187111.7734
   2924426.04744   2278774.24444  22191476.8314   22191477.2094
   1485420.78744   1157470.24744  20617285.6514   20617285.0644
 96  3 16  3  0  0.0000000  0  7G 6G16G24G25G20G17G 5
  -2663880.54444  -2075750.80344  22086698.6624   22086698.2064
  -1798232.90144  -1401219.11944  21181296.1474   21181296.4874
   2997115.19844   2335415.13844  22205309.3474   22205309.5074
   -261087.03444   -203444.46744  25029547.2984   25029546.9654
  -1058652.11844   -824922.72344  20462583.6574   20462583.4494
  -2616204.25544  -2038598.00244  24552103.7744   24552100.7114
   1532162.92644   1193892.68344  20626180.1454   20626179.5854
 96  3 16  3  0 30.0000000  0  7G 6G16G24G20G25G17G 5
  -2725901.16444  -2124078.55244  22074896.6664   22074896.1464
  -1828188.48844  -1424561.12044  21175595.7664   21175595.8474
   3069977.92444   2392191.28844  22219174.6134   22219174.9444
  -1070819.58544   -834403.87144  20460268.2564   20460267.9844
   -279677.86544   -217930.81244  25026012.5044   25026014.8334
  -2707533.79444  -2109763.81544  24534723.3374   24534721.4224
   1579444.44944   1230735.41544  20635177.4714   20635177.0194
 96  3 16  3  1  0.0000000  0  7G 6G16G24G25G20G17G 5
  -2787817.19944  -2172324.80044  22063114.4694   22063114.3544
  -1857546.96544  -1447437.84544  21170009.1554   21170009.5494
   3143013.35444   2449102.00944  22233073.0634   22233072.5364
   -297771.48444   -232029.76144  25022570.8754   25022566.9024
  -1082412.69444   -843437.46644  20458062.2344   20458062.1464
  -2798676.91744  -2180784.36444  24517378.4864   24517377.3814
   1627239.29744   1267978.14244  20644272.5194   20644272.0264
 96  3 16  3  1 30.0000000  0  7G 6G16G24G20G25G17G 5
  -2849644.66844  -2220502.03344  22051348.9794   22051348.3774
  -1886326.43044  -1469863.39344  21164532.4004   21164532.8884
   3216211.52144   2506139.54244  22247002.3504   22247002.0254
  -1093453.77344   -852040.90644  20455961.2444   20455960.9984
   -315387.05744   -245756.29444  25019219.4654   25019214.4434
  -2889653.13344  -2251674.83244  24500065.1534   24500069.8054
   1675526.50744   1305604.53244  20653461.3404   20653460.8954
 96  3 16  3  2  0.0000000  0  7G 6G16G24G25G20G17G 5
  -2911381.14144  -2268608.36244  22039601.2784   22039600.6934
  -1914528.50644  -1491839.02744  21159165.7354   21159166.0414
   3289562.45044   2563296.11744  22260960.1624   22260960.1374
   -332532.29244   -259116.08944  25015958.2434
  -1103948.37844   -860218.52544  20453964.1494   20453963.7604
  -2980451.13444  -2322426.46544  24482786.4684   24482786.9954
   1724304.22244   1343613.13144  20662743.4214   20662742.9374
 96  3 16  3  2 30.0000000  0  7G 6G16G24G25G20G17G 5
  -2973040.45144  -2316654.56444  22027868.1454   22027867.5594
  -1942185.40344  -1513389.84744  21153902.8714   21153903.1714
   3363022.81944   2620537.96844  22274939.2714   22274939.5044
   -349192.46144   -272098.09544  25012785.9244   25012784.6404
  -1113897.10644   -867970.78344  20452071.0654   20452070.9334
  -3071086.81444  -2393051.63844  24465539.5414   24465542.7174
   1773563.12744   1381996.68144  20672117.0514   20672116.6594
 96  3 16  3  3  0.0000000  0  7G 6G16G25G17G20G24G 5
  -3034595.98244  -2364619.90044  22016154.0724   22016153.2544
  -1969264.10444  -1534490.12144  21148749.7614   21148750.0674
   -365303.52044   -284652.12644  25009718.4994   25009716.8434
  -3161536.40244  -2463531.79044  24448325.7604   24448329.6244
  -1123233.78744   -875246.12144  20450294.2794   20450294.0294
   3436602.16444   2677872.51844  22288940.9634   22288941.1784
   1823354.97344   1420795.51544  20681592.1394   20681591.7404
 96  3 16  3  3 30.0000000  0  7G 6G16G25G20G17G24G 5
  -3096086.35644  -2412534.46544  22004452.7084   22004452.2614
  -1995804.17744  -1555170.68644  21143699.4024   21143699.7484
   -380919.46744   -296820.46244  25006746.3394   25006744.4824
  -1131974.85944   -882057.34844  20448630.8144   20448630.8214
  -3251839.34444  -2533897.63344  24431141.5514   24431144.6404
   3510256.04144   2735265.14744  22302956.8574   22302957.0574
   1873647.25744   1459984.29544  20691162.6784   20691162.3304
 96  3 16  3  4  0.0000000  0  7G 6G16G25G20G17G24G 5
  -3157513.26944  -2460399.57544  21992763.8694   21992762.9204
  -2021810.92444  -1575435.67044  21138750.4524   21138750.8044
   -396035.46644   -308599.14844  25003868.2934   25003864.8964
  -1140108.44244   -888395.20644  20447083.1744   20447082.9744
  -3341976.76144  -2604134.52344  24413990.4804   24413994.2244
   3583979.17344   2792711.74344  22316986.2404   22316985.7984
   1924441.62144   1499564.30444  20700828.4774   20700828.0994
 96  3 16  3  4 30.0000000  0  7G 6G16G25G20G17G24G 5
  -3218877.55044  -2508215.87844  21981087.2884   21981086.0884
  -2047262.60644  -1595268.13844  21133907.4044   21133907.5704
   -410654.46944   -319990.57544  25001086.3284   25001086.5904
  -1147616.29644   -894245.48044  20445654.4054   20445654.0794
  -3431943.79744  -2674238.67644  24396870.3404   24396873.6914
   3657787.79544   2850224.96444  22331031.0134   22331030.9494
   1975758.10444   1539551.16344  20710593.6824   20710593.1204
 96  3 16  3  5  0.0000000  0  7G 6G16G25G20G17G24G 5
  -3280193.22344  -2555994.31544  21969418.8254   21969418.1864
  -2072148.09744  -1614659.41644  21129171.8554   21129172.1044
   -424831.32444   -331037.41844  24998391.2724
  -1154537.43244   -899638.57944  20444337.3054   20444337.2764
  -3521756.34544  -2744222.39844  24379779.9224   24379784.2844
   3731670.07444   2907795.56044  22345090.6994   22345090.3614
   2027581.13744   1579932.74044  20720455.1724   20720454.6414
 96  3 16  3  5 30.0000000  0  7G 6G16G25G20G17G24G 5
  -3341429.62844  -2603710.98044  21957765.7774   21957765.1714
  -2096432.46144  -1633582.28144  21124550.6494   21124550.9444
   -438565.72144   -341739.64244  24995780.3824
  -1160875.58544   -904577.40344  20443131.0784   20443131.1374
  -3611388.74844  -2814065.76044  24362722.6894   24362722.9444
   3805647.10944   2965440.00444  22359168.1154   22359167.5664
   2079928.19344   1620722.64444  20730416.5594   20730416.1184
 96  3 16  3  6  0.0000000  0  7G 6G16G25G20G17G24G 5
  -3402552.61144  -2651339.27544  21946133.8934   21946133.3884
  -2120063.95644  -1651996.42444  21120053.6944   21120053.7784
   -451815.50544                  24993261.2214
  -1166597.77944   -909036.26144  20442042.4374   20442042.1004
  -3700808.50744  -2883743.43944  24345707.4114   24345707.2824
   3879763.82044   3023193.29344  22373272.2354   22373272.0634
   2132835.66244   1661949.23244  20740484.5194   20740483.9224
 96  3 16  3  6 30.0000000  0  7G 6G16G25G20G17G24G 5
  -3463598.97744  -2698907.86344  21934517.1824   21934516.6274
  -2143080.04344  -1669931.02444  21115673.8514   21115673.8594
   -464621.25144                  24990826.6574
  -1171752.44044   -913052.88144  20441061.4164   20441061.3804
  -3790077.24544  -2953303.45444  24328720.1124   24328721.9804
   3953980.22044   3081024.25344  22387395.1344   22387394.7794
   2186249.11344   1703570.08744  20750648.7584   20750648.2764
 96  3 16  3  7  0.0000000  0  7G 6G16G25G17G20G24G 5
  -3524553.27044  -2746404.70644  21922918.2004   21922917.7984
  -2165497.03644  -1687398.79944  21111407.9244   21111408.0594
   -476956.22644                  24988477.0984
  -3879188.07044  -3022740.34944  24311763.4294   24311762.8674
  -1176334.07244   -916622.98744  20440189.5974   20440189.5354
   4028299.81444   3138935.63344  22401537.7324   22401537.2114
   2240148.35744   1745569.48644  20760905.3554   20760904.8914
 96  3 16  3  7 30.0000000  0  7G 6G16G25G17G20G24G 5
  -3585405.30844  -2793821.86544  21911338.4324   21911337.6844
  -2187330.90344  -1704412.18744  21107253.1854   21107253.1914
   -488786.92144                  24986222.9554
  -3968117.68644  -3092036.07944  24294841.2094   24294840.9934
  -1180305.39144   -919717.52444  20439434.1374   20439433.8594
   4102744.25744   3196944.28744  22415704.3684   22415703.1954
   2294524.63644   1787940.60544  20771253.0514   20771252.5324
 96  3 16  3  8  0.0000000  0  7G 6G16G25G17G20G24G 5
  -3646146.23644  -2841152.44244  21899779.6654   21899779.1804
  -2208593.68844  -1720980.58044  21103206.8284   21103207.1334
   -500101.51644                  24984070.3984
  -4056865.10844  -3161189.83344  24277952.5474   24277949.7704
  -1183659.27844   -922330.94344  20438795.9944   20438795.5674
   4177324.62344   3255058.86644  22429896.4044   22429895.3634
   2349372.08044   1830678.86244  20781689.9444   20781689.4284
 96  3 16  3  8 30.0000000  0  7G 6G16G25G17G20G24G 5
  -3706774.54544  -2888395.26844  21888242.2804   21888241.6744
  -2229299.69844  -1737115.11344  21099266.7524   21099266.8554
   -510917.38844                  24982009.1464
  -4145438.92744  -3230208.36644  24261096.9434   24261098.4214
  -1186419.58144   -924481.82544  20438270.2884   20438270.1754
   4252017.44144   3313261.06744  22444109.3344   22444108.9644
   2404680.42044   1873776.25544  20792214.8194   20792214.4354
 96  3 16  3  9  0.0000000  0  7G 6G16G25G17G20G24G 5
  -3767305.82744  -2935562.49044  21876723.8344   21876722.8134
  -2249468.00344  -1752830.66244  21095428.6564   21095428.6934
   -521247.37344                  24980045.0914
  -4233842.04644  -3299093.87144  24244275.4984   24244275.8134
  -1188602.72144   -926182.97744  20437854.8464   20437854.5974
   4326801.70844   3371534.51544  22458340.4684   22458340.4214
   2460445.87644   1917229.84744  20802826.8574   20802826.3624
 96  3 16  3  9 30.0000000  0  7G 6G16G25G17G20G24G 5
  -3827743.37344  -2982656.67644  21865222.9874   21865222.3734
  -2269084.49644  -1768116.22844  21091696.2044   21091696.3394
   -531103.31744                  24978166.5954
  -4322076.52644  -3367847.93744  24227484.2664   24227485.3644
  -1190213.53744   -927438.16044  20437548.7694   20437548.4784
   4401667.15244   3429871.23244  22472587.0524   22472587.1604
   2516691.45844   1961057.56144  20813529.8894   20813529.3504
 96  3 16  3 10  0.0000000  0  7G 6G25G17G16G20G24G 5
  -3888098.17844  -3029686.37844  21853737.8414   21853737.4514
   -540507.77844   -421175.07244  24976374.9194
  -4410168.31544  -3436490.81844  24210718.3954   24210721.9314
  -2288142.72044  -1782966.78144  21088069.2124   21088069.5074
  -1191281.03744   -928269.97944  20437345.2224   20437344.8984
   4476596.22444   3488257.51944  22486845.4644   22486844.6514
   2573428.68544   2005268.37744  20824326.4954   20824325.9864
 96  3 16  3 10 30.0000000  0  7G 6G25G17G16G20G24G 5
  -3948363.85344  -3076646.63244  21842269.6694   21842269.2954
   -549436.07744   -428132.31744  24974674.8754
  -4498088.25844  -3504999.74444  24193988.0174   24193987.7914
  -2306619.55644  -1797364.30644  21084553.3004   21084553.6784
  -1191767.50544   -928649.04644  20437252.8314   20437252.6224
   4551609.31244   3546709.27544  22501119.5564   22501119.4534
   2630690.51144   2049887.96744  20835223.1314   20835222.8364
 96  3 16  3 11  0.0000000  0  7G 6G25G17G16G24G20G 5
  -4008567.30944  -3123558.40544  21830813.4654   21830813.2194
   -557895.38144   -434723.97944  24973063.0904
  -4585841.17844  -3573378.63844  24177290.3964   24177291.7594
  -2324521.04544  -1811313.50444  21081146.5554   21081146.6944
   4626697.11744   3605219.24244  22515408.7944   22515408.8604
  -1191671.31244   -928574.09044  20437271.0304   20437270.8094
   2688455.74944   2094899.82644  20846215.4434   20846215.3424
 96  3 16  3 11 30.0000000  0  7G 6G25G17G16G20G24G 5
  -4068711.81144  -3170424.24344  21819368.5404   21819368.0154
   -565905.46644   -440965.56444  24971540.2194
  -4673428.16244  -3641628.18144  24160622.4854   24160624.5534
  -2341847.13744  -1824814.34844  21077849.5644   21077849.8904
  -1190996.15944   -928047.99844  20437399.5624   20437399.2694
   4701846.64444   3663777.31844  22529709.0924   22529708.7284
   2746709.76944   2140292.55644  20857300.7644   20857300.2994
 96  3 16  3 12  0.0000000  0  7G 6G25G17G16G24G20G 5
  -4128782.74644  -3217232.75144  21807937.0244   21807936.0114
   -573453.18344   -446846.95244  24970104.5794
  -4760840.57144  -3709741.66844  24143989.1964   24143992.2414
  -2358591.33444  -1837861.76044  21074663.3054   21074663.1574
   4777067.00144   3722390.58244  22544022.9024   22544022.6944
  -1189734.53444   -927064.91444  20437639.7354   20437639.3074
   2805442.72244   2186058.48044  20868477.1604   20868476.9114
 96  3 16  3 12 30.0000000  0  7G 6G25G17G16G20G24G 5
  -4188762.26744  -3263970.03444  21796523.3904   21796522.6934
   -580502.22544   -452339.71644  24968764.7724
  -4848056.60644  -3777702.14544  24127393.0534   24127394.5584
  -2374740.82444  -1850445.76544  21071590.0584   21071590.2984
  -1187869.82744   -925611.89644  20437994.4024   20437994.1314
   4852368.78744   3781067.30344  22558352.5124   22558352.7444
   2864653.94544   2232197.08644  20879745.1344   20879744.6354
 96  3 16  3 13  0.0000000  0  7G 6G25G17G16G20G24G 5
  -4248635.95044  -3310624.84444  21785129.8244   21785128.9804
   -587060.17044   -457449.81344  24967521.1024   24967520.3284
  -4935080.65144  -3845513.08244  24110833.3324   24110833.9464
  -2390281.70444  -1862555.52744  21068632.9404   21068632.8384
  -1185421.35744   -923704.00044  20438460.4594   20438460.3034
   4927737.90344   3839796.48144  22572694.8854   22572695.2304
   2924325.71044   2278694.55544  20891100.4734   20891099.9594
 96  3 16  3 13 30.0000000  0  7G 6G25G17G16G20G24G 5
  -4308397.04644  -3357191.92144  21773757.8684   21773756.5284
   -593122.95544   -462174.03844  24966364.6014
  -5021919.95444  -3913180.03044  24094308.4314   24094307.6144
  -2405212.91344  -1874190.22344  21065791.3074   21065791.4734
  -1182376.00744   -921331.00444  20439040.0534   20439039.7584
   5003180.15644   3898582.65744  22587051.1454   22587050.7124
   2984465.63744   2325556.82844  20902544.6794   20902544.2004
 96  3 16  3 14  0.0000000  0  7G 6G25G17G16G20G24G 5
  -4368066.62844  -3403687.68644  21762402.9004   21762402.3274
   -598692.47644   -466513.95644  24965306.6014
  -5108590.39644  -3980715.38344  24077814.7614   24077816.8174
  -2419533.20844  -1885348.88344  21063066.3954   21063066.5434
  -1178740.03844   -918497.78444  20439731.9164   20439731.6384
   5078699.42644   3957428.83944  22601421.2384   22601421.0104
   3045066.30844   2372778.11644  20914076.3794   20914075.9094
 96  3 16  3 14 30.0000000  0  7G 6G25G17G16G20G24G 5
  -4427661.32044  -3450125.09544  21751062.5484   21751062.0704
   -603794.13844                  24964334.8034
  -5195109.99144  -4048133.21244  24061349.5684   24061351.1234
  -2433258.85544  -1896044.18644  21060454.5644   21060454.8234
  -1174523.01444   -915211.79644  20440534.2344   20440533.9874
   5154281.07644   4016323.63044  22615803.9754   22615804.3634
   3106113.49744   2420347.34744  20925693.1224   20925692.7024
 96  3 16  3 15  0.0000000  0  7G 6G25G17G16G24G20G 5
  -4487149.57344  -3496479.56744  21739742.3864   21739741.6674
   -608427.78444   -474099.88844  24963454.6904
  -5281443.44244  -4115406.03644  24044921.9114   24044921.4144
  -2446375.94144  -1906265.27844  21057958.4074   21057958.5244
   5229951.34844   4075287.47444  22630204.2074   22630203.8534
  -1169680.67844   -911438.55044  20441455.7744   20441455.7224
   3167635.34644   2468286.43744  20937400.4004   20937399.9344
 96  3 16  3 15 30.0000000  0  7G 6G25G17G16G20G24G 5
  -4546533.96644  -3542753.10944  21728441.6124   21728441.1384
   -612604.08844   -477354.16944  24962659.6624
  -5367602.48644  -4182542.91144  24028527.1904   24028527.8764
  -2458909.44744  -1916031.63944  21055573.2174   21055573.2834
  -1164218.45544   -907182.27744  20442494.9664   20442494.8624
   5305710.41344   4134320.50944  22644621.1424   22644620.7144
   3229636.68344   2516599.15144  20949198.6764   20949198.3534
 96  3 16  3 16  0.0000000  0  7G 6G25G17G16G20G24G 5
  -4605808.31844  -3588940.90644  21717162.3454   21717161.2334
   -616324.32744   -480253.04744  24961948.9674   24961948.9114
  -5453599.08144  -4249553.22244  24012162.6854   24012163.3854
  -2470875.79144  -1925356.05044  21053296.1934   21053296.3354
  -1158175.10544   -902473.17844  20443645.3664   20443644.9954
   5381543.98744   4193411.61144  22659051.4324   22659051.2644
   3292108.76644   2565278.68444  20961086.9764   20961086.5814
 96  3 16  3 16 30.0000000  0  7G 6G25G17G16G24G20G 5
  -4664935.89544  -3635014.32944  21705910.6124   21705910.1014
   -619569.05744   -482781.43344  24961333.0614   24961332.8294
  -5539410.54644  -4316419.26244  23995832.3914   23995834.2614
  -2482270.10644  -1934234.72944  21051128.1144   21051127.7894
   5457453.09844   4252561.57644  22673496.3584   22673496.3294
  -1151526.40744   -897292.37944  20444910.3354   20444910.1314
   3355072.99344   2614341.70444  20973068.4544   20973068.1964
 96  3 16  3 17  0.0000000  0  7G20G25G 6G17G16G24G 5
  -1144254.20944   -891625.73544  20446294.1424   20446294.0334
   -622300.84944   -484910.11444  24960812.8954   24960813.6754
  -4723896.59244  -3680957.71444  21694690.6794   21694690.1344
  -5625008.81244  -4383119.20044  23979543.0824   23979543.5394
  -2493062.64344  -1942644.48744  21049074.1064   21049073.9284
   5533454.09144   4311783.13244  22687958.9494   22687958.5784
   3418558.03944   2663810.55844  20985149.5234   20985149.1144
 96  3 16  3 17 30.0000000  0  7G20G25G 6G17G16G24G 5
  -1136393.65844   -885500.63844  20447790.2364   20447789.8574
   -624518.69144   -486638.31344  24960392.4224
  -4782712.33544  -3726788.16244  21683498.5384   21683497.8664
  -5710418.76544  -4449672.40244  23963290.8344   23963291.3504
  -2503257.33744  -1950588.39344  21047134.1664   21047134.1664
   5609532.38144   4371064.91444  22702436.6024   22702435.9694
   3482552.06844   2713676.02444  20997327.2064   20997326.8324
 96  3 16  3 18  0.0000000  0  7G20G25G 6G17G16G24G 5
  -1127951.39044   -878922.25544  20449396.7434   20449396.4514
   -626238.12644   -487978.17044  24960062.3594
  -4841416.60644  -3772531.74344  21672327.4084   21672327.0414
  -5795652.01044  -4516087.87944  23947071.3624   23947071.3434
  -2512876.24544  -1958083.63544  21045303.9584   21045303.9404
   5685666.12844   4430389.90044  22716923.9794   22716923.4914
   3547017.59044   2763908.88244  21009594.5174   21009594.0924
 96  3 16  3 18 30.0000000  0  7G20G25G 6G17G16G24G 5
  -1118911.84244   -871878.45844  20451117.0854   20451116.6594
   -627482.45444   -488947.81544  24959822.4524   24959823.9774
  -4900024.72144  -3818200.39444  21661174.3204   21661173.9784
  -5880691.38944  -4582352.30744  23930888.1304   23930888.5994
  -2521917.64144  -1965128.86744  21043583.3204   21043583.5244
   5761845.07644   4489750.12644  22731420.3104   22731419.8084
   3611942.29844   2814499.55144  21021949.2914   21021948.9504
 96  3 16  3 19  0.0000000  0  7G20G25G 6G17G16G24G 5
  -1109237.91344   -864340.33544  20452957.6844   20452957.2334
   -628219.07044   -489521.80244  24959683.0914   24959684.5384
  -4958509.49144  -3863772.92644  21650045.0004   21650044.6044
  -5965499.05944  -4648436.18644  23914749.7724   23914752.0184
  -2530329.37544  -1971683.45844  21041982.3974   21041982.6064
   5838118.10744   4549183.65544  22745934.3294   22745934.3894
   3677351.49244   2865467.73944  21034396.4024   21034395.8074
 96  3 16  3 19 30.0000000  0  7G20G25G 6G17G16G24G 5
  -1098939.84544   -856315.87144  20454917.1294   20454917.0634
   -628486.62444   -489730.31744  24959632.6794   24959630.8314
  -5016890.08844  -3909264.29044  21638935.9714   21638934.9744
  -6050082.42644  -4714345.27544  23898653.6914   23898654.8664
  -2538130.71344  -1977762.41444  21040498.0974   21040498.1584
   5914478.39344   4608685.17644  22760465.5234   22760464.8244
   3743218.25544   2916792.48344  21046930.4564   21046930.0774
 96  3 16  3 20  0.0000000  0  7G20G25G 6G17G16G24G 5
  -1088026.13744   -847811.68744  20456994.0894   20456993.8564
   -628315.17044   -489596.72844  24959666.2324   24959664.4554
  -5075189.26444  -3954692.21644  21627841.9214   21627841.2804
  -6134468.37144  -4780100.52144  23882595.9714   23882596.8484
  -2545336.47044  -1983377.27744  21039126.7834   21039126.9974
   5990888.24344   4668225.31944  22775006.0374   22775006.1984
   3809518.17244   2968454.73844  21059546.7444   21059546.4784
 96  3 16  3 20 30.0000000  0  7G20G25G 6G17G16G24G 5
  -1076509.44844   -838837.64744  20459185.7414   20459185.5774
   -627711.75344   -489126.58844  24959780.6924   24959781.4474
  -5133406.66044  -4000056.40644  21616763.6724   21616762.9024
  -6218669.97844  -4845712.10644  23866572.3324   23866573.6424
  -2551936.62544  -1988520.24344  21037870.8234   21037870.7954
   6067338.41344   4727796.87044  22789553.4374   22789552.9524
   3876251.65144   3020454.83844  21072245.8254   21072245.7844
 96  3 16  3 21  0.0000000  0  7G20G25G 6G17G16G24G 5
  -1064393.40944   -829396.58744  20461491.2104   20461491.1274
   -626649.19044   -488298.65444  24959981.9834   24959983.6054
  -5191522.63544  -4045341.56844  21605704.5064   21605703.5974
  -6302701.78444  -4911191.39444  23850581.8114   23850584.0924
  -2557922.75044  -1993184.75044  21036731.8224   21036731.7074
   6143856.79944   4787421.59044  22804114.6844   22804114.3124
   3943429.37344   3072801.10044  21085029.3294   21085029.1114
 96  3 16  3 21 30.0000000  0  7G20G25G 6G17G16G24G 5
  -1051698.75644   -819504.65644  20463907.0994   20463906.8564
   -625130.44844   -487115.16344  24960269.0934   24960268.6884
  -5249533.71844  -4090545.00644  21594664.8304   21594664.5314
  -6386582.20044  -4976552.70244  23834620.7594   23834621.8924
  -2563319.06644  -1997389.66144  21035704.6944   21035704.8544
   6220429.34344   4847088.50144  22818685.8064   22818685.7054
   4011052.10944   3125494.12544  21097897.4044   21097897.3994
 96  3 16  3 22  0.0000000  0  7G20G25G 6G17G16G24G 5
  -1038421.27744   -809158.57444  20466433.8744   20466433.5614
   -623133.02844   -485558.88444  24960649.4714   24960651.5964
  -5307421.96944  -4135652.72044  21583649.2674   21583648.7704
  -6470314.76544  -5041798.80544  23818687.3214   23818687.3824
  -2568117.02144  -2001128.31744  21034791.8394   21034791.9204
   6297057.96344   4906799.09944  22833267.7394   22833267.9984
   4079128.23144   3178540.43944  21110851.9234   21110851.6064
 96  3 16  3 22 30.0000000  0  7G20G25G 6G17G16G24G 5
  -1024557.82144   -798355.88744  20469071.8414   20469071.4164
   -620641.23744   -483617.18144  24961126.4334   24961129.2474
  -5365169.92644  -4180651.12044  21572660.4154   21572659.7724
  -6553879.55244  -5106914.21144  23802785.7024   23802785.1044
  -2572308.68744  -2004394.54544  21033993.9344   21033994.2304
   6373776.54044   4966579.80544  22847866.3204   22847866.6354
   4147653.55544   3231936.78444  21123891.8154   21123891.3584
 96  3 16  3 23  0.0000000  0  7G20G25G 6G17G16G24G 5
  -1010115.21944   -787101.91344  20471819.9534   20471819.9984
   -617658.32644   -481292.85944  24961693.2444   24961696.4604
  -5422783.95044  -4225545.16044  21561696.6284   21561696.0804
  -6637270.29044  -5171893.96844  23786916.7884   23786915.9134
  -2575900.47444  -2007193.32544  21033310.4354   21033310.7104
   6450579.97244   5026426.63144  22862482.0194   22862481.5144
   4216626.93744   3285682.26644  21137017.7484   21137017.1594
 96  3 16  3 23 30.0000000  0  7G20G25G 6G17G16G24G 5
   -995091.16344   -775394.86344  20474679.0414   20474678.6914
   -614211.80644   -478607.30344  24962348.1624   24962350.5594
  -5480283.96144  -4270350.35744  21550754.8964   21550754.2524
  -6720468.79644  -5236723.91344  23771084.5034   23771085.2024
  -2578902.75444  -2009532.75744  21032739.2824   21032739.2074
   6527432.68744   5086311.85944  22877106.3654   22877105.9904
   4286039.39844   3339769.88444  21150226.0834   21150225.5624
 96  3 16  3 24  0.0000000  0  7G20G25G 6G17G16G24G 5
   -979468.90144   -763221.67744  20477651.9234   20477651.6994
   -610294.03044   -475554.47044  24963095.1444
  -5537658.31744  -4315057.63544  21539837.1304   21539836.1984
  -6803440.82344  -5301377.42744  23755295.0034   23755294.5784
  -2581291.45544  -2011394.07544  21032284.8524   21032284.8274
   6604346.92044   5146245.03044  22891742.9264   22891742.3364
   4355898.62644   3394205.63944  21163519.6894   21163519.3394
 96  3 16  3 24 30.0000000  0  7G20G25G 6G17G16G24G 5
   -963245.89444   -750580.38244  20480739.1004   20480738.8224
   -605913.42744                  24963929.4934
  -5594909.67244  -4359669.08044  21528942.3804   21528941.3924
  -6886167.44944  -5365839.69144  23739553.2624   23739553.4224
  -2583064.44044  -2012775.61344  21031947.3444   21031947.2394
   6681316.74644   5206221.51444  22906389.8064   22906389.9594
   4426206.91044   3448991.30344  21176898.8594   21176898.5504
 96  3 16  3 25  0.0000000  0  7G20G25G 6G17G16G24G 5
   -946417.96344   -737467.71144  20483941.1254   20483941.1314
   -601085.93744                  24964848.3044
  -5652025.21844  -4404174.69544  21518073.5984   21518072.7744
  -6968634.49044  -5430099.66944  23723859.1944   23723859.8224
  -2584228.62944  -2013682.76144  21031725.6794   21031725.8274
   6758329.51144   5266231.45644  22921044.4914   22921046.2864
   4496976.43844   3504136.37144  21190365.7584   21190365.3964
 96  3 16  3 25 30.0000000  0  7G20G25G 6G17G16G24G 5
   -929012.19044   -723904.77544  20487253.5584   20487253.3544
   -595835.07044   -464287.79244  24965847.1564
  -5709011.78044  -4448579.79844  21507229.3634   21507228.5854
  -7050872.02344  -5494180.84644  23708209.4324   23708210.5174
  -2584806.94544  -2014133.38844  21031615.6574   21031615.9724
   6835366.00844   5326259.86844  22935704.6024   22935704.9864
   4568181.19344   3559620.58144  21203915.8404   21203915.4294
 96  3 16  3 26  0.0000000  0  7G20G25G 6G17G16G24G 5
   -911050.88244   -709908.95844  20490671.4734   20490671.1544
   -590177.50044   -459879.32944  24966924.2894
  -5765881.39044  -4492893.77444  21496407.0824   21496406.5434
  -7132922.45044  -5558116.19444  23692596.7084   23692598.0244
  -2584804.24144  -2014131.27744  21031616.3434   21031616.0874
   6912418.31644   5386300.63344  22950367.3064   22950366.5954
   4639785.84344   3615416.40744  21217541.8124   21217541.2574
 96  3 16  3 26 30.0000000  0  7G20G25G 6G17G16G24G 5
   -892544.84144   -695488.67144  20494193.1974   20494192.9354
   -584117.11544                  24968080.4174
  -5822635.57044  -4537117.80744  21485607.1794   21485606.4284
  -7214810.01844  -5621924.62344  23677014.2754   23677016.5174
  -2584231.55444  -2013685.01844  21031725.3574   21031725.0224
   6989476.04944   5446345.62544  22965030.7884   22965030.8934
   4711774.88844   3671511.76144  21231240.7344   21231240.1044
 96  3 16  3 27  0.0000000  0  7G20G25G 6G17G16G24G 5
   -873479.31544   -680632.42444  20497821.1594   20497821.2304
   -577617.15844   -450092.14444  24969314.2794
  -5879242.32644  -4581226.95744  21474835.8774   21474834.9354
  -7296528.97244  -5685601.65344  23661463.1274   23661464.2484
  -2583073.92844  -2012782.96444  21031945.5464   21031945.5934
   7066563.23144   5506413.55844  22979699.1484   22979700.0904
   4784170.02744   3727923.55144  21245016.9544   21245016.4974
 96  3 16  3 27 30.0000000  0  7G20G25G 6G17G16G24G 5
   -853832.56944   -665323.28044  20501559.7564   20501559.5854
   -570649.54844                  24970638.1904
  -5935705.62744  -4625224.32744  21464090.9894   21464090.2664
  -7378082.22244  -5749149.60944  23645943.8614   23645945.4774
  -2581317.40144  -2011414.22744  21032279.5024   21032279.6624
   7143688.52944   5566511.18144  22994375.7864   22994376.2764
   4856978.38544   3784657.32344  21258871.9584   21258871.7694
 96  3 16  3 28  0.0000000  0  7G20G25G 6G17G16G24G 5
   -833592.23544   -649551.60144  20505411.4224   20505411.7064
   -563223.94744   -438876.68544  24972054.2234
  -5992041.91844  -4669122.72844  21453370.1754   21453369.5044
  -7459473.87344  -5812571.62144  23630456.0234   23630457.5204
  -2578980.32144  -2009593.11644  21032724.5674   21032724.7134
   7220836.45744   5626626.42744  23009057.0524   23009056.9114
   4930187.87444   3841703.66844  21272803.4624   21272803.3274
 96  3 16  3 28 30.0000000  0  7G20G25G 6G17G16G24G 5
   -812746.33344   -633308.04944  20509377.9694   20509377.9294
   -555322.86644   -432719.98744  24973559.2054   24973560.9164
  -6048236.91644  -4712911.03344  21442676.7724   21442676.1634
  -7540671.36744  -5875842.36844  23615003.9174   23615005.9704
  -2576069.12144  -2007324.64044  21033278.3054   21033278.3264
   7298017.13244   5686767.20744  23023744.1594   23023743.6474
   5003829.13944   3899086.45944  21286816.8994   21286816.6434
 96  3 16  3 29  0.0000000  0  7G20G25G 6G17G16G24G 5
   -791294.12544   -616592.04944  20513460.5914   20513460.6654
   -546956.96144   -426201.13444  24975151.5144   24975153.4384
  -6104316.71844  -4756609.57744  21432005.0384   21432004.4114
  -7621679.07644  -5938965.18844  23599588.1334   23599590.9854
  -2572589.99344  -2004613.62244  21033940.7354   21033940.8774
   7375225.68744   5746929.71944  23038436.2904   23038435.9374
   5077899.58144   3956803.67644  21300911.8904   21300911.7234
 96  3 16  3 29 30.0000000  0  7G20G25G 6G17G16G24G 5
   -769233.44344   -599401.91744  20517658.7044   20517658.5324
   -538143.03644                  24976828.4794
  -6160290.80244  -4800225.73844  21421353.6654   21421352.8724
  -7702492.58344  -6001936.69144  23584209.8564   23584211.4094
  -2568523.52544  -2001444.93744  21034714.1414   21034714.0274
   7452470.57444   5807120.53144  23053135.3554   23053135.8074
   5152393.43244   4014850.82544  21315087.8194   21315087.4344
 96  3 16  3 30  0.0000000  0  7G20G25G 6G17G16G24G 5
   -746575.52844   -581746.40744  20521970.1064   20521969.7294
   -528877.18044   -412113.03644  24978591.9444   24978590.9974
  -6216135.27044  -4843740.89844  21410727.0114   21410726.1824
  -7783091.22544  -6064740.80844  23568873.0714   23568873.2734
  -2563853.12744  -1997805.65444  21035602.9694   21035603.2554
   7529768.05344   5867352.31744  23067844.9114   23067843.4444
   5227329.39944   4073242.47344  21329347.6624   21329347.3174
 96  3 16  3 30 30.0000000  0  7G20G25G 6G17G16G24G 5
   -723332.27444   -563634.78744  20526393.0764   20526392.9454
   -519150.68944   -404533.61644  24980441.4024   24980439.2104
  -6271835.77044  -4887143.87744  21400127.4384   21400126.4674
  -7863465.92044  -6127370.41844  23553578.0294   23553577.2944
  -2558559.86944  -1993681.03144  21036610.4804   21036610.1824
   7607130.69244   5927634.89644  23082565.6994   23082566.8784
   5302717.21344   4131986.21644  21343693.1194   21343692.8124
 96  3 16  3 31  0.0000000  0  7G20G25G 6G17G16G24G 5
   -699504.80244   -545067.93444  20530927.6324   20530927.3114
   -508983.94644   -396611.87544  24982375.1974   24982372.0384
  -6327398.20444  -4930439.26844  21389554.1494   21389553.3084
  -7943644.84744  -6189847.46344  23538320.3114   23538319.9294
  -2552653.94144  -1989079.00244  21037734.2004   21037734.0414
   7684555.92344   5987966.24144  23097299.6804   23097299.8844
   5378534.46044   4191064.57844  21358120.7674   21358120.4094
 96  3 16  3 31 30.0000000  0  7G20G25G 6G17G16G24G 5
   -675097.04244   -526048.90744  20535572.2784   20535572.3994
   -498372.72944   -388343.37844  24984394.4764   24984392.1544
  -6382800.90944  -4973610.20444  21379011.7414   21379010.8584
  -8023618.42144  -6252164.47744  23523102.7284   23523103.1074
  -2546146.41244  -1984008.18744  21038972.3944   21038972.1804
   7762037.07644   6048341.17044  23112044.2344   23112043.9884
   5454769.80344   4250468.73244  21372627.7504   21372627.3624
 96  3 16  3 32  0.0000000  0  7G20G25G 6G17G16G24G 5
   -650107.87244   -506576.83344  20540327.2334   20540327.2984
   -487310.95644   -379723.78644  24986499.0424   24986498.7764
  -6438041.21544  -5016654.59644  21368499.2674   21368498.7384
  -8103385.85344  -6314320.87744  23507923.6634   23507923.3144
  -2539059.57244  -1978485.96444  21040321.2664   21040321.2274
   7839553.52644   6108743.60244  23126794.9364   23126795.7504
   5531414.29644   4310191.69944  21387213.0174   21387212.9884
 96  3 16  3 32 30.0000000  0  7G20G25G 6G17G16G24G 5
   -624523.56444   -486641.01644  20545196.0524   20545195.7594
   -475799.24044                  24988690.1734
  -6493125.96844  -5059577.77644  21358017.4484   21358016.2514
  -8182949.30844  -6376318.34544  23492783.3914   23492781.8934
  -2531385.98144  -1972506.53344  21041781.4154   21041781.3994
   7917099.11444   6169168.74644  23141551.2884   23141552.8584
   5608449.47844   4370219.10044  21401872.1934   21401871.6854
 96  3 16  3 33  0.0000000  0  7G20G25G 6G17G16G24G 5
   -598350.12944   -466246.13744  20550176.6304   20550176.2914
   -463842.00744   -361436.32844  24990964.8344   24990962.6764
  -6548072.32844  -5102393.11544  21347561.7414   21347560.5574
  -8262319.77044  -6438165.45844  23477678.9914   23477678.9234
  -2523127.72644  -1966071.52244  21043352.8934   21043352.8304
   7994656.99044   6229603.56144  23156310.5214   23156310.3174
   5685866.93244   4430544.37244  21416604.3084   21416603.9664
 96  3 16  3 33 30.0000000  0  7G20G25G 6G17G16G24G 5
   -571605.93644   -445406.51644  20555265.9514   20555265.6994
   -451448.33944   -351778.97844  24993321.9994   24993322.4734
  -6602885.17944  -5145104.41844  21337131.0444   21337129.9744
  -8341488.81844  -6499855.57044  23462613.7674   23462614.5314
  -2514276.59444  -1959174.53244  21045036.8634   21045037.0544
   8072196.12644   6290023.51644  23171065.4694   23171065.6414
   5763665.21844   4491166.40144  21431408.6584   21431408.3064
 96  3 16  3 34  0.0000000  0  7G20G25G 6G17G16G24G 5
   -544274.23944   -424109.09844  20560466.8864   20560467.0394
   -438626.38044   -341787.85144  24995761.7194   24995761.0554
  -6657547.88944  -5187698.73244  21326729.0004   21326728.4144
  -8420452.99244  -6561386.05944  23447587.2534   23447588.5284
  -2504807.17044  -1951795.75244  21046839.0664   21046839.2094
   8149729.05844   6350438.78544  23185819.9454   23185820.2814
   5841863.44744   4552100.07244  21446289.7524   21446289.1794
 96  3 16  3 34 30.0000000  0  7G20G25G 6G17G16G24G 5
   -516356.48644   -402355.01344  20565779.1914   20565779.3604
   -425398.28244   -331480.28744  24998278.4394   24998278.9514
  -6712064.43344  -5230179.15344  21316354.6974   21316353.7844
  -8499225.76044  -6622767.40844  23432597.3804   23432597.6824
  -2494717.26344  -1943933.48144  21048759.1694   21048759.1934
   8227257.37944   6410850.47244  23200572.5884   23200572.6864
   5920462.67644   4613346.20744  21461246.7114   21461246.4054
 96  3 16  3 35  0.0000000  0  7G20G25G 6G17G16G24G 5
   -487842.76244   -380136.53544  20571205.4564   20571205.2944
   -411758.30644   -320851.78444  25000874.7674   25000873.1844
  -6766418.88844  -5272533.27044  21306011.5584   21306010.7434
  -8577806.88844  -6683999.42044  23417642.7724   23417643.7604
  -2484022.36744  -1935599.78644  21050794.1864   21050794.1794
   8304789.40644   6471265.03244  23215326.4724   23215326.8364
   5999473.55744   4674913.11144  21476281.8324   21476281.8434
 96  3 16  3 35 30.0000000  0  7G20G25G 6G17G16G24G 5
   -458717.05244   -357441.18244  20576748.0124   20576747.5814
   -397687.80444   -309887.93944  25003552.7714   25003554.1234
  -6820580.79044  -5314737.34244  21295704.7624   21295703.9144
  -8656176.46544  -6745066.59444  23402729.4024   23402731.1374
  -2472711.66944  -1926786.25144  21052946.7854   21052946.4874
   8382360.27744   6531709.87044  23230087.6544   23230088.1354
   6078904.23444   4736807.12944  21491396.8744   21491396.5224
 96  3 16  3 36  0.0000000  0  7G20G25G 6G17G16G24G 5
   -428977.74444   -334267.70244  20582407.0534   20582407.0094
   -383159.79444   -298567.39244  25006317.9614   25006317.3234
  -6874545.16444  -5356787.50444  21285435.7714   21285435.0474
  -8734324.63244  -6805961.24644  23387858.7494   23387860.8684
  -2460779.56444  -1917488.49744  21055216.9514   21055216.8964
   8460010.48744   6592216.53444  23244863.7394   23244864.4394
   6158760.28744   4799032.60344  21506592.7974   21506593.0374
 96  3 16  3 36 30.0000000  0  7G20G25G 6G17G16G24G 5
   -398661.76344   -310644.86844  20588176.0324   20588175.9404
   -368175.03744   -286890.99544  25009168.3064   25009171.4104
  -6928357.84244  -5398719.45244  21275195.2704   21275194.6354
  -8812271.76644  -6866699.22844  23373025.9914   23373027.9274
  -2448260.36944  -1907733.27644  21057599.4484   21057599.2844
   8537721.08144   6652770.24744  23259652.1844   23259651.2144
   6239017.01044   4861570.29344  21521865.3224   21521865.3644
 96  3 16  3 37  0.0000000  0  7G20G25G 6G17G16G24G 5
   -367770.42044   -286573.70144  20594054.4164   20594054.7034
   -352709.66944                  25012111.8024
  -6982006.68944  -5440523.74344  21264986.4984   21264985.6334
  -8889985.17944  -6927255.08444  23358236.8744   23358240.0854
  -2435138.22244  -1897508.22344  21060096.5774   21060096.5664
   8615516.51144   6713390.07044  23274456.2014   23274455.7364
   6319678.00044   4924422.98844  21537214.9004   21537214.6484
 96  3 16  3 37 30.0000000  0  7G20G25G 6G17G16G24G 5
   -336304.64744   -262054.92644  20600042.1354   20600041.9124
   -336765.21044                  25015145.7594
  -7035494.47944  -5482202.53744  21254808.2304   21254807.3564
  -8967439.48044  -6987609.05444  23343498.9724   23343499.7624
  -2421385.56544  -1886791.86044  21062713.5114   21062713.8544
   8693401.11544   6774079.37444  23289276.4254   23289276.9504
   6400733.92144   4987583.43244  21552638.8344   21552639.0134
 96  3 16  3 38  0.0000000  0  7G20G25G 6G17G16G24G 5
   -304276.61344   -237098.02544  20606137.0174   20606136.8724
   -320380.93344                  25018263.0384
  -7088852.71244  -5523780.37544  21244654.4194   21244653.5194
  -9044660.74044  -7047781.43644  23328805.1264   23328803.9554
  -2407026.84644  -1875603.24344  21065446.0784   21065445.7144
   8771321.27144   6834796.35344  23304104.6774   23304104.4454
   6482155.75544   5051029.00044  21568133.3294   21568132.7634
 96  3 16  3 38 30.0000000  0  7G25G20G 6G17G16G24G 5
   -303607.22444   -236580.76544  25021456.1374
   -271707.30844   -211719.35644  20612334.6814   20612334.8634
  -7142101.45044  -5565272.89644  21234521.4634   21234520.7984
  -9121694.03144  -7107807.36644  23314145.8324   23314146.1364
  -2392097.88144  -1863970.27844  21068286.9344   21068286.5634
   8849224.72044   6895500.32044  23318930.0254   23318929.5314
   6563895.27644   5114722.12144  21583687.7184   21583687.4494
 96  3 16  3 39  0.0000000  0  7G20G25G 6G17G16G24G 5
   -238598.80244   -185920.53244  20618635.2394   20618635.2174
   -286463.81244                  25024718.4444
  -7195217.82444  -5606662.27144  21224413.7964   21224413.2694
  -9198542.56944  -7167689.31644  23299521.1284   23299522.8024
  -2376605.77344  -1851898.49944  21071234.9484   21071234.7694
   8927094.37644   6956177.97344  23333747.6904   23333747.5444
   6645937.19044   5178650.86144  21599300.0684   21599299.6444
 96  3 16  3 39 30.0000000  0  7G20G25G 6G17G16G24G 5
   -204924.20044   -159680.58944  20625043.1984   20625043.0594
   -268937.45644                  25028053.5824
  -7248172.77644  -5647925.86544  21214336.8114   21214335.8994
  -9275208.17644  -7227428.69544  23284931.5114   23284934.3544
  -2360550.18544  -1839387.64544  21074290.2434   21074290.4354
   9004923.35144   7016823.90344  23348557.6704   23348557.7254
   6728314.91744   5242841.29144  21614975.9944   21614975.5664
 96  3 16  3 40  0.0000000  0  7G20G25G 6G17G16G24G 5
   -170686.65044   -133001.98544  20631558.2874   20631558.1344
   -251017.52044                  25031462.9554
  -7300951.87944  -5689052.43644  21204293.3994   21204292.4174
  -9351694.42244  -7287028.32544  23270376.7694   23270377.7584
  -2343943.69244  -1826447.51444  21077450.2514   21077450.0394
   9082714.36544   7077440.27044  23363360.4824   23363360.9224
   6811064.94844   5307321.81944  21630722.6524   21630722.3224
 96  3 16  3 40 30.0000000  0  7G20G25G 6G17G16G24G 5
   -135872.21944   -105873.86444  20638183.3624   20638183.1384
   -232677.22044   -181310.85844  25034953.1014   25034952.7164
  -7353536.53144  -5730027.48744  21194286.7944   21194285.7034
  -9427963.56044  -7346458.80244  23255864.2044   23255864.0724
  -2326767.73444  -1813063.64844  21080718.9684   21080718.5544
   9160508.73544   7138059.25444  23378164.6974   23378164.7234
   6894233.39844   5372128.39244  21646549.0904   21646549.4374
 96  3 16  3 41  0.0000000  0  7G20G25G 6G17G16G24G 5
   -100495.71544    -78307.76944  20644915.2644   20644915.2014
   -213929.72044   -166702.31344  25038521.2734   25038521.6884
  -7405948.92644  -5770868.30444  21184312.9304   21184312.0904
  -9504016.71344  -7405720.98744  23241391.7544   23241390.3454
  -2309034.79744  -1799245.77044  21084093.0274   21084092.9424
   9238294.93944   7198671.90944  23392967.0374   23392966.1044
   6977815.39444   5437257.19944  21662453.8564   21662453.5344
 96  3 16  3 41 30.0000000  0  7G25G20G 6G17G16G24G 5
   -194774.45444   -151775.11044  25042167.9684   25042166.4704
    -64552.97044    -50300.44344  20651755.0904   20651754.8304
  -7458209.92444  -5811591.16144  21174367.9454   21174367.0064
  -9579852.61244  -7464813.85744  23226960.5484   23226961.0174
  -2290738.59044  -1784988.98444  21087575.1324   21087574.8364
   9316077.98344   7259282.08244  23407768.3804   23407767.7454
   7061802.98144   5502702.05444  21678436.4944   21678436.3994
 96  3 16  3 42  0.0000000  0  7G20G25G 6G17G16G24G 5
    -28044.69944    -21852.44944  20658701.9974   20658701.9864
   -175215.59144   -136531.44444  25045889.5974   25045888.9944
  -7510325.68244  -5852200.83544  21164450.4854   21164449.6814
  -9655467.82544  -7523734.77344  23212571.4254   23212571.9674
  -2271863.67744  -1770281.25344  21091166.8224   21091166.7994
   9393876.75844   7319904.51144  23422573.0044   23422573.3334
   7146168.27144   5568441.23144  21694490.8564   21694490.7864
 96  3 16  3 42 30.0000000  0  7G20G25G 6G17G16G24G 5
      9075.52344      7072.39044  20665766.0794   20665766.0964
   -155220.20144   -120943.08544  25049694.5194   25049693.9604
  -7562254.89044  -5892665.14944  21154569.1604   21154568.2254
  -9730838.01244  -7582464.74444  23198229.0014   23198228.9264
  -2252359.06644  -1755082.85144  21094878.4114   21094878.0344
   9471733.94844   7380572.41744  23437388.9194   23437389.1014
   7230904.97844   5634469.81444  21710615.3324   21710615.2654
 96  3 16  3 43  0.0000000  0  7G20G25G 6G17G16G24G 5
     46768.03144     36443.16644  20672938.5324   20672938.5444
   -134823.24144   -105036.62544  25053576.1854   25053575.8304
  -7614011.56244  -5932995.02144  21144719.9544   21144719.1894
  -9806015.30244  -7641044.42344  23183923.0474   23183922.5774
  -2232265.95044  -1739425.87244  21098701.9214   21098701.5444
   9549605.48044   7441251.52344  23452207.1954   23452206.5214
   7315947.53844   5700736.72844  21726798.4284   21726798.6444
 96  3 16  3 43 30.0000000  0  7G20G25G 6G17G16G24G 5
     85017.16344     66247.67444  20680217.1734   20680217.1134
   -114037.09044    -88822.93744  25057531.4404   25057531.1694
  -7665617.99244  -5973207.81744  21134899.6024   21134898.9654
  -9881024.67644  -7699493.26744  23169649.0374   23169648.8904
  -2211597.16644  -1723320.32344  21102635.1334   21102634.8194
   9627471.14044   7501926.04244  23467024.5324   23467023.9904
   7401289.28644   5767236.77444  21743038.9224   21743038.7944
 96  3 16  3 44  0.0000000  0  7G20G25G 6G17G16G24G 5
    123823.98544     96486.74544  20687601.8254   20687601.9004
    -92840.40344    -72320.47744  25061565.3104   25061565.6384
  -7717041.71944  -6013278.25644  21125113.8914   21125112.8554
  -9955855.36744  -7757802.86344  23155409.0464   23155409.4454
  -2190333.19644  -1706750.99344  21106681.5754   21106681.5974
   9705353.12244   7562613.31244  23481845.2514   23481844.9424
   7486953.87344   5833988.38944  21759340.3084   21759340.1064
 96  3 16  3 44 30.0000000  0  7G25G20G 6G17G16G24G 5
    -71215.35344    -55491.92544  25065680.9654   25065680.8814
    163198.40544    127168.10344  20695094.6174   20695094.3924
  -7768253.13344  -6053183.25744  21115368.6914   21115367.4534
 -10030472.87744  -7815946.34244  23141209.2994   23141210.2554
  -2168473.04044  -1689717.09844  21110841.1974   21110840.9944
   9783265.02444   7623323.88444  23496670.7254   23496671.7684
   7572977.30144   5901019.60844  21775709.9114   21775709.3084
 96  3 16  3 45  0.0000000  0  7G20G25G 6G17G16G24G 5
    203131.83544    158285.05144  20702693.5724   20702693.4024
    -49161.61144    -38313.65244  25069877.0174   25069876.6654
  -7819251.89144  -6092922.54844  21105664.2394   21105662.9674
 -10104866.87444  -7873915.65344  23127053.4874   23127053.9494
  -2146031.74944  -1672230.37844  21115111.8354   21115111.3254
   9861192.17944   7684046.33244  23511500.6454   23511500.6974
   7659373.55944   5968341.35044  21792150.4414   21792149.7574
 96  3 16  3 45 30.0000000  0  7G25G20G 6G17G16G24G 5
    -26686.01244    -20805.24244  25074155.0684   25074154.4454
    243613.40844    189829.12344  20710397.1524   20710397.0264
  -7870056.92844  -6132510.88844  21095996.3634   21095995.2674
 -10179036.82844  -7931710.40544  23112938.6204   23112939.2604
  -2123009.59444  -1654291.02844  21119492.4444   21119492.5924
   9939131.86444   7744778.54444  23526331.5814   23526332.5794
   7746126.35844   6035940.91244  21808658.8344   21808658.9714
 96  3 16  3 46  0.0000000  0  7G20G25G 6G17G16G24G 5
    284639.00944    221797.11844  20718204.0694   20718203.9954
     -3801.49244     -2976.16644  25078510.4134   25078509.9284
  -7920648.23844  -6171932.68544  21086368.8874   21086367.9844
 -10252973.99944  -7989323.73344  23098868.8404   23098869.3534
  -2099414.53744  -1635905.26944  21123982.7504   21123982.5874
  10017092.90344   7805527.39744  23541166.9854   23541166.6684
   7833209.42444   6103797.82744  21825230.5204   21825230.1284
 96  3 16  3 46 30.0000000  0  6G 6G17G16G24G 5G20
  -7971037.70444  -6211197.20244  21076779.9564   21076779.1464
 -10326684.68444  -8046760.60644  23084842.6364   23084842.7714
  -2075251.40444  -1617076.84444  21128580.7654   21128580.6864
  10095061.74444   7866282.34444  23556003.2784   23556002.5544
   7920615.82644   6171906.69644  21841863.2184   21841862.6764
    326214.58044    254193.65644  20726115.6994   20726115.5234
 96  3 16  3 47  0.0000000  0  6G20G 6G17G16G24G 5
    368328.12544    287009.39844  20734129.6774   20734129.5564
  -8021250.57644  -6250324.10944  21067224.9324   21067224.0964
 -10400195.38444  -8104041.64244  23070854.2964   23070853.9014
  -2050510.48144  -1597798.20344  21133288.9574   21133288.8794
  10173024.00944   7927032.15144  23570839.8484   23570840.8194
   8008322.49544   6240249.54344  21858553.2764   21858553.6564
 96  3 16  3 47 30.0000000  0  7G23G20G 6G17G16G24G 5
        -0.57354        -0.74454  25267574.9774   25267580.8974
    410989.76944    320252.22944  20742248.0054   20742247.8114
  -8071283.74544  -6289310.99644  21057703.9534   21057703.1604
 -10473495.95644  -8161158.94944  23056906.1274   23056907.3134
  -2025175.51044  -1578056.66444  21138109.8834   21138109.5734
  10251001.77144   7987794.02844  23585678.9504   23585678.0374
   8096347.95744   6308840.79844  21875303.8064   21875303.7484
 96  3 16  3 48  0.0000000  0  7G23G20G 6G17G16G24G 5
   -107338.50744    -83640.71244  25247149.3204   25247153.5904
    454188.49944    353913.57144  20750468.3244   20750468.1304
  -8121145.16744  -6328164.04744  21048215.4374   21048214.6924
 -10546601.79444  -8218124.50744  23042994.0274   23042995.3534
  -1999252.56744  -1557856.96344  21143042.7874   21143042.8024
  10328982.13244   8048557.93044  23600517.9614   23600517.4164
   8184708.65844   6377693.28044  21892118.8774   21892118.7284
 96  3 16  3 48 30.0000000  0  7G23G20G 6G17G16G24G 5
   -214674.75344                  25226722.8394
    497925.87044    387994.63144  20758791.2194   20758791.0954
  -8170851.92944  -6366896.58844  21038756.9104   21038755.8114
 -10619511.80444  -8274937.46544  23029119.5754   23029120.9014
  -1972737.20744  -1537195.64444  21148088.6504   21148088.3114
  10406946.59644   8109309.47444  23615354.1014   23615353.5254
   8273418.48244   6446817.80044  21908999.8374   21908999.8794
 96  3 16  3 49  0.0000000  0  7G23G20G 6G17G16G24G 5
   -321986.65944   -250898.87644  25206303.7284
    542215.23144    422505.80944  20767219.2234   20767219.3184
  -8220390.79244  -6405498.29944  21029330.1784   21029329.2694
 -10692212.09444  -8331587.02544  23015285.7184   23015286.0384
  -1945633.34244  -1516075.74644  21153246.3044   21153246.2154
  10484901.77944   8170053.78244  23630188.0724   23630186.9874
   8362483.54044   6516219.12244  21925947.6564   21925947.9954
 96  3 16  3 49 30.0000000  0  7G23G 6G20G17G16G24G 5
   -429282.29044   -334505.78544  25185887.0374   25185888.7214
  -8269768.54044  -6443974.46144  21019933.4644   21019932.9104
    587054.00144    457445.09844  20775751.4884   20775751.5394
 -10764706.42644  -8388076.08944  23001489.8774   23001489.8964
  -1917962.69144  -1494514.19944  21158511.7604   21158511.9964
  10562829.86744   8230776.94444  23645017.8654   23645017.9494
   8451896.92544   6585891.86044  21942962.5854   21942962.5814
 96  3 16  3 50  0.0000000  0  7G23G20G 6G17G16G24G 5
   -536566.74044                  25165470.2374
    632419.83344    492795.08544  20784384.6874   20784384.5814
  -8318993.64844  -6482331.68544  21010566.1044   21010565.5024
 -10837012.33544  -8444418.34644  22987730.0234   22987730.3234
  -1889748.01244  -1472528.73244  21163880.8174   21163880.4364
  10640704.54944   8291458.51944  23659836.3984   23659836.7134
   8541637.49544   6655819.55444  21960040.0814   21960039.5774
 96  3 16  3 50 30.0000000  0  7G23G20G 6G17G16G24G 5
   -643816.72744                  25145060.6294
    678345.77544    528581.52344  20793124.0774   20793124.1254
  -8368026.94644  -6520539.44944  21001235.7774   21001234.6624
 -10909083.37144  -8500577.56844  22974015.1404   22974016.4784
  -1860976.41044  -1450109.29944  21169355.8814   21169355.7974
  10718562.84644   8352127.32644  23674652.3714   23674653.3764
   8631713.49944   6726008.63744  21977180.8424   21977179.9164
 96  3 16  3 51  0.0000000  0  7G23G20G 6G17G16G24G 5
   -751026.87344   -585215.71144  25124660.1804
    724850.35644    564818.84844  20801973.6704   20801973.4274
  -8416831.55144  -6558569.00844  20991948.6034   20991947.3754
 -10980901.45744  -8556539.67844  22960348.6084   22960350.2254
  -1831640.81944  -1427250.39344  21174938.4684   21174938.2644
  10796433.93344   8412806.06744  23689470.7574   23689469.9974
   8722137.21244   6796468.66144  21994388.0544   21994387.5324
 96  3 16  3 51 30.0000000  0  7G17G23G16G24G 5G20G 6
 -11052479.14344  -8612314.46844  22946727.9584   22946729.2354
   -858219.28944                  25104261.7264
  -1801751.52344  -1403960.02944  21180626.1144   21180626.2904
  10874310.24344   8473488.92344  23704290.9394   23704290.3964
   8812881.47544   6867178.46144  22011656.0764   22011655.9874
    771904.08244    601484.07944  20810927.3454   20810927.3994
  -8465416.55544  -6596427.45344  20982703.0904   20982702.2434
 96  3 16  3 52  0.0000000  0  7G17G23G16G24G 5G20G 6
 -11123819.67844  -8667904.45644  22933152.8194   22933153.2364
   -965402.94344                  25083865.1344
  -1771312.34644  -1380241.19244  21186418.3884   21186418.0384
  10952202.50844   8534184.19944  23719112.4654   23719113.4854
   8903927.90244   6938123.71444  22028981.5984   22028981.2554
    819506.58744    638576.92944  20819985.9814   20819985.6714
  -8513771.20644  -6634106.39744  20973501.2324   20973500.2394
 96  3 16  3 52 30.0000000  0  7G17G23G16G24G 5G20G 6
 -11194954.72444  -8723334.34844  22919616.7054   22919615.7744
  -1072619.45044   -835807.24244  25063461.8894
  -1740341.74044  -1356108.24544  21192311.8864   21192311.7354
  11030085.21544   8594872.00244  23733933.1894   23733932.5854
   8995247.12644   7009281.52744  22046358.5364   22046358.6654
    867642.69744    676085.57444  20829145.9154   20829145.7474
  -8561917.90544  -6671623.30744  20964339.1304   20964338.2024
 96  3 16  3 53  0.0000000  0  7G17G23G16G24G 5G20G 6
 -11265888.10744  -8778607.09444  22906117.8914   22906117.5544
  -1179856.01144   -919368.06944  25043056.0584   25043060.2554
  -1708811.27344  -1331539.05144  21198311.8794   21198311.8794
  11107955.47644   8655550.11444  23748752.0784   23748750.1794
   9086856.77444   7080665.64644  22063791.5494   22063791.5644
    916315.62244    714012.51844  20838408.1394   20838408.4594
  -8609845.13944  -6708969.20044  20955219.0654   20955218.1134
 96  3 16  3 53 30.0000000  0  7G17G23G16G24G 5G20G 6
 -11336634.36744  -8833734.02244  22892655.4274   22892656.0034
  -1287118.43244  -1002949.04444  25022643.9474
  -1676723.88344  -1306535.88744  21204417.9304   21204417.8154
  11185805.80144   8716212.68844  23763566.6374   23763565.6564
   9178746.13044   7152267.71944  22081277.7154   22081278.1234
    965501.58944    752339.23244  20847767.9714   20847767.9944
  -8657570.27344  -6746157.61244  20946137.5084   20946136.5024
 96  3 16  3 54  0.0000000  0  7G23G17G16G24G 5G20G 6
  -1394627.77144                  25002232.4944
 -11407191.00844  -8888713.18844  22879229.0724   22879229.5064
  -1644069.62044  -1281091.00244  21210631.9474   21210631.5634
  11263628.40244   8776853.69644  23778375.1754   23778374.9804
   9270931.88044   7224100.74744  22098820.2714   22098820.2684
   1015208.39844    791071.79844  20857227.0014   20857227.0734
  -8705088.63344  -6783184.90244  20937094.8774   20937094.0774
 96  3 16  3 54 30.0000000  0  7G17G23G16G24G 5G20G 6
 -11477542.14544  -8943532.21544  22865841.6384   22865841.1494
  -1502633.50644                  24981819.5014
  -1610825.14544  -1255186.21844  21216958.3624   21216958.0174
  11341434.69544   8837481.97244  23793181.3404   23793181.6604
   9363446.20644   7296189.80344  22116425.4714   22116425.5634
   1065437.07644    830211.01344  20866785.1044   20866785.3274
  -8752377.08644  -6820033.04444  20928096.2334   20928095.3094
 96  3 16  3 55  0.0000000  0  6G17G16G24G 5G20G 6
 -11547690.77244  -8998193.45944  22852492.4044   22852492.0684
  -1577005.30744  -1228833.09344  21223393.9554   21223393.6654
  11419228.84044   8898100.79544  23807984.2964   23807984.6224
   9456263.84144   7368515.21744  22134087.7324   22134087.2204
   1116168.26144    869741.79444  20876438.9104   20876439.1564
  -8799441.49044  -6856706.60644  20919140.4494   20919139.5344
 96  3 16  3 55 30.0000000  0  7G23G17G16G24G 5G20G 6
        -0.40654         0.03254  24941019.1934
 -11617586.96144  -9052658.00044  22839191.2954   22839191.8914
  -1542585.35444  -1202012.34644  21229943.6154   21229943.6034
  11497060.91744   8958749.14544  23822796.3224   23822793.0524
   9549414.80244   7441100.36444  22151813.6284   22151813.3084
   1167443.45644    909696.47744  20886196.3994   20886196.3154
  -8846245.66944  -6893177.39344  20910233.8224   20910232.6654
 96  3 16  3 56  0.0000000  0  7G23G17G16G24G 5G20G 6
   -107151.66644    -83494.36944  24920628.7484   24920633.4874
 -11687244.88944  -9106936.88344  22825935.9354   22825935.6054
  -1507590.81844  -1174743.88044  21236602.7054   21236602.5644
  11574907.05544   9019408.44844  23837609.6234   23837607.8974
   9642870.22144   7513922.74544  22169597.4854   22169597.3444
   1219252.04444    950066.79544  20896055.1554   20896055.1304
  -8892806.08444  -6929458.23344  20901373.3524   20901372.3874
 96  3 16  3 56 30.0000000  0  7G23G17G16G24G 5G20G 6
   -214287.82744   -166977.02544  24900240.5104   24900246.7884
 -11756688.50744  -9161048.75344  22812721.3744   22812721.8824
  -1472056.36444  -1147054.69344  21243365.1284   21243364.9354
  11652761.12644   9080073.93644  23852424.0474   23852423.7384
   9736596.53644   7586956.22644  22187433.2884   22187433.2894
   1271569.83844    990833.89444  20906010.7684   20906010.6104
  -8939159.24944  -6965577.58244  20892552.8964   20892551.9074
 96  3 16  3 57  0.0000000  0  7G23G17G16G24G 5G20G 6
   -321393.90044   -250436.23044  24879858.1114   24879862.6394
 -11825903.94544  -9214982.83644  22799550.2794   22799551.8124
  -1435989.54244  -1118950.67144  21250228.2744   21250228.4034
  11730621.61744   9140744.46044  23867241.5904   23867240.1744
   9830595.53144   7660202.16844  22205320.4984   22205320.8384
   1324409.10244   1032007.33444  20916065.7864   20916065.6354
  -8985313.62544  -7001542.03044  20883769.8164   20883769.1374
 96  3 16  3 57 30.0000000  0  7G23G17G16G24G 5G20G 6
   -428456.57044   -333861.63844  24859485.4674   24859490.4614
 -11894883.55244  -9268733.14044  22786423.3754   22786424.4134
  -1399399.15144  -1090438.67844  21257191.0404   21257191.0924
  11808470.19744   9201405.69844  23882054.9794   23882055.1294
   9924878.23944   7733669.18244  22223262.4854   22223262.2364
   1377772.00044   1073588.80344  20926220.4174   20926220.5254
  -9031282.24044  -7037361.72544  20875022.3284   20875021.5124
 96  3 16  3 58  0.0000000  0  7G20G23G 6G17G16G24G 5
   1431640.98244   1115564.62144  20936471.3534   20936471.6124
   -535487.17744   -417262.04844  24839119.0924   24839122.7664
  -9077073.67044  -7073043.35344  20866308.8654   20866307.6654
 -11963660.85244  -9322325.80744  22773335.7064   22773336.4674
  -1362293.73744  -1061525.36644  21264252.4134   21264252.4524
  11886287.77144   9262042.76044  23896864.1094   23896863.9164
  10019446.00544   7807358.33744  22241257.6264   22241258.1484
 96  3 16  3 58 30.0000000  0  7G23G17G16G24G 5G20G 6
   -642468.04044   -500623.71844  24818759.8164   24818764.4204
 -12032235.13544  -9375760.27844  22760286.4114   22760286.8264
  -1324663.84744  -1032203.36844  21271412.8834   21271412.9614
  11964078.25544   9322658.73244  23911667.0414   23911665.3664
  10114306.16544   7881275.31444  22259309.2304   22259309.6434
   1486010.96744   1157930.83244  20946817.8144   20946818.1094
  -9122674.87244  -7108576.76044  20857630.9444   20857629.9114
 96  3 16  3 59  0.0000000  0  7G23G17G16G24G 5G20G 6
   -749427.04544   -583968.30944  24798405.6204   24798406.0564
 -12100616.85444  -9429044.70744  22747274.2114   22747274.1964
  -1286533.61244  -1002491.49944  21278668.6244   21278668.5164
  12041807.34844   9383226.84144  23926457.6574   23926457.2324
  10209423.41144   7955392.62944  22277409.5004   22277409.0854
   1540858.52444   1200669.17444  20957254.6894   20957254.9634
  -9168089.28044  -7143964.61344  20848988.9004   20848987.9664
 96  3 16  3 59 30.0000000  0  7G23G17G16G24G 5G20G 6
   -856328.76944   -667268.27244  24778062.4574   24778065.6234
 -12168776.90244  -9482156.42044  22734303.3704   22734303.9584
  -1247843.29944   -972343.20044  21286031.1664   21286030.9084
  12119525.59344   9443786.47244  23941246.6504   23941246.3584
  10304820.12744   8029727.71244  22295562.9924   22295562.9284
   1596223.78244   1243810.91944  20967790.5464   20967790.6204
  -9213266.16844  -7179167.37944  20840391.8984   20840391.4504
 96  3 16  4  0  0.0000000  0  7G23G17G16G24G 5G20G 6
   -963193.72444   -750539.57344  24757726.7344   24757728.4474
 -12236737.39444  -9535112.62344  22721371.2814   22721371.3134
  -1208587.85444   -941754.53944  21293501.5514   21293501.8184
  12197228.67844   9504334.33944  23956033.0684   23956032.5834
  10400467.13144   8104257.83744  22313763.3704   22313763.7004
   1652094.45444   1287346.49444  20978422.4754   20978422.4614
  -9258193.47744  -7214175.66144  20831842.6444   20831841.6614
 96  3 16  4  0 30.0000000  0  7G20G23G 6G17G16G24G 5
   1708489.10544   1331290.36544  20989154.0834   20989153.9214
  -1070005.27744   -833769.28944  24737400.6724   24737405.2214
  -9302856.54744  -7248978.05044  20823343.5214   20823342.5414
 -12304462.40444  -9587885.32044  22708483.4724   22708484.0214
  -1168765.07044   -910723.79744  21301079.8704   21301079.5794
  12274916.75944   9564870.51344  23970817.2254   23970817.5844
  10496341.74644   8178965.31144  22332008.0424   22332008.3724
 96  3 16  4  1  0.0000000  0  7G20G23G 6G17G16G24G 5
   1765407.06744   1375642.01044  20999985.3624   20999985.4524
  -1176768.85244   -916961.55644  24717085.5444   24717090.1814
  -9347263.03144  -7283580.50744  20814893.2454   20814892.1384
 -12371955.19744  -9640477.08344  22695640.1094   22695639.8184
  -1128389.66444   -879262.43844  21308762.7524   21308762.5854
  12352573.57644   9625382.29644  23985593.6724   23985593.4104
  10592438.86544   8253846.16144  22350295.1374   22350295.4384
 96  3 16  4  1 30.0000000  0  7G20G23G 6G17G16G24G 5
   1822837.42344   1420392.92644  21010913.8064   21010913.9544
  -1283481.23944  -1000113.96844  24696778.6614   24696782.8264
  -9391417.25544  -7317986.39844  20806490.9274   20806490.0284
 -12439239.08644  -9692906.05644  22682836.9814   22682836.8984
  -1087470.23844   -847377.16944  21316549.0714   21316549.0014
  12430189.74344   9685862.41744  24000364.1434   24000363.4744
  10688776.02544   8328914.07444  22368627.0304   22368627.2444
 96  3 16  4  2  0.0000000  0  7G20G23G 6G17G16G24G 5
   1880777.97244   1465541.39344  21021939.5874   21021939.7424
  -1390130.12744  -1083216.89744  24676484.0124   24676491.2654
  -9435322.68744  -7352198.41944  20798136.2044   20798134.9194
 -12506301.67744  -9745162.59244  22670075.3984   22670075.3014
  -1046030.18344   -815086.21744  21324435.0954   21324434.9674
  12507754.40144   9746302.41244  24015124.8534   24015124.6674
  10785372.51244   8404184.02544  22387008.8614   22387008.3584
 96  3 16  4  2 30.0000000  0  7G20G23G 6G17G16G24G 5
   1939216.82544   1511078.15144  21033059.7494   21033060.2184
  -1496705.95144  -1166262.87944  24656203.9064   24656208.2964
  -9478999.98144  -7386232.67444  20789824.6534   20789823.6184
 -12573133.59144  -9797239.38044  22657357.8224   22657357.5254
  -1004081.59044   -782399.00144  21332417.4254   21332417.1844
  12585265.93944   9806701.01844  24029873.2144   24029873.6304
  10882241.36644   8479666.23944  22405442.6664   22405442.2234
 96  3 16  4  3  0.0000000  0  7G20G23G 6G17G16G24G 5
   1998136.63944   1556989.67844  21044271.7914   21044272.2634
  -1603222.86244  -1249262.96044  24635933.8364   24635936.1754
  -9522459.50844  -7420097.23744  20781554.6164   20781553.7064
 -12639760.68444  -9849156.57444  22644678.3304   22644678.7164
   -961618.48944   -749310.87044  21340497.8614   21340497.8764
  12662738.58144   9867069.30544  24044616.6524   24044615.2664
  10979390.70644   8555367.01344  22423929.2984   22423929.1474
 96  3 16  4  3 30.0000000  0  7G20G23G 6G17G16G24G 5
   2057535.63044   1603274.59044  21055575.3444   21055575.6954
  -1709691.50944  -1332225.41244  24615675.2924   24615679.2914
  -9565704.26944  -7453794.45344  20773325.2674   20773324.1264
 -12706185.92944  -9900916.46744  22632038.1314   22632037.3754
   -918632.28044   -715815.11844  21348678.0124   21348678.1644
  12740192.62644   9927423.11644  24059356.4544   24059355.1544
  11076806.26544   8631275.20844  22442466.7824   22442466.9044
 96  3 16  4  4  0.0000000  0  7G20G23G 6G17G16G24G 5
   2117433.15944   1649947.97844  21066973.3354   21066973.2844
  -1816101.17844  -1415141.94944  24595424.2534   24595428.2474
  -9608722.09844  -7487314.83744  20765138.9964   20765137.9624
 -12772379.35144  -9952495.73444  22619442.2924   22619441.8144
   -875085.38744   -681882.47144  21356964.5504   21356964.3874
  12817648.85044   9987778.61544  24074095.9674   24074095.9384
  11174479.44644   8707384.16344  22461053.7674   22461054.1234
 96  3 16  4  4 30.0000000  0  7G20G23G 6G17G16G24G 5
   2177813.62044   1696997.67744  21078464.1124   21078463.9774
  -1922465.02544  -1498022.76044  24575183.1954   24575190.2294
  -9651514.29044  -7520659.40244  20756996.1434   20756995.1124
 -12838354.40144 -10003904.83644  22606887.4204   22606888.3904
   -830970.87944   -647507.53044  21365359.7874   21365359.5314
  12895113.32644  10048140.51144  24088836.5124   24088836.8544
  11272387.21144   8783675.92344  22479684.6074   22479684.6774
 96  3 16  4  5  0.0000000  0  7G20G23G 6G17G16G24G 5
   2238681.48044   1744427.16444  21090046.5714   21090046.2804
  -2028788.18444  -1580871.86844  24554951.1584   24554955.2364
  -9694058.26744  -7553810.55144  20748900.4054   20748899.4434
 -12904121.61644 -10055151.99144  22594372.1824   22594372.1314
   -786292.74844   -612693.40444  21373861.0104   21373861.3384
  12972589.64544  10108511.65844  24103580.1354   24103581.1264
  11370524.85144   8860146.78344  22498359.7554   22498359.5644
 96  3 16  4  5 30.0000000  0  7G20G23G 6G17G16G24G 5
   2300043.20144   1792241.48144  21101723.2394   21101723.2354
  -2135061.90444  -1663682.43744  24534727.5834   24534730.9314
  -9736346.10444  -7586762.11044  20740853.2044   20740851.9774
 -12969665.01344 -10106224.73844  22581899.1224   22581899.5794
   -741068.94344   -577454.07344  21382466.8994   21382467.2034
  13050061.86744  10168879.65644  24118321.8614   24118323.8184
  11468884.85244   8936790.91644  22517077.1454   22517076.4684
 96  3 16  4  6  0.0000000  0  7G20G23G 6G17G16G24G 5
   2361896.91244   1840439.16444  21113493.3534   21113493.8234
  -2241266.48344  -1746439.21944  24514517.5504   24514518.9394
  -9778370.13644  -7619508.10944  20732856.3874   20732855.3594
 -13034984.71944 -10157123.18644  22569469.2494   22569470.1534
   -695324.77244   -541809.26644  21391172.4264   21391172.2114
  13127514.75344  10229232.53144  24133061.1984   24133063.5994
  11567478.49744   9013617.11844  22535838.7594   22535838.2954
 96  3 16  4  6 30.0000000  0  7G20G23G 6G17G16G24G 5
   2424233.42044   1889013.05444  21125355.7524   21125356.3154
  -2347393.86944  -1829135.79444  24494322.1364   24494324.2874
  -9820122.11644  -7652042.11944  20724911.1044   20724910.2724
 -13100090.51244 -10207854.94944  22557080.0564   22557080.3854
   -649104.13644   -505793.18644  21399967.4854   21399967.1244
  13204943.16744  10289566.30344  24147794.2344   24147796.2344
  11666311.85744   9090630.11344  22554646.7074   22554646.3214
 96  3 16  4  7  0.0000000  0  7G20G23G 6G17G16G24G 5
   2487066.62744   1937973.98144  21137312.2734   21137312.5724
  -2453443.96244  -1911772.14844  24474142.6534   24474144.4554
  -9861598.02544  -7684361.01044  20717018.3794   20717017.4164
 -13164981.96044 -10258419.68944  22544731.5454   22544732.1164
   -602415.23444   -469412.22344  21408852.2424   21408851.9104
  13282340.35944  10349875.76844  24162522.5514   24162524.7794
  11765385.57244   9167830.39544  22573499.3124   22573499.2774
 96  3 16  4  7 30.0000000  0  7G20G23G 6G17G16G24G 5
   2550400.27144   1987324.86044  21149364.3464   21149364.7514
  -2559394.12244  -1994330.63844  24453980.5874   24453983.0264
  -9902807.16144  -7716472.02744  20709176.8864   20709175.7364
 -13229639.91544 -10308802.48844  22532427.5404   22532427.6044
   -555255.60444   -432664.45944  21417826.2394   21417826.5584
  13359705.15544  10410159.99244  24177245.8214   24177242.6624
  11864710.49044   9245226.41544  22592400.8044   22592400.6884
 96  3 16  4  8  0.0000000  0  7G20G23G 6G17G16G24G 5
   2614219.15844   2037053.84944  21161508.8684   21161509.3894
  -2665236.98444  -2076805.54144  24433838.6544   24433840.7294
  -9943753.37544  -7748378.16444  20701385.0034   20701384.1774
 -13294066.99344 -10359005.38344  22520167.6644   22520168.3294
   -507602.90644   -395532.49244  21426894.2764   21426894.6584
  13437045.31944  10470425.07944  24191964.0374   24191961.1214
  11964293.21844   9322823.32144  22611350.1094   22611350.4524
 96  3 16  4  8 30.0000000  0  7G20G23G 6G17G16G24G 5
   2678493.67844   2087137.87544  21173739.6554   21173740.0064
  -2771004.94044  -2159222.09844  24413711.5244   24413713.3034
  -9984457.30444  -7780095.51044  20693639.3414   20693638.5834
 -13358272.83944 -10409035.88944  22507949.4324   22507950.0444
   -459440.43144   -358003.28644  21436059.6054   21436059.5174
  13514350.34444  10530662.77844  24206673.8234   24206673.1814
  12064100.41044   9400595.13644  22630342.8804   22630343.1074
 96  3 16  4  9  0.0000000  0  7G20G23G 6G17G16G24G 5
   2743234.77144   2137585.46644  21186059.6694   21186060.1054
  -2876686.38544  -2241571.18144  24393603.1444   24393602.6674
 -10024919.62844  -7811624.59044  20685939.4064   20685938.6194
 -13422242.32344 -10458882.21644  22495776.9414   22495776.3234
   -410740.65144   -320055.40644  21445326.3054   21445326.6324
  13591632.71344  10590882.80744  24221381.0384   24221378.2704
  12164132.79444   9478542.43944  22649378.3034   22649378.6754
 96  3 16  4  9 30.0000000  0  7G20G23G 6G17G16G24G 5
   2808412.72244   2188373.46644  21198463.0334   21198462.9594
  -2982279.60744  -2323851.58644  24373508.3254   24373508.7494
 -10065152.10344  -7842974.57344  20678283.4534   20678282.1904
 -13485985.37744 -10508552.10444  22483646.9764   22483646.8294
   -361512.03744   -281695.44444  21454694.4794   21454694.4254
  13668875.90544  10651072.32444  24236078.9464   24236078.1914
  12264372.62444   9556651.36944  22668453.5344   22668454.2734
 96  3 16  4 10  0.0000000  0  7G20G23G 6G17G16G24G 5
   2874024.26844   2239499.33544  21210948.4904   21210948.2624
  -3087795.33544  -2406071.56944  24353430.0764   24353431.3244
 -10105147.49444  -7874139.81344  20670672.3944   20670671.4644
 -13549510.29944 -10558052.03344  22471558.1474   22471558.4294
   -311756.15044   -242924.62244  21464162.8294   21464162.3194
  13746076.91344  10711228.95344  24250770.0894   24250769.7244
  12364795.98544   9634903.31644  22687563.4844   22687563.4964
 96  3 16  4 10 30.0000000  0  7G20G23G 6G17G16G24G 5
   2940083.03044   2290973.68644  21223519.0014   21223518.5944
  -3193212.97644  -2488215.13844  24333370.2884   24333373.1484
 -10144882.01344  -7905101.77244  20663111.4084   20663110.7824
 -13612812.83644 -10607378.65344  22459512.0054   22459512.3744
   -261481.12344   -203749.27744  21473729.8744   21473729.9924
  13823251.49044  10771364.95444  24265455.6504   24265455.9754
  12465410.09744   9713303.91444  22706709.8154   22706709.6684
 96  3 16  4 11  0.0000000  0  7G20G23G 6G17G16G24G 5
   3006564.98444   2342777.79344  21236169.8314   21236169.8044
  -3298549.70344  -2570295.64444  24313324.0194   24313326.0474
 -10184376.49544  -7935876.68944  20655595.6664   20655595.1624
 -13675937.59744 -10656566.74844  22447499.8814   22447500.4204
   -210730.72344   -164203.51244  21483387.4994   21483387.5204
  13900366.28144  10831454.40644  24280129.4214   24280131.1144
  12566200.01144   9791841.49644  22725889.8524   22725889.7094
 96  3 16  4 11 30.0000000  0  7G20G23G 6G17G16G24G 5
   3073477.67844   2394917.54344  21248903.0914   21248903.2014
  -3403801.44944  -2652309.96444  24293295.2934   24293295.6164
 -10223610.46644  -7966448.61544  20648129.8014   20648129.0424
 -13738881.10744 -10705613.61944  22435522.0154   22435522.4404
   -159486.47844   -124272.92644  21493138.9154   21493138.9284
  13977428.94344  10891503.21244  24294793.9844   24294796.5884
  12667175.27144   9870523.48244  22745104.5204   22745105.3314
 96  3 16  4 12  0.0000000  0  7G20G23G 6G17G16G24G 5
   3140842.45844   2447409.56644  21261722.0944   21261722.4324
  -3508962.91844  -2734253.95044  24273284.1864   24273284.7954
 -10262557.30744  -7996796.80344  20640718.8094   20640717.4944
 -13801628.53044 -10754507.69544  22423581.3954   22423581.4114
   -107743.35844    -83953.61344  21502984.6834   21502985.0874
  14054466.92044  10951532.73444  24309452.1404   24309455.0694
  12768350.75644   9949361.49444  22764357.3684   22764357.0624
 96  3 16  4 12 30.0000000  0  7G20G23G 6G17G16G24G 5
   3208661.87344   2500255.85344  21274627.3474   21274627.7264
  -3614032.47944  -2816126.27844  24253288.8204   24253292.4654
 -10301212.43344  -8026917.68544  20633362.8694   20633361.9074
 -13864181.85944 -10803250.52944  22411677.7464   22411678.1614
    -55504.65344    -43248.13144  21512925.9764   21512925.6294
  14131483.95144  11011545.94144  24324110.4904   24324113.3834
  12869734.46644  10028361.76744  22783650.4604   22783649.9944
 96  3 16  4 13  0.0000000  0  7G20G23G 6G17G16G24G 5
   3276948.27244   2553466.02144  21287622.2974   21287622.6764
  -3719026.69644  -2897939.93244  24233309.7684   24233313.0994
 -10339587.09744  -8056820.01744  20626060.2354   20626059.6944
 -13926523.17244 -10851828.15844  22399815.0594   22399815.4264
     -2779.97444     -2163.96244  21522958.8224   21522958.6704
  14208469.40644  11071534.60944  24338761.0494   24338760.6524
  12971320.99944  10107520.07944  22802981.7154   22802981.2224
 96  3 16  4 13 30.0000000  0  7G20G23G 6G17G16G24G 5
   3345712.57744   2607048.57944  21300707.4564   21300707.4794
  -3823928.86544  -2979681.86044  24213347.1454   24213347.0754
 -10377666.48244  -8086492.25744  20618814.0754   20618813.0484
 -13988619.48744 -10900214.87244  22387998.3824   22387998.0854
     50436.12844     39303.12644  21533085.9284   21533085.5834
  14285438.51544  11131510.55444  24353407.5654   24353406.7144
  13073114.77944  10186839.89544  22822352.3614   22822351.9554
 96  3 16  4 14  0.0000000  0  7G20G23G 6G17G16G24G 5
   3414943.91844   2660995.06244  21313882.0824   21313882.1014
  -3928743.71644  -3061355.72044  24193401.1254   24193404.1534
 -10415462.78844  -8115943.92644  20611621.4364   20611620.3114
 -14050482.95044 -10948420.14344  22376226.6444   22376226.9124
    104128.55344     81141.37944  21543303.1884   21543302.6514
  14362379.40744  11191464.47744  24368049.4894   24368047.6744
  13175112.24744  10266318.40744  22841761.6114   22841761.1644
 96  3 16  4 14 30.0000000  0  7G20G23G 6G17G16G24G 5
   3484639.06044   2715302.95444  21327144.6004   21327144.6834
  -4033462.58944  -3142954.77744  24173473.8194   24173473.6654
 -10452989.77344  -8145185.73144  20604480.6604   20604479.3544
 -14112121.18544 -10996449.91344  22364497.3404   22364497.2494
    158305.54944    123357.21944  21553612.3984   21553612.2324
  14439281.42244  11251388.12044  24382683.1914   24382681.5944
  13277314.22044  10345956.28544  22861210.3944   22861210.2754
 96  3 16  4 15  0.0000000  0  7G20G23G 6G17G16G24G 5
   3554783.99344   2769961.33144  21340492.4764   21340492.6544
  -4138073.57544  -3224469.82944  24153568.2994   24153566.8444
 -10490243.75844  -8174214.80744  20597391.2044   20597390.5974
 -14173535.47544 -11044305.18344  22352810.5614   22352810.6164
    212974.87644    165956.69444  21564015.6794   21564015.3364
  14516148.66744  11311284.73244  24397310.3014   24397309.2664
  13379717.95244  10425751.37644  22880697.0504   22880697.3064
 96  3 16  4 15 30.0000000  0  7G20G23G 6G17G16G24G 5
   3625385.19844   2824975.24244  21353927.5484   21353927.8934
  -4242534.57144  -3305868.00844  24133690.2424   24133690.7404
 -10527190.10244  -8203004.16644  20590360.8604   20590359.8274
 -14234726.07744 -11091986.15144  22341165.7474   22341166.3644
    268169.59244    208965.56444  21574519.0864   21574518.8804
  14593003.66544  11371171.77444  24411936.1394   24411936.4274
  13482343.26644  10505719.13244  22900225.9804   22900225.9124
 96  3 16  4 16  0.0000000  0  7G20G23G 6G17G16G24G 5
   3696426.81844   2880332.34344  21367446.5264   21367446.6254
  -4346858.06944  -3387158.99444  24113838.0384   24113838.3914
 -10563848.18344  -8231568.90844  20583384.8604   20583384.0624
 -14295708.09644 -11139504.59844  22329561.3424   22329561.2984
    323861.58344    252361.92044  21585116.9164   21585117.1464
  14669828.03744  11431034.93444  24426553.4224   24426556.2164
  13585158.16744  10585834.61044  22919790.4554   22919790.4044
 96  3 16  4 16 30.0000000  0  7G20G23G 6G17G16G24G 5
   3767899.14644   2936025.05944  21381047.1874   21381047.0704
  -4451035.85544  -3468336.45144  24094012.9474   24094012.3244
 -10600216.40344  -8259907.77844  20576464.1354   20576463.1474
 -14356464.40244 -11186847.14044  22317999.5194   22317999.3044
    380028.98544    296128.72644  21595805.4594   21595804.9694
  14746622.98644  11490875.12744  24441164.3454   24441164.4634
  13688148.94644  10666087.13744  22939389.6744   22939389.7944
 96  3 16  4 17  0.0000000  0  7G20G23G 6G17G16G24G 5
   3839829.59444   2992074.74944  21394735.2204   21394735.1524
  -4555043.21744  -3549381.14744  24074220.7844   24074221.2434
 -10636256.38944  -8287990.88944  20569606.1224   20569605.0664
 -14416954.71844 -11233982.43444  22306488.8714   22306489.2694
    436692.25144    340281.92144  21606587.8134   21606587.7494
  14823413.23844  11550711.57844  24455778.8054   24455781.9844
  13791338.00144  10746494.18144  22959025.7274   22959025.9894
 96  3 16  4 17 30.0000000  0  7G20G23G 6G17G16G24G 5
   3912196.20044   3048464.30044  21408505.8034   21408505.8894
  -4658924.61144  -3630327.65144  24054453.1634   24054454.7474
 -10672012.69944  -8315852.95044  20562801.9764   20562800.7934
 -14477205.77844 -11280931.30044  22295023.7954   22295023.7584
    493806.64744    384786.63444  21617456.6194   21617456.3844
  14900153.78644  11610509.39744  24470382.9374   24470383.1884
  13894681.28444  10827021.37844  22978691.6274   22978691.1234
 96  3 16  4 18  0.0000000  0  7G20G23G 6G17G16G24G 5
   3984979.44644   3105178.50344  21422355.9394   21422356.2514
  -4762704.36644  -3711194.96144  24034704.6524   24034705.7084
 -10707503.60844  -8343508.20244  20556047.7794   20556047.0574
 -14537226.91444 -11327700.99044  22283601.9954   22283601.4824
    551351.26444    429626.59844  21628406.6584   21628406.2874
  14976834.61944  11670260.66644  24484975.7044   24484977.2084
  13998152.24844  10907648.07444  22998380.4314   22998380.7994
 96  3 16  4 18 30.0000000  0  7G20G23G 6G17G16G24G 5
   4058185.97244   3162222.53344  21436286.6254   21436287.0784
  -4866367.45244  -3791971.37144  24014978.1464   24014978.1484
 -10742709.67344  -8370941.49844  20549348.6554   20549347.7614
 -14597020.19644 -11374293.14444  22272223.8464   22272223.3864
    609361.24044    474829.18144  21639445.4284   21639445.3984
  15053477.57744  11729982.38544  24499561.4514   24499562.3144
  14101775.15544  10988393.18744  23018099.9714   23018101.5024
 96  3 16  4 19  0.0000000  0  7G20G23G 6G17G16G24G 5
   4131803.85544   3219587.09344  21450295.9064   21450296.2354
  -4969931.55644  -3872670.67144  23995270.6614   23995270.7124
 -10777645.66344  -8398164.34844  20542700.4254   20542699.6554
 -14656616.39744 -11420731.71844  22260882.8974   22260882.9584
    667841.72444    520398.37744  21650574.3204   21650574.2104
  15130072.99644  11789667.09244  24514137.0124   24514135.1424
  14205536.28044  11069246.00344  23037844.9854   23037845.4314
 96  3 16  4 19 30.0000000  0  7G20G23G 6G17G16G24G 5
   4205837.58444   3277275.69444  21464384.0534   21464384.3204
  -5073382.37244  -3953281.68044  23975584.1184   23975586.2394
 -10812307.94044  -8425173.91644  20536104.4604   20536103.2384
 -14716013.13044 -11467014.86844  22249579.6564   22249579.9664
    726791.91044    566333.58644  21661792.0364   21661791.8544
  15206635.28344  11849326.04144  24528706.0164   24528704.9444
  14309431.94044  11150203.64144  23057615.7344   23057616.2144
 96  3 16  4 20  0.0000000  0  7G20G23G 6G17G16G24G 5
   4280276.09544   3335279.71244  21478549.1184   21478549.4324
  -5176708.01744  -4033795.13544  23955921.1104   23955921.6024
 -10846677.30544  -8451955.24044  20529564.2434   20529563.3234
 -14775210.73144 -11513142.84644  22238315.1654   22238315.0114
    786207.92544    612631.78444  21673098.1834   21673098.3364
  15283174.26744  11908966.84044  24543270.4764   24543268.8564
  14413475.26544  11231276.33244  23077414.7944   23077414.8254
 96  3 16  4 20 30.0000000  0  7G20G23G 6G17G16G24G 5
   4355117.88544   3393597.97144  21492790.9624   21492791.1574
  -5279904.19344  -4114207.71444  23936284.0164   23936283.9384
 -10880750.14944  -8478505.51044  20523080.4104   20523079.4384
 -14834211.81244 -11559117.69144  22227087.8984   22227088.1844
    846091.60644    659294.39144  21684493.6934   21684494.0624
  15359678.70844                  24557829.2854
  14517678.55244  11312473.67944  23097244.4504   23097244.7334
 96  3 16  4 21  0.0000000  0  8G26G20G23G 6G17G16G24G 5
         0.25954                  23967670.9314
   4430358.51944   3452227.01744  21507109.0244   21507108.9334
  -5382976.76044  -4194523.97944  23916671.0984   23916671.5074
 -10914521.96544  -8504821.21444  20516653.6384   20516652.6784
 -14893011.83444 -11604935.87244  22215897.9704   22215898.2544
    906427.36044    706309.25944  21695975.7984   21695975.5504
  15436125.78144                  24572374.0874
  14622039.67244  11393794.01944  23117103.5354   23117103.2394
 96  3 16  4 21 30.0000000  0  8G26G20G23G 6G17G16G24G 5
    -77942.33744                  23952838.5394
   4506065.95344   3511219.80644  21521515.9074   21521515.9204
  -5485837.76544  -4274675.38344  23897096.3684   23897096.7194
 -10947896.25244  -8530827.15344  20510302.7554   20510301.8384
 -14951529.97944 -11650534.41744  22204762.8184   22204763.2624
    967288.39844    753733.44444  21707557.0814   21707557.3304
  15512590.49444  12087734.04144  24586922.4464   24586923.8334
  14726639.76444  11475300.55544  23137007.4874   23137007.8224
 96  3 16  4 22  0.0000000  0  8G26G20G23G 6G17G16G24G 5
   -155738.92244                  23938035.1664
   4582180.02544   3570529.45144  21535999.7134   21535999.9894
  -5588530.22244  -4354695.45744  23877554.9514   23877556.7314
 -10980906.40744  -8556549.35444  20504021.0704   20504020.1394
 -15009814.49644 -11695950.90444  22193671.4694   22193671.5884
   1028641.50644    801541.06244  21719231.8754   21719232.2494
  15589026.63644  12147301.78644  24601470.8584   24601471.1794
  14831437.73244  11556961.30144  23156949.9594   23156949.5184
 96  3 16  4 22 30.0000000  0  7G20G23G 6G17G16G24G 5
   4658609.65944   3630084.99144  21550543.6044   21550544.1694
  -5691144.81744  -4434654.85744  23858027.9134   23858028.8104
 -11013657.17744  -8582069.43644  20497789.1844   20497788.0354
 -15067961.25644 -11741260.04744  22182606.4944   22182606.4324
   1090403.38644    849667.19944  21730984.8414   21730984.9364
  15665341.84544  12206763.50944  24615994.0624   24615995.3954
  14936324.18644  11638690.98344  23176909.2864   23176909.6154
 96  3 16  4 23  0.0000000  0  7G20G23G 6G17G16G24G 5
   4735386.81244   3689911.32844  21565154.2374   21565154.6854
  -5793639.18544  -4514520.58744  23838523.8904   23838525.1484
 -11046116.64544  -8607362.52844  20491612.2464   20491611.1754
 -15125918.44144 -11786421.47044  22171577.5924   22171577.9274
   1152600.95744    898132.83644  21742820.6834   21742820.3864
  15741589.54644  12266176.48144  24630505.4234   24630505.7954
  15041317.16544  11720503.68744  23196889.2674   23196889.9794
 96  3 16  4 23 30.0000000  0  7G20G23G 6G17G16G24G 5
   4812548.58444   3750037.36744  21579837.4294   21579837.7554
  -5895962.85744  -4594253.29444  23819052.6184   23819053.4814
 -11078254.09044  -8632404.69444  20485496.7224   20485495.7544
 -15183642.34744 -11831401.12744  22160593.1274   22160593.2454
   1215262.39344    946959.92944  21754745.1384   21754744.4354
  15817833.21244  12325587.15044  24645014.2434   24645014.4674
  15146448.92244  11802424.51344  23216894.2274   23216894.7334
 96  3 16  4 24  0.0000000  0  7G20G23G 6G17G16G24G 5
   4890121.16244   3810483.50744  21594598.8324   21594598.9674
  -5998105.93444  -4673845.27744  23799615.1714   23799616.4724
 -11110079.32244  -8657203.58344  20479440.7074   20479439.8804
 -15241118.93044 -11876188.06044  22149655.7614   22149655.3794
   1278386.64444    996147.65244  21766757.0284   21766757.0014
  15894086.38044  12385005.20144  24659524.2944   24659523.7144
  15251729.47744  11884461.28244  23236928.8964   23236929.5834
 96  3 16  4 24 30.0000000  0  8G26G20G23G 6G17G16G24G 5
        -0.33454                  23864280.6034
   4968114.65244   3871257.63844  21609440.7724   21609440.4854
  -6100075.41744  -4753301.98444  23780210.8634   23780211.2244
 -11141605.29044  -8681769.27844  20473441.3914   20473440.4304
 -15298351.56944 -11920784.91244  22138764.1954   22138764.8464
   1341956.47844   1045682.59144  21778853.6794   21778853.8764
  15970335.13644                  24674034.7694
  15357166.41344  11966619.91244  23256992.9894   23256993.9404
 96  3 16  4 25  0.0000000  0  8G26G20G23G 6G17G16G24G 5
    -77174.07144                  23849596.3224
   5046481.79344   3932322.92544  21624353.9524   21624353.8214
  -6201921.07244  -4832662.22844  23760830.4984   23760830.4054
 -11172872.51644  -8706133.35144  20467491.3194   20467490.0784
 -15355382.32144 -11965224.44244  22127912.1654   22127912.5844
   1405913.51044   1095519.24044  21791024.4584   21791024.5134
  16046530.87344                  24688532.1254
  15462720.24744  12048869.63344  23277080.5064   23277081.1424
 96  3 16  4 25 30.0000000  0  7G26G20G23G 6G17G16G 5
   -154275.18344                  23834922.4884
   5125232.51544   3993687.10344  21639339.2894   21639339.3514
  -6303656.61244  -4911936.65944  23741470.0734   23741469.1114
 -11203879.91044  -8730294.95944  20461591.0524   20461590.0024
 -15412228.09444 -12009519.83944  22117094.5434   22117094.6324
   1470259.82344   1145659.22644  21803268.9994   21803268.5594
  15568390.87244  12131210.38544  23297188.0564   23297188.5124
 96  3 16  4 26  0.0000000  0  7G26G20G23G 6G17G16G 5
   -231299.94044                  23820265.6264
   5204362.44544   4055346.77144  21654397.1354   21654397.2474
  -6405292.98944  -4991133.79744  23722129.0314   23722129.3454
 -11234623.28444  -8754250.83944  20455740.5944   20455739.5844
 -15468893.91744 -12053675.01344  22106311.7724   22106311.7094
   1534996.23744   1196103.18144  21815587.9834   21815588.0294
  15674169.63544  12213635.39044  23317317.0664   23317317.0364
 96  3 16  4 26 30.0000000  0  7G26G20G23G 6G17G16G 5
   -308243.31244                  23805622.9584
   5283870.79144   4117301.30944  21669526.6524   21669527.1504
  -6506819.25344  -5070245.13644  23702809.7734   23702810.2114
 -11265078.32044  -8777982.04144  20449945.2024   20449944.2364
 -15525370.59244 -12097682.79844  22095564.1114   22095564.1694
   1600137.67744   1246862.73944  21827984.2654   21827983.7774
  15780047.92744  12296137.93944  23337464.9044   23337465.7424
 96  3 16  4 27  0.0000000  0  7G26G20G23G 6G17G16G 5
   -385032.85644                  23791010.0574
   5363806.79744   4179589.09144  21684738.1284   21684738.6094
  -6608165.46944  -5149216.20244  23683524.3384   23683523.8504
 -11295179.57944  -8801437.57044  20444217.1394   20444215.8724
 -15581599.90744 -12141497.83844  22084863.8994   22084864.1854
   1665739.52144   1297981.05644  21840467.6494   21840467.4094
  15886057.94744  12378743.13244  23357638.9364   23357640.0694
 96  3 16  4 27 30.0000000  0  7G26G20G23G 6G17G16G 5
   -461661.77244                  23776427.8784
   5444155.48344   4242198.43544  21700028.4164   21700028.7564
  -6709323.44744  -5228040.57144  23664274.8224   23664275.6474
 -11324927.52544  -8824617.79344  20438556.2464   20438555.3664
 -15637596.57444 -12185131.59344  22074208.8114   22074208.7724
   1731790.83544   1349449.61344  21853036.6144   21853036.5394
  15992183.75944  12461438.53644  23377832.9124   23377835.3644
 96  3 16  4 28  0.0000000  0  7G26G20G23G 6G17G16G 5
   -538114.86144                  23761879.4724
   5524891.74944   4305109.78844  21715392.0414   21715392.1104
  -6810278.94944  -5306707.14644  23645063.9384   23645063.1774
 -11354331.40644  -8847529.90944  20432960.9464   20432959.8274
 -15693360.46444 -12228583.95844  22063596.1914   22063596.4504
   1798273.27744   1401254.11944  21865687.7864   21865687.6984
  16098418.08344  12544218.50344  23398048.6454   23398049.2274
 96  3 16  4 28 30.0000000  0  7G26G20G23G 6G17G16G 5
   -614369.27644                  23747368.6234
   5606022.26944   4368328.35744  21730830.9564   21730831.0794
  -6911007.54444  -5385196.95344  23625895.4904   23625895.1084
 -11383376.93544  -8870162.79244  20427433.7294   20427432.5964
 -15748873.81844 -12271841.11344  22053032.4444   22053033.0804
   1865203.88444   1453407.83444  21878424.2034   21878424.0644
  16204773.85644  12627093.11944  23418286.7344   23418285.8514
 96  3 16  4 29  0.0000000  0  7G26G20G23G 6G17G16G 5
   -690419.51444                  23732897.7284
   5687528.88544   4431839.98744  21746340.7904   21746340.5994
  -7011511.43144  -5463511.61644  23606769.6464   23606771.1594
 -11412064.18744  -8892516.49444  20421974.6774   20421973.7064
 -15804132.16344 -12314899.55044  22042517.6524   22042517.4024
   1932584.67944   1505912.34844  21891246.3934   21891246.3284
  16311261.79744  12710070.72544  23438551.8234   23438552.3144
 96  3 16  4 29 30.0000000  0  7G26G20G23G 6G17G16G 5
   -766292.30144                  23718460.1114
   5769383.79444   4495623.01444  21761917.5364   21761917.5664
  -7111814.32944  -5541669.69744  23587681.7794   23587683.7814
 -11440406.49344  -8914601.40744  20416581.4274   20416580.5894
 -15859151.91344 -12357772.06544  22032047.7934   22032047.8984
   2000399.54744   1558755.09544  21904151.5594   21904151.8184
  16417869.87644  12793141.96444  23458838.2904   23458839.1334
 96  3 16  4 30  0.0000000  0  7G26G20G23G 6G17G16G 5
   -841994.03844                  23704054.1344
   5851583.24844   4559674.51844  21777559.1674   21777559.7574
  -7211931.48644  -5619683.02544  23568630.1854   23568630.7684
 -11468411.93144  -8936423.83044  20411252.1714   20411251.0084
 -15913935.74144 -12400460.75444  22021622.6054   22021623.1504
   2068644.88344   1611933.28544  21917138.3884   21917138.4934
  16524595.44244  12876304.72944  23479148.0784   23479146.9014
 96  3 16  4 30 30.0000000  0  7G26G20G23G 6G17G16G 5
   -917557.68544                  23689675.3084
   5934107.14244   4623978.83244  21793262.8634   21793263.1834
  -7311885.85044  -5697569.51144  23549610.1764   23549609.8284
 -11496076.75844  -8957980.83844  20405987.5924   20405986.7304
 -15968522.56544 -12442995.93544  22011235.4004   22011235.5184
   2137310.61744   1665439.04344  21930204.7514   21930204.9004
  16631414.61844  12959540.42744  23499474.8244   23499476.3544
 96  3 16  4 31  0.0000000  0  7G26G20G23G 6G17G16G 5
   -993013.76644                  23675315.4804
   6016933.63844   4688518.94044  21809024.1054   21809024.5704
  -7411703.53844  -5775349.49444  23530615.9884   23530617.3204
 -11523421.48944  -8979288.42144  20400784.3134   20400783.2274
 -16022957.81244 -12485412.99544  22000876.2464   22000876.5344
   2206352.23844   1719237.70644  21943342.8724   21943342.4614
  16738294.44544  13042823.38344  23519813.2334   23519812.5604
 96  3 16  4 31 30.0000000  0  8G26G20G23G 6G17G16G22G 5
  -1068332.02744   -832466.66444  23660983.5604
   6100106.55444   4753328.98844  21824851.7244   21824852.3404
  -7511356.75444  -5853001.32044  23511652.6484   23511652.4014
 -11550421.87044  -9000327.68044  20395645.8964   20395645.2164
 -16077224.73044 -12527698.89244  21990549.8564   21990550.0104
   2275777.72544   1773335.49044  21956554.4854   21956554.1884
        -0.29254                  24877742.9024
  16845254.35744  13126168.74744  23540167.0704   23540166.3944
 96  3 16  4 32  0.0000000  0  8G26G20G23G 6G17G16G22G 5
  -1143513.47044                  23646674.9954
   6183621.39644   4818405.46844  21840743.8404   21840744.4444
  -7610854.13344  -5930531.72344  23492719.3074   23492718.5774
 -11577088.70544  -9021107.02944  20390571.5864   20390570.5924
 -16131337.53644 -12569864.71044  21980252.4554   21980252.8294
   2345580.36144   1827727.14844  21969837.2364   21969837.2294
    -82272.28644                  24862087.2654
  16952289.20244  13209572.48644  23560535.0484   23560535.4484
 96  3 16  4 32 30.0000000  0  7G26G20G23G 6G17G16G 5
  -1218535.30544   -949508.12444  23632398.8504
   6267495.18344   4883761.64444  21856705.2224   21856705.4814
  -7710168.47744  -6007919.51544  23473819.6544   23473820.5084
 -11603399.68844  -9041609.09644  20385564.9044   20385563.7734
 -16185266.63244 -12611887.37944  21969990.3894   21969990.5454
   2415793.18944   1882438.43644  21983198.4764   21983198.0354
  17059415.13544  13293047.21344  23580920.8414   23580921.4214
 96  3 16  4 33  0.0000000  0  8G26G20G23G 6G17G16G22G 5
  -1293360.69344  -1007813.63744  23618161.5764
   6351744.67244   4949410.57144  21872737.2554   21872737.9704
  -7809286.02344  -6085153.92444  23454958.5594   23454959.6504
 -11629350.47644  -9061830.49044  20380626.4144   20380625.6384
 -16238955.96644 -12653723.21244  21959773.4704   21959773.5194
   2486430.99544   1937480.89044  21996640.3084   21996640.6554
        -1.14354                  24830966.2034
  17166657.57644  13376612.73844  23601327.7234   23601329.2674
 96  3 16  4 33 30.0000000  0  8G26G20G23G 6G17G16G22G 5
  -1367981.89544  -1065960.01444  23603962.3064
   6436368.82244   5015351.45644  21888840.8474   21888841.0144
  -7908204.28444  -6162233.06444  23436135.0564   23436135.1744
 -11654939.06644  -9081769.65444  20375757.3114   20375756.2024
 -16292374.21044 -12695347.80444  21949608.7474   21949608.2584
   2557517.14244   1992872.68544  22010167.5294   22010167.7034
    -81240.78344    -63305.09444  24815505.5694
  17274019.39744  13460271.28944  23621758.3914   23621758.4004
 96  3 16  4 34  0.0000000  0  8G26G20G23G 6G17G16G22G 5
  -1442419.09944  -1123963.03744  23589795.6294
   6521330.80444   5081555.58244  21905008.5184   21905008.6804
  -8006933.27644  -6239164.71144  23417346.2014   23417348.1804
 -11680174.94344  -9101433.98144  20370954.9234   20370954.2544
 -16345525.59644 -12736764.45044  21939493.9984   21939493.7584
   2629046.13744   2048609.55844  22023779.1954   22023779.1904
   -162148.20544   -126349.85944  24800110.4924   24800115.0604
  17381476.06944  13544003.74244  23642206.6124   23642207.2604
 96  3 16  4 34 30.0000000  0  8G26G20G23G 6G17G16G22G 5
  -1516684.34544  -1181832.02844  23575664.1934   23575664.5594
   6606623.08144   5148017.08744  21921239.0284   21921239.3074
  -8105476.75944  -6315951.81544  23398594.6544   23398594.9804
 -11705066.51044  -9120830.00944  20366218.2254   20366217.5274
 -16398413.34644 -12777975.67444  21929429.3094   21929429.8534
   2700984.63844   2104665.52744  22037468.4174   22037468.1374
   -242732.24444   -189142.52544  24784774.5854
  17489006.30144  13627793.51544  23662668.5944   23662668.2874
 96  3 16  4 35  0.0000000  0  8G26G20G23G 6G17G16G22G 5
  -1590801.90244  -1239585.94744  23561560.9734   23561561.0404
   6692220.35344   5214716.24444  21937527.5564   21937527.9894
  -8203864.23444  -6392617.35844  23379872.5524   23379872.9344
 -11729644.04944  -9139981.34144  20361541.3464   20361540.3374
 -16451080.01844 -12819014.62944  21919407.3774   21919407.1454
   2773277.02144   2160997.24644  22051225.4154   22051225.1184
   -323032.77144                  24769494.0384
  17596573.95944  13711612.44244  23683138.3074   23683141.0304
 96  3 16  4 35 30.0000000  0  8G26G20G23G 6G17G16G22G 5
  -1664722.58844  -1297186.48544  23547493.1354   23547493.6034
   6778178.81644   5281696.84744  21953884.9124   21953885.1344
  -8302036.47944  -6469115.18944  23361190.8984   23361191.1394
 -11753857.91744  -9158849.29744  20356933.7064   20356932.7184
 -16503515.56844 -12859873.49144  21909429.4004   21909429.4794
   2845964.24944   2217636.64444  22065056.9434   22065056.5804
   -403008.46044                  24754275.2494
  17704220.05044  13795492.48944  23703623.4144   23703623.1894
 96  3 16  4 36  0.0000000  0  8G26G20G23G 6G17G16G22G 5
  -1738456.30844  -1354641.32744  23533461.8924   23533464.8764
   6864475.00544   5348940.62144  21970306.4454   21970306.8184
  -8400009.19544  -6545457.57744  23342545.6084   23342546.3704
 -11777726.76444  -9177448.40744  20352391.4914   20352390.6284
 -16555771.65844 -12900592.51444  21899485.3614   21899485.4584
   2919005.42444   2274551.84944  22078956.2914   22078956.2034
   -482679.87844                  24739112.3824
  17811929.82444  13879422.14444  23724119.9124   23724121.0854
 96  3 16  4 36 30.0000000  0  8G26G20G23G 6G17G16G22G 5
  -1811987.58744  -1411938.42944  23519469.9464   23519471.6534
   6951115.22944   5416452.47044  21986793.6224   21986793.6334
  -8497777.55944  -6621640.68244  23323940.8354   23323941.8364
 -11801249.12844  -9195777.52144  20347915.3434   20347914.3894
 -16607861.48944 -12941181.98644  21889573.2564   21889572.9024
   2992404.26044   2331745.73644  22092923.6784   22092923.9694
   -562030.33444                  24724013.0334
  17919709.04744  13963405.93344  23744628.3904   23744628.3344
 96  3 16  4 37  0.0000000  0  8G26G20G23G 6G17G16G22G 5
  -1885283.13544  -1469051.82944  23505523.3094   23505522.5474
   7038097.65144   5484230.96144  22003345.5504   22003346.1374
  -8595314.81144  -6697643.71344  23305381.2654   23305381.2814
 -11824397.17644  -9213814.96444  20343510.2894   20343509.4334
 -16659759.39444 -12981621.90744  21879697.3354   21879697.1654
   3066207.48244   2389254.72544  22106967.8724   22106967.9544
   -641031.04544   -499505.15144  24708976.1914
  18027581.74344  14047462.54044  23765155.9364   23765156.3254
 96  3 16  4 37 30.0000000  0  8G26G20G23G 6G17G16G22G 5
  -1958364.86944  -1525998.62244  23491615.9304   23491613.4794
   7125378.33744   5552241.86144  22019954.5754   22019955.1914
  -8692634.44144  -6773477.19144  23286861.6014   23286862.6304
 -11847188.24544  -9231574.24244  20339173.0694   20339172.3414
 -16711475.49144 -13021920.14744  21869855.7034   21869855.4574
   3140400.60944   2447067.54644  22121086.4654   22121086.7854
   -719683.38044   -560792.63544  24694007.5074
  18135522.43044  14131572.14144  23785696.2234   23785696.9334
 96  3 16  4 38  0.0000000  0  8G26G20G23G 6G17G16G22G 5
  -2031234.28344  -1582779.95444  23477749.4254   23477749.5414
   7212955.81444   5620484.02644  22036620.4004   22036621.0494
  -8789733.89844  -6849139.09144  23268385.8224   23268386.3024
 -11869609.79944  -9249045.58844  20334906.7644   20334905.7314
 -16762962.90144 -13062040.19544  21860057.8564   21860058.2424
   3214994.70944   2505192.82144  22135281.3494   22135281.4104
   -797970.09544                  24679112.4034
  18243530.92644  14215734.56444  23806249.8804   23806250.3284
 96  3 16  4 38 30.0000000  0  8G26G20G23G 6G17G16G22G 5
  -2103885.90344  -1639391.62344  23463923.2424   23463922.5434
   7300829.29744   5688956.85444  22053341.8874   22053342.2994
  -8886598.22044  -6924617.76444  23249952.6554   23249952.8974
 -11891663.41944  -9266230.23244  20330710.1364   20330709.1894
 -16814185.47344 -13101953.88444  21850310.5644   21850310.9734
   3290000.08244   2563638.56744  22149554.4354   22149554.1354
   -875890.05844                  24664285.1114
  18351600.37644  14299944.49144  23826814.6254   23826815.2864
 96  3 16  4 39  0.0000000  0  8G26G20G23G 6G17G16G22G 5
  -2176337.10144  -1695847.05744  23450137.0644   23450134.1354
   7388985.58444   5757650.04044  22070117.4924   22070118.1274
  -8983241.30044  -6999924.04644  23231561.3724   23231561.0914
 -11913377.73944  -9283150.48444  20326578.2164   20326577.0224
 -16865150.75644 -13141667.08644  21840612.4774   21840612.3414
   3365376.24744   2622373.23244  22163898.0134   22163897.7984
   -953466.53244                  24649522.4334
  18459701.84644  14384179.37744  23847387.5164   23847387.4714
 96  3 16  4 39 30.0000000  0  8G26G20G23G 6G17G16G22G 5
  -2248611.91244  -1752165.08844  23436382.8284   23436382.3164
   7477423.12844   5826562.39744  22086946.5154   22086946.9524
  -9079697.00844  -7075084.34044  23213207.3744   23213207.6184
 -11934783.13944  -9299830.02144  20322504.7364   20322503.6524
 -16915895.39944 -13181208.35144  21830956.3694   21830956.2654
   3441066.67744   2681352.78344  22178301.4344   22178301.0644
  -1030744.77244   -803178.01144  24634819.8254
  18567808.14944  14468418.02944  23867958.0454   23867959.9114
 96  3 16  4 40  0.0000000  0  8G26G20G23G 6G17G16G22G 5
  -2320696.97244  -1808335.25244  23422666.1254   23422666.5734
   7566158.19244   5895706.59444  22103832.2234   22103832.4684
  -9175958.23344  -7150093.08744  23194888.6384   23194888.1604
 -11955866.57144  -9316258.66944  20318492.6174   20318492.0334
 -16966423.59944 -13220580.95844  21821340.6814   21821340.7114
   3517075.80944   2740580.66344  22192765.1794   22192765.2314
  -1107729.35244   -863165.97444  24620168.3514
  18675931.85644  14552670.23544  23888533.5684   23888533.7444
 96  3 16  4 40 30.0000000  0  8G26G20G23G 6G17G16G22G 5
  -2392593.38044  -1864358.41044  23408984.3254   23408984.5024
   7655165.21544   5965062.70144  22120769.6314   22120770.2124
  -9272027.76744  -7224952.45044  23176607.6874   23176607.3144
 -11976639.40944  -9332445.29744  20314539.7174   20314538.5914
 -17016785.27244 -13259823.80844  21811757.4994   21811757.5654
   3593377.48544   2800036.51044  22207285.0344   22207285.4764
  -1184432.09144                  24605572.4614
  18784059.41844  14636925.44344  23909109.5024   23909111.8894
 96  3 16  4 41  0.0000000  0  8G26G20G23G 6G17G16G22G 5
  -2464290.27344  -1920226.09344  23395340.3964   23395340.9984
   7744460.44944   6034643.38644  22137761.9944   22137762.4834
  -9367903.62544  -7299660.90944  23158363.4444   23158363.6414
 -11997071.44544  -9348366.36944  20310651.8064   20310650.5214
 -17066992.56744 -13298946.35344  21802203.3374   21802203.1564
   3669976.18544   2859723.80644  22221861.6554   22221861.0954
  -1260844.10044                  24591031.3294
  18892205.46844  14721195.05844  23929689.1794   23929688.2134
 96  3 16  4 41 30.0000000  0  8G26G20G23G 6G17G16G22G 5
  -2535758.69844  -1975915.78244  23381741.1264   23381741.0174
   7834062.66344   6104463.27544  22154812.9714   22154813.0414
  -9463563.08144  -7374200.73044  23140160.0494   23140160.5524
 -12017112.38144  -9363982.68344  20306838.0474   20306837.0354
 -17117036.12644 -13337941.33044  21792680.0614   21792679.8834
   3746921.90544   2919681.50944  22236504.1634   22236503.2504
  -1336939.38944                  24576552.1354
  19000400.54044  14805502.87444  23950277.3814   23950278.8314
 96  3 16  4 42  0.0000000  0  8G26G20G23G 6G17G16G22G 5
  -2606995.82344  -2031425.19844  23368184.4004   23368181.3994
   7923947.10844   6174503.08744  22171917.5324   22171917.9374
  -9558998.26944  -7448565.79544  23121998.9734   23121999.1984
 -12036763.04044  -9379294.89144  20303098.5384   20303097.4044
 -17166922.45744 -13376813.78644  21783186.8814   21783186.6814
   3824235.94044   2979926.20944  22251215.9104   22251215.6434
  -1412696.89144                  24562134.2374
  19108632.94644  14889839.79744  23970873.4424   23970872.6354
 96  3 16  4 42 30.0000000  0  8G26G20G23G 6G17G16G22G 5
  -2677961.37444  -2086723.01944  23354680.7194   23354679.4504
   8014140.08644   6244783.30944  22189080.6684   22189080.9014
  -9654191.16344  -7522742.06744  23103884.4714   23103885.0024
 -12056004.11644  -9394287.94144  20299437.2234   20299436.2644
 -17216625.16844 -13415543.15444  21773729.2754   21773728.7654
   3901949.42544   3040482.16544  22266004.4584   22266004.1854
  -1488083.98044                  24547791.2704
  19216923.21944  14974221.79044  23991481.4704   23991481.9944
 96  3 16  4 43  0.0000000  0  8G26G20G23G 6G17G16G22G 5
  -2748646.08244  -2141801.98544  23341230.2744   23341229.7904
   8104658.93444   6315317.46344  22206305.8614   22206306.0384
  -9749144.30044  -7596731.50344  23085815.2294   23085815.8224
 -12074825.92544  -9408954.28444  20295855.5724   20295854.5574
 -17266115.84344 -13454107.29244  21764311.4554   21764311.6384
   3980084.00344   3101366.25344  22280872.7364   22280872.2484
  -1563089.17844  -1217991.72944  24533519.8284
  19325274.85744  15058651.62044  24012099.8884   24012100.1454
 96  3 16  4 43 30.0000000  0  8G26G20G23G 6G17G16G22G 5
  -2819062.54344  -2196671.95244  23327829.1444   23327829.9264
   8195481.86644   6386088.56044  22223588.3234   22223589.0054
  -9843860.28444  -7670536.15644  23067791.9734   23067792.8964
 -12093247.23944  -9423308.55844  20292349.8724   20292348.7724
 -17315390.52744 -13492503.14244  21754934.7574   21754935.0554
   4058630.53844   3162571.33644  22295819.8554   22295820.1984
  -1637696.26844  -1276127.20744  24519324.9644
  19433678.71444  15143122.15344  24032728.1344   24032731.2834
 96  3 16  4 44  0.0000000  0  8G26G20G23G 6G17G16G22G 5
  -2889226.22144  -2251344.93644  23314477.9164   23314478.3504
   8286598.23144   6457088.31944  22240927.1534   22240927.6154
  -9938334.82644  -7744152.66344  23049813.7484   23049814.1794
 -12111281.89644  -9437361.54044  20288918.0004   20288917.1314
 -17364434.13044 -13530718.92644  21745602.0664   21745602.5024
   4137555.28344   3224071.12944  22310839.1644   22310839.0104
  -1711895.50144                  24505205.7994
  19542131.62144  15227630.90944  24053366.2344
 96  3 16  4 44 30.0000000  0  8G26G20G23G 6G17G16G22G 5
  -2959152.22144  -2305832.71544  23301171.7214   23301171.9404
   8378005.29044   6528314.58144  22258321.5084   22258321.8464
 -10032572.99344  -7817584.98044  23031880.5624   23031881.0674
 -12128930.17244  -9451113.44744  20285559.6744   20285558.8034
 -17413238.07344 -13568747.96044  21736315.1734   21736314.8204
   4216826.43644   3285840.85544  22325923.6894   22325923.3974
  -1785707.20044  -1391460.24744  24491155.9514   24491156.5544
  19650623.17644                  24074013.1654
 96  3 16  4 45  0.0000000  0  8G26G20G23G 6G17G16G22G 5
  -3028870.56044  -2360158.65644  23287904.3614   23287904.3234
   8469674.31444   6599744.96444  22275766.2214   22275766.5994
 -10126572.53444  -7890831.36244  23013993.6824   23013993.9064
 -12146190.46744  -9464563.03244  20282275.1834   20282274.0604
 -17461812.57144 -13606598.20744  21727071.2274   21727071.5444
   4296413.88044   3347857.04844  22341068.3764   22341068.6034
  -1859142.47744  -1448682.55744  24477184.1484
  19759130.36044                  24094659.1954
 96  3 16  4 45 30.0000000  0  8G26G20G23G 6G17G16G22G 5
  -3098362.57344  -2414308.25044  23274681.6544   23274681.3714
   8561601.28744   6671376.35544  22293259.1684   22293258.9374
 -10220311.86444  -7963874.97344  22996155.6754   22996155.2284
 -12163043.02344  -9477694.90144  20279068.2324   20279067.3194
 -17510153.67044 -13644266.58444  21717872.3014   21717872.5254
   4376318.61144   3410120.47344  22356273.7354   22356274.0784
  -1932198.21744  -1505609.11344  24463281.8674
  19867663.81844                  24115311.4874
 96  3 16  4 46  0.0000000  0  8G26G20G23G 6G17G16G22G 5
  -3167596.40844  -2468256.67544  23261505.8604   23261506.9874
   8653783.82444   6743206.87844  22310800.9784   22310801.4284
 -10313792.56444  -8036717.05944  22978367.2694   22978367.2594
 -12179478.87044  -9490502.06044  20275940.7024   20275939.8644
 -17558262.79344 -13681754.20344  21708717.4964   21708717.1604
   4456545.37144   3472634.82144  22371540.1694   22371540.6104
  -2004891.63244                  24449448.4374
  19976209.95044                  24135970.1884
 96  3 16  4 46 30.0000000  0  8G26G20G23G 6G17G16G22G 5
  -3236533.40244  -2521973.78444  23248387.5454   23248388.0104
   8746232.57844   6815244.85044  22328393.5864   22328393.6474
 -10407009.99044  -8109354.00544  22960628.3134   22960628.6934
 -12195483.43944  -9502973.15744  20272895.0944   20272893.9654
 -17606132.37544 -13719055.16744  21699608.0154   21699607.5284
   4537131.02444   3535428.82944  22386875.8244   22386875.4504
  -2077216.33944  -1618610.28444  24435683.3224
  20084769.23544                  24156626.0174
 96  3 16  4 47  0.0000000  0  8G26G20G23G 6G17G16G22G 5
  -3305178.39244  -2575463.36744  23235324.7094   23235324.1214
   8838935.25144   6887480.68844  22346034.1324   22346034.4704
 -10499984.19444  -8181801.41044  22942935.4014   22942935.6204
 -12211082.23244  -9515128.06444  20269926.7654   20269926.1144
 -17653788.14644 -13756189.51144  21690539.7304   21690539.3264
   4618067.00144   3598495.82544  22402277.6864   22402277.5964
  -2149179.57544  -1674685.45544  24421989.6064
  20193330.43744                  24177284.2754
 96  3 16  4 47 30.0000000  0  8G26G20G23G 6G17G16G22G 5
  -3373513.46544  -2628711.44444  23222321.0404   23222319.1214
   8931904.86144   6959924.52844  22363725.9264   22363726.4414
 -10592721.49144  -8254064.21444  22925288.6864   22925289.1724
 -12226302.30744  -9526987.86644  20267030.3304   20267029.5354
 -17701225.58044 -13793153.73044  21681512.6374   21681512.1174
   4699350.51644   3661833.62644  22417744.6674   22417744.9404
  -2220783.45344                  24408362.7494
  20301898.57844                  24197942.7414
 96  3 16  4 48  0.0000000  0  7G26G20G23G 6G17G16G22
  -3441565.53644  -2681739.00544  23209371.5864   23209370.9564
   9025132.55344   7032569.45844  22381466.9134   22381467.2214
 -10685233.36444  -8326151.36944  22907682.8854   22907683.4664
 -12241174.72744  -9538576.76544  20264200.3414   20264199.0844
 -17748453.72044 -13829954.86944  21672525.4694   21672524.9244
   4780950.01944   3725417.64544  22433272.6054   22433272.0674
  -2292035.87844                  24394804.6594
 96  3 16  4 48 30.0000000  0  7G26G20G23G 6G17G16G22
  -3509368.20344  -2734572.22744  23196468.7014   23196468.4504
   9118615.02244   7105412.91944  22399255.8354   22399256.1344
 -10777516.20144  -8398060.04244  22890121.4404   22890121.3064
 -12255705.76644  -9549899.65244  20261435.1034   20261433.9474
 -17795478.12244 -13866597.24644  21663577.2264   21663576.6374
   4862844.33744   3789231.39144  22448856.5244   22448856.1474
  -2362932.82644                  24381311.3194
 96  3 16  4 49  0.0000000  0  7G26G20G23G 6G17G16G22
  -3576933.65344  -2787220.59244  23183611.3874   23183610.3244
   9212353.78644   7178456.08744  22417093.3854   22417093.9814
 -10869562.42144  -8469784.34844  22872605.6724   22872606.5864
 -12269895.27544  -9560956.41244  20258735.1614   20258734.1804
 -17842300.11644 -13903081.90944  21654667.2634   21654666.7634
   4945021.22044   3853265.31844  22464494.1864   22464493.1234
  -2433472.94844  -1896212.81344  24367892.1484
 96  3 16  4 49 30.0000000  0  7G26G20G23G 6G17G16G22
  -3644250.81344  -2839675.49544  23170801.0484   23170800.6024
   9306345.39844   7251696.28844  22434979.3044   22434980.1014
 -10961350.55844  -8541307.54244  22855139.5764   22855140.6114
 -12283699.87344  -9571713.24844  20256107.9364   20256107.0594
 -17888905.12744 -13939397.48844  21645798.0864   21645798.3774
   5027493.91044   3917529.74944  22480188.0744   22480188.4584
  -2503638.00044  -1950886.87544  24354537.0764
 96  3 16  4 50  0.0000000  0  7G26G20G23G 6G17G16G22
  -3711340.19144  -2891952.92144  23158034.3464   23158034.2354
   9400566.45044   7325115.26544  22452909.1474   22452909.5954
 -11052890.13344  -8612637.05444  22837721.0504   22837721.0414
 -12297097.86944  -9582153.24944  20253558.4214   20253557.6144
 -17935306.45644 -13975554.36044  21636968.5394   21636968.6214
   5110265.14144   3982026.79644  22495938.6374   22495939.1264
  -2573438.85644  -2005277.13144  24341254.7444   24341253.5754
 96  3 16  4 50 30.0000000  0  7G26G20G23G 6G17G16G22
  -3778181.03344  -2944036.66144  23145315.5904   23145315.9534
   9495025.15444   7398719.43944  22470883.9484   22470884.0034
 -11144183.71344  -8683774.89644  22820348.4154   22820347.4334
 -12310074.26344  -9592264.73044  20251089.3344   20251088.2414
 -17981510.36244 -14011557.39144  21628176.3304   21628176.0174
   5193362.18344   4046777.73944  22511752.2414   22511751.8214
  -2642861.44144  -2059372.68144  24328044.8044   24328041.7134
 96  3 16  4 51  0.0000000  0  7G26G20G23G 6G17G16G22
  -3844737.41944  -2995898.75344  23132649.4604   23132648.4244
   9589732.83244   7472517.62144  22488906.4594   22488906.5464
 -11235213.45544  -8754707.15544  22803026.5594   22803026.2294
 -12322614.15144  -9602036.07544  20248702.9294   20248702.3714
 -18027510.75944 -14047401.84444  21619422.5164   21619422.0314
   5276796.03644   4111791.12544  22527629.2194   22527629.2704
  -2711890.67044  -2113161.70144  24314908.5924
 96  3 16  4 51 30.0000000  0  7G26G20G23G 6G17G16G22
  -3911004.95544  -3047535.75944  23120039.9754   23120040.1294
   9684675.28544   7546498.73644  22506972.9884   22506973.4974
 -11325984.54944  -8825437.86344  22785752.6224   22785752.5644
 -12334721.13444  -9611470.08844  20246399.0284   20246398.2344
 -18073315.90544 -14083094.15444  21610706.0394   21610705.7654
   5360548.70144   4177052.94344  22543566.6984   22543566.5774
  -2780526.04444  -2166643.83444  24301847.2444
 96  3 16  4 52  0.0000000  0  7G26G20G23G 6G17G16G22
  -3976988.34444  -3098951.35644  23107483.4644   23107482.9594
   9779833.42044   7620647.90244  22525080.2824   22525081.7684
 -11416519.53044  -8895984.58744  22768524.2724   22768524.4134
 -12346442.40544  -9620603.55544  20244168.6954   20244167.5964
 -18118947.14444 -14118650.94844  21602022.5404   21602022.5284
   5444598.86244   4242546.56944  22559560.4944   22559560.6914
  -2848783.89544  -2219831.73344  24288858.6264   24288857.6364
 96  3 16  4 52 30.0000000  0  7G26G20G23G 6G17G16G22
  -4042626.44544  -3150097.89444  23094992.4514   23094991.4294
   9875249.60444   7694998.15344  22543238.3624   22543238.8334
 -11506761.59044  -8966303.05644  22751351.5114   22751351.6404
 -12357742.19144  -9629408.58644  20242018.3094   20242017.5784
 -18164362.38144 -14154039.43744  21593380.4324   21593380.2174
   5528974.34044   4308293.69244  22575616.9904   22575617.4064
  -2916601.85744  -2272676.87744  24275951.7264   24275951.4444
